Wetterdaten: aktuell Mittwoch, 29.03.2023 18:47
Datum Zeit Temp. A. Feuchte A. Luftdruck Regen Wind Richtung Richtung Sonnenschein ET UV Solar Taupunkt Windchill Windben Empfang
29.03.2023 18:47 6,1 C 85 % 1023,4 hPa 0,0 l/m 0,0 km/h (0 Bft) O-NO 67 0 min 0,000 mm 0,0 UV-I 16 W/m 3,8 C 6,1 C 1,6 km/h (1 Bft) 100,00 %
29.03.2023 18:46 6,1 C 84 % 1023,3 hPa 0,0 l/m 3,2 km/h (1 Bft) O-NO 67 0 min 0,000 mm 0,0 UV-I 16 W/m 3,6 C 6,1 C 4,8 km/h (1 Bft) 100,00 %
29.03.2023 18:45 6,1 C 84 % 1023,3 hPa 0,0 l/m 1,6 km/h (1 Bft) NO 45 0 min 0,000 mm 0,0 UV-I 19 W/m 3,6 C 6,1 C 4,8 km/h (1 Bft) 100,00 %
29.03.2023 18:44 6,2 C 84 % 1023,4 hPa 0,0 l/m 1,6 km/h (1 Bft) NO 45 0 min 0,000 mm 0,0 UV-I 19 W/m 3,7 C 6,2 C 1,6 km/h (1 Bft) 95,65 %
29.03.2023 18:43 6,2 C 84 % 1023,3 hPa 0,0 l/m 0,0 km/h (0 Bft) O-NO 67 0 min 0,000 mm 0,0 UV-I 19 W/m 3,7 C 6,2 C 1,6 km/h (1 Bft) 95,65 %
29.03.2023 18:42 6,2 C 84 % 1023,2 hPa 0,0 l/m 0,0 km/h (0 Bft) N 0 0 min 0,000 mm 0,0 UV-I 16 W/m 3,7 C 6,2 C 0,0 km/h (0 Bft) 100,00 %
29.03.2023 18:41 6,3 C 84 % 1023,3 hPa 0,0 l/m 1,6 km/h (1 Bft) O 90 0 min 0,000 mm 0,0 UV-I 16 W/m 3,8 C 6,3 C 3,2 km/h (1 Bft) 100,00 %
29.03.2023 18:40 6,4 C 84 % 1023,4 hPa 0,0 l/m 3,2 km/h (1 Bft) O-NO 67 0 min 0,000 mm 0,0 UV-I 14 W/m 3,9 C 6,4 C 3,2 km/h (1 Bft) 95,65 %
29.03.2023 18:39 6,4 C 83 % 1023,5 hPa 0,0 l/m 1,6 km/h (1 Bft) O-NO 67 0 min 0,000 mm 0,0 UV-I 12 W/m 3,7 C 6,4 C 3,2 km/h (1 Bft) 100,00 %
29.03.2023 18:38 6,4 C 83 % 1023,4 hPa 0,0 l/m 1,6 km/h (1 Bft) O-NO 67 0 min 0,000 mm 0,0 UV-I 12 W/m 3,7 C 6,4 C 3,2 km/h (1 Bft) 100,00 %
29.03.2023 18:37 6,4 C 83 % 1023,4 hPa 0,0 l/m 1,6 km/h (1 Bft) O 90 0 min 0,000 mm 0,0 UV-I 12 W/m 3,7 C 6,4 C 1,6 km/h (1 Bft) 95,65 %
29.03.2023 18:36 6,5 C 83 % 1023,3 hPa 0,0 l/m 3,2 km/h (1 Bft) O 90 0 min 0,000 mm 0,0 UV-I 12 W/m 3,8 C 6,5 C 4,8 km/h (1 Bft) 100,00 %
29.03.2023 18:35 6,5 C 83 % 1023,3 hPa 0,0 l/m 3,2 km/h (1 Bft) O-NO 67 0 min 0,000 mm 0,0 UV-I 12 W/m 3,8 C 6,5 C 4,8 km/h (1 Bft) 100,00 %
29.03.2023 18:34 6,4 C 83 % 1023,4 hPa 0,0 l/m 0,0 km/h (0 Bft) W 270 0 min 0,000 mm 0,0 UV-I 14 W/m 3,7 C 6,4 C 1,6 km/h (1 Bft) 100,00 %
29.03.2023 18:33 6,4 C 84 % 1023,4 hPa 0,0 l/m 0,0 km/h (0 Bft) W 270 0 min 0,000 mm 0,0 UV-I 16 W/m 3,9 C 6,4 C 1,6 km/h (1 Bft) 100,00 %
29.03.2023 18:32 6,4 C 84 % 1023,4 hPa 0,0 l/m 1,6 km/h (1 Bft) W-NW 292 0 min 0,000 mm 0,0 UV-I 18 W/m 3,9 C 6,4 C 3,2 km/h (1 Bft) 95,65 %
29.03.2023 18:31 6,4 C 83 % 1023,2 hPa 0,0 l/m 1,6 km/h (1 Bft) NW 315 0 min 0,000 mm 0,0 UV-I 19 W/m 3,7 C 6,4 C 3,2 km/h (1 Bft) 100,00 %
29.03.2023 18:30 6,4 C 83 % 1023,2 hPa 0,0 l/m 0,0 km/h (0 Bft) O 90 0 min 0,000 mm 0,0 UV-I 19 W/m 3,7 C 6,4 C 1,6 km/h (1 Bft) 86,96 %
29.03.2023 18:29 6,5 C 83 % 1023,2 hPa 0,0 l/m 1,6 km/h (1 Bft) O 90 0 min 0,000 mm 0,0 UV-I 23 W/m 3,8 C 6,5 C 3,2 km/h (1 Bft) 100,00 %
29.03.2023 18:28 6,6 C 83 % 1023,2 hPa 0,0 l/m 3,2 km/h (1 Bft) O-NO 67 0 min 0,000 mm 0,0 UV-I 25 W/m 3,9 C 6,6 C 4,8 km/h (1 Bft) 95,65 %
29.03.2023 18:27 6,6 C 83 % 1023,2 hPa 0,0 l/m 3,2 km/h (1 Bft) N-NO 22 0 min 0,000 mm 0,0 UV-I 26 W/m 3,9 C 6,6 C 4,8 km/h (1 Bft) 95,65 %
29.03.2023 18:26 6,6 C 83 % 1023,3 hPa 0,0 l/m 1,6 km/h (1 Bft) N-NO 22 0 min 0,000 mm 0,0 UV-I 28 W/m 3,9 C 6,6 C 1,6 km/h (1 Bft) 95,65 %
29.03.2023 18:25 6,6 C 83 % 1023,2 hPa 0,0 l/m 0,0 km/h (0 Bft) N-NO 22 0 min 0,000 mm 0,0 UV-I 33 W/m 3,9 C 6,6 C 1,6 km/h (1 Bft) 95,65 %
29.03.2023 18:24 6,7 C 82 % 1023,2 hPa 0,0 l/m 1,6 km/h (1 Bft) N-NO 22 0 min 0,000 mm 0,0 UV-I 33 W/m 3,8 C 6,7 C 1,6 km/h (1 Bft) 100,00 %
29.03.2023 18:23 6,7 C 83 % 1023,2 hPa 0,0 l/m 0,0 km/h (0 Bft) N-NO 22 0 min 0,000 mm 0,0 UV-I 33 W/m 4,0 C 6,7 C 1,6 km/h (1 Bft) 91,30 %
29.03.2023 18:22 6,7 C 83 % 1023,1 hPa 0,0 l/m 1,6 km/h (1 Bft) N-NW 337 0 min 0,000 mm 0,0 UV-I 32 W/m 4,0 C 6,7 C 1,6 km/h (1 Bft) 100,00 %
29.03.2023 18:21 6,7 C 83 % 1023,2 hPa 0,0 l/m 1,6 km/h (1 Bft) N-NW 337 0 min 0,000 mm 0,0 UV-I 30 W/m 4,0 C 6,7 C 1,6 km/h (1 Bft) 95,65 %
29.03.2023 18:20 6,7 C 83 % 1023,1 hPa 0,0 l/m 0,0 km/h (0 Bft) NW 315 0 min 0,000 mm 0,0 UV-I 30 W/m 4,0 C 6,7 C 1,6 km/h (1 Bft) 100,00 %
29.03.2023 18:19 6,7 C 83 % 1023,2 hPa 0,0 l/m 0,0 km/h (0 Bft) NW 315 0 min 0,000 mm 0,0 UV-I 30 W/m 4,0 C 6,7 C 1,6 km/h (1 Bft) 95,65 %
29.03.2023 18:18 6,7 C 83 % 1023,0 hPa 0,0 l/m 1,6 km/h (1 Bft) NW 315 0 min 0,000 mm 0,0 UV-I 28 W/m 4,0 C 6,7 C 3,2 km/h (1 Bft) 100,00 %
29.03.2023 18:17 6,7 C 83 % 1023,1 hPa 0,0 l/m 1,6 km/h (1 Bft) O 90 0 min 0,000 mm 0,0 UV-I 30 W/m 4,0 C 6,7 C 3,2 km/h (1 Bft) 95,65 %
29.03.2023 18:16 6,7 C 82 % 1023,0 hPa 0,0 l/m 0,0 km/h (0 Bft) N 0 0 min 0,000 mm 0,0 UV-I 33 W/m 3,8 C 6,7 C 0,0 km/h (0 Bft) 91,30 %
29.03.2023 18:15 6,7 C 82 % 1023,0 hPa 0,0 l/m 1,6 km/h (1 Bft) O 90 0 min 0,000 mm 0,0 UV-I 33 W/m 3,8 C 6,7 C 3,2 km/h (1 Bft) 100,00 %
29.03.2023 18:14 6,8 C 82 % 1023,1 hPa 0,0 l/m 1,6 km/h (1 Bft) O 90 0 min 0,000 mm 0,0 UV-I 30 W/m 3,9 C 6,8 C 3,2 km/h (1 Bft) 95,65 %
29.03.2023 18:13 6,8 C 82 % 1023,1 hPa 0,0 l/m 1,6 km/h (1 Bft) S-SO 157 0 min 0,000 mm 0,0 UV-I 33 W/m 3,9 C 6,8 C 3,2 km/h (1 Bft) 95,65 %
29.03.2023 18:12 6,8 C 82 % 1023,2 hPa 0,0 l/m 1,6 km/h (1 Bft) S-SO 157 0 min 0,000 mm 0,0 UV-I 35 W/m 3,9 C 6,8 C 1,6 km/h (1 Bft) 100,00 %
29.03.2023 18:11 6,8 C 81 % 1023,2 hPa 0,0 l/m 0,0 km/h (0 Bft) S-SO 157 0 min 0,000 mm 0,0 UV-I 37 W/m 3,8 C 6,8 C 1,6 km/h (1 Bft) 100,00 %
29.03.2023 18:10 6,8 C 81 % 1023,2 hPa 0,0 l/m 0,0 km/h (0 Bft) S-SO 157 0 min 0,000 mm 0,0 UV-I 40 W/m 3,8 C 6,8 C 1,6 km/h (1 Bft) 95,65 %
29.03.2023 18:09 6,8 C 81 % 1023,1 hPa 0,0 l/m 0,0 km/h (0 Bft) S-SO 157 0 min 0,000 mm 0,0 UV-I 44 W/m 3,8 C 6,8 C 3,2 km/h (1 Bft) 95,65 %
29.03.2023 18:08 6,8 C 81 % 1023,1 hPa 0,0 l/m 0,0 km/h (0 Bft) N 0 0 min 0,000 mm 0,0 UV-I 46 W/m 3,8 C 6,8 C 0,0 km/h (0 Bft) 100,00 %
29.03.2023 18:07 6,9 C 81 % 1023,2 hPa 0,0 l/m 0,0 km/h (0 Bft) S-SO 157 0 min 0,000 mm 0,0 UV-I 54 W/m 3,9 C 6,9 C 1,6 km/h (1 Bft) 100,00 %
29.03.2023 18:06 6,9 C 81 % 1023,0 hPa 0,0 l/m 0,0 km/h (0 Bft) S-SO 157 0 min 0,000 mm 0,0 UV-I 54 W/m 3,9 C 6,9 C 1,6 km/h (1 Bft) 100,00 %
29.03.2023 18:05 7,0 C 81 % 1023,0 hPa 0,0 l/m 0,0 km/h (0 Bft) S-SO 157 0 min 0,000 mm 0,0 UV-I 56 W/m 4,0 C 7,0 C 1,6 km/h (1 Bft) 100,00 %
29.03.2023 18:04 7,1 C 80 % 1022,9 hPa 0,0 l/m 1,6 km/h (1 Bft) S-SO 157 0 min 0,000 mm 0,0 UV-I 56 W/m 3,9 C 7,1 C 3,2 km/h (1 Bft) 100,00 %
29.03.2023 18:03 7,1 C 79 % 1023,0 hPa 0,0 l/m 0,0 km/h (0 Bft) S-SO 157 0 min 0,000 mm 0,0 UV-I 60 W/m 3,7 C 7,1 C 1,6 km/h (1 Bft) 95,65 %
29.03.2023 18:02 7,1 C 79 % 1023,0 hPa 0,0 l/m 1,6 km/h (1 Bft) S-SO 157 0 min 0,000 mm 0,0 UV-I 67 W/m 3,7 C 7,1 C 3,2 km/h (1 Bft) 95,65 %
29.03.2023 18:01 7,2 C 79 % 1023,1 hPa 0,0 l/m 1,6 km/h (1 Bft) SO 135 0 min 0,000 mm 0,0 UV-I 67 W/m 3,8 C 7,2 C 3,2 km/h (1 Bft) 100,00 %
29.03.2023 18:00 7,2 C 80 % 1023,1 hPa 0,0 l/m 1,6 km/h (1 Bft) SO 135 0 min 0,051 mm 0,0 UV-I 62 W/m 4,0 C 7,2 C 3,2 km/h (1 Bft) 100,00 %
29.03.2023 17:59 7,2 C 80 % 1023,1 hPa 0,0 l/m 1,6 km/h (1 Bft) SO 135 0 min 0,000 mm 0,0 UV-I 60 W/m 4,0 C 7,2 C 3,2 km/h (1 Bft) 100,00 %
29.03.2023 17:58 7,2 C 79 % 1023,1 hPa 0,0 l/m 1,6 km/h (1 Bft) SO 135 0 min 0,000 mm 0,0 UV-I 58 W/m 3,8 C 7,2 C 3,2 km/h (1 Bft) 100,00 %
29.03.2023 17:57 7,2 C 79 % 1023,1 hPa 0,0 l/m 3,2 km/h (1 Bft) SO 135 0 min 0,000 mm 0,0 UV-I 60 W/m 3,8 C 7,2 C 3,2 km/h (1 Bft) 100,00 %
29.03.2023 17:56 7,2 C 78 % 1023,1 hPa 0,0 l/m 1,6 km/h (1 Bft) SO 135 0 min 0,000 mm 0,0 UV-I 67 W/m 3,6 C 7,2 C 3,2 km/h (1 Bft) 100,00 %
29.03.2023 17:55 7,2 C 79 % 1023,2 hPa 0,0 l/m 1,6 km/h (1 Bft) SO 135 0 min 0,000 mm 0,0 UV-I 63 W/m 3,8 C 7,2 C 3,2 km/h (1 Bft) 91,30 %
29.03.2023 17:54 7,2 C 78 % 1023,2 hPa 0,0 l/m 0,0 km/h (0 Bft) W-SW 247 0 min 0,000 mm 0,0 UV-I 58 W/m 3,6 C 7,2 C 1,6 km/h (1 Bft) 95,65 %
29.03.2023 17:53 7,2 C 78 % 1023,2 hPa 0,0 l/m 0,0 km/h (0 Bft) W 270 0 min 0,000 mm 0,0 UV-I 58 W/m 3,6 C 7,2 C 1,6 km/h (1 Bft) 95,65 %
29.03.2023 17:52 7,3 C 78 % 1023,1 hPa 0,0 l/m 1,6 km/h (1 Bft) W 270 0 min 0,000 mm 0,0 UV-I 62 W/m 3,7 C 7,3 C 3,2 km/h (1 Bft) 95,65 %
29.03.2023 17:51 7,3 C 78 % 1023,2 hPa 0,0 l/m 0,0 km/h (0 Bft) N-NW 337 0 min 0,000 mm 0,0 UV-I 67 W/m 3,7 C 7,3 C 1,6 km/h (1 Bft) 100,00 %
29.03.2023 17:50 7,3 C 79 % 1023,1 hPa 0,0 l/m 0,0 km/h (0 Bft) N 360 0 min 0,000 mm 0,0 UV-I 95 W/m 3,9 C 7,3 C 1,6 km/h (1 Bft) 95,65 %
29.03.2023 17:49 7,3 C 78 % 1023,1 hPa 0,0 l/m 1,6 km/h (1 Bft) N-NO 22 0 min 0,000 mm 0,0 UV-I 93 W/m 3,7 C 7,3 C 3,2 km/h (1 Bft) 100,00 %
29.03.2023 17:48 7,3 C 79 % 1023,1 hPa 0,0 l/m 0,0 km/h (0 Bft) S-SO 157 0 min 0,000 mm 0,0 UV-I 93 W/m 3,9 C 7,3 C 1,6 km/h (1 Bft) 95,65 %
29.03.2023 17:47 7,3 C 80 % 1023,1 hPa 0,0 l/m 1,6 km/h (1 Bft) S-SO 157 0 min 0,000 mm 0,0 UV-I 90 W/m 4,1 C 7,3 C 3,2 km/h (1 Bft) 100,00 %
29.03.2023 17:46 7,3 C 79 % 1022,9 hPa 0,0 l/m 1,6 km/h (1 Bft) S-SO 157 0 min 0,000 mm 0,0 UV-I 88 W/m 3,9 C 7,3 C 4,8 km/h (1 Bft) 100,00 %
29.03.2023 17:45 7,3 C 79 % 1023,1 hPa 0,0 l/m 0,0 km/h (0 Bft) N 0 0 min 0,000 mm 0,0 UV-I 88 W/m 3,9 C 7,3 C 0,0 km/h (0 Bft) 100,00 %
29.03.2023 17:44 7,3 C 79 % 1023,1 hPa 0,0 l/m 0,0 km/h (0 Bft) N 0 0 min 0,000 mm 0,0 UV-I 102 W/m 3,9 C 7,3 C 0,0 km/h (0 Bft) 95,65 %
29.03.2023 17:43 7,3 C 78 % 1023,2 hPa 0,0 l/m 0,0 km/h (0 Bft) N 0 0 min 0,000 mm 0,0 UV-I 86 W/m 3,7 C 7,3 C 0,0 km/h (0 Bft) 95,65 %
29.03.2023 17:42 7,2 C 77 % 1023,1 hPa 0,0 l/m 0,0 km/h (0 Bft) N 0 0 min 0,000 mm 0,0 UV-I 84 W/m 3,4 C 7,2 C 0,0 km/h (0 Bft) 100,00 %
29.03.2023 17:41 7,3 C 77 % 1023,1 hPa 0,0 l/m 0,0 km/h (0 Bft) N 0 0 min 0,000 mm 0,0 UV-I 84 W/m 3,5 C 7,3 C 0,0 km/h (0 Bft) 95,65 %
29.03.2023 17:40 7,3 C 77 % 1023,1 hPa 0,0 l/m 0,0 km/h (0 Bft) N 0 0 min 0,000 mm 0,0 UV-I 83 W/m 3,5 C 7,3 C 0,0 km/h (0 Bft) 95,65 %
29.03.2023 17:39 7,3 C 77 % 1023,1 hPa 0,0 l/m 0,0 km/h (0 Bft) W 270 0 min 0,000 mm 0,0 UV-I 77 W/m 3,5 C 7,3 C 1,6 km/h (1 Bft) 95,65 %
29.03.2023 17:38 7,3 C 79 % 1023,1 hPa 0,0 l/m 0,0 km/h (0 Bft) N 0 0 min 0,000 mm 0,0 UV-I 76 W/m 3,9 C 7,3 C 0,0 km/h (0 Bft) 100,00 %
29.03.2023 17:37 7,3 C 78 % 1023,2 hPa 0,0 l/m 0,0 km/h (0 Bft) N 0 0 min 0,000 mm 0,0 UV-I 77 W/m 3,7 C 7,3 C 0,0 km/h (0 Bft) 100,00 %
29.03.2023 17:36 7,3 C 78 % 1023,0 hPa 0,0 l/m 0,0 km/h (0 Bft) W 270 0 min 0,000 mm 0,0 UV-I 81 W/m 3,7 C 7,3 C 1,6 km/h (1 Bft) 100,00 %
29.03.2023 17:35 7,4 C 78 % 1023,1 hPa 0,0 l/m 0,0 km/h (0 Bft) W 270 0 min 0,000 mm 0,0 UV-I 83 W/m 3,8 C 7,4 C 3,2 km/h (1 Bft) 100,00 %
29.03.2023 17:34 7,4 C 77 % 1023,1 hPa 0,0 l/m 3,2 km/h (1 Bft) W-SW 247 0 min 0,000 mm 0,0 UV-I 86 W/m 3,6 C 7,4 C 4,8 km/h (1 Bft) 100,00 %
29.03.2023 17:33 7,4 C 77 % 1023,1 hPa 0,0 l/m 1,6 km/h (1 Bft) SW 225 0 min 0,000 mm 0,0 UV-I 90 W/m 3,6 C 7,4 C 3,2 km/h (1 Bft) 91,30 %
29.03.2023 17:32 7,6 C 77 % 1023,1 hPa 0,0 l/m 1,6 km/h (1 Bft) S-SW 202 0 min 0,000 mm 0,0 UV-I 95 W/m 3,8 C 7,6 C 3,2 km/h (1 Bft) 100,00 %
29.03.2023 17:31 7,6 C 78 % 1023,0 hPa 0,0 l/m 0,0 km/h (0 Bft) N 0 0 min 0,000 mm 0,5 UV-I 93 W/m 4,0 C 7,6 C 0,0 km/h (0 Bft) 100,00 %
29.03.2023 17:30 7,6 C 78 % 1023,1 hPa 0,0 l/m 0,0 km/h (0 Bft) S-SO 157 0 min 0,000 mm 0,5 UV-I 95 W/m 4,0 C 7,6 C 1,6 km/h (1 Bft) 100,00 %
29.03.2023 17:29 7,6 C 77 % 1023,1 hPa 0,0 l/m 0,0 km/h (0 Bft) S-SO 157 0 min 0,000 mm 0,5 UV-I 97 W/m 3,8 C 7,6 C 1,6 km/h (1 Bft) 100,00 %
29.03.2023 17:28 7,7 C 77 % 1023,1 hPa 0,0 l/m 1,6 km/h (1 Bft) S-SO 157 0 min 0,000 mm 0,5 UV-I 102 W/m 3,9 C 7,7 C 1,6 km/h (1 Bft) 95,65 %
29.03.2023 17:27 7,7 C 77 % 1023,1 hPa 0,0 l/m 0,0 km/h (0 Bft) S-SO 157 0 min 0,000 mm 0,5 UV-I 125 W/m 3,9 C 7,7 C 1,6 km/h (1 Bft) 91,30 %
29.03.2023 17:26 7,7 C 78 % 1023,2 hPa 0,0 l/m 1,6 km/h (1 Bft) S-SO 157 0 min 0,000 mm 0,6 UV-I 141 W/m 4,1 C 7,7 C 3,2 km/h (1 Bft) 95,65 %
29.03.2023 17:25 7,7 C 78 % 1023,1 hPa 0,0 l/m 0,0 km/h (0 Bft) S 180 0 min 0,000 mm 0,6 UV-I 151 W/m 4,1 C 7,7 C 1,6 km/h (1 Bft) 95,65 %
29.03.2023 17:24 7,6 C 77 % 1023,1 hPa 0,0 l/m 0,0 km/h (0 Bft) N 0 0 min 0,000 mm 0,6 UV-I 144 W/m 3,8 C 7,6 C 0,0 km/h (0 Bft) 95,65 %
29.03.2023 17:23 7,6 C 77 % 1023,1 hPa 0,0 l/m 0,0 km/h (0 Bft) W 270 0 min 0,000 mm 0,6 UV-I 141 W/m 3,8 C 7,6 C 1,6 km/h (1 Bft) 100,00 %
29.03.2023 17:22 7,6 C 77 % 1023,1 hPa 0,0 l/m 1,6 km/h (1 Bft) W 270 1 min 0,000 mm 0,6 UV-I 153 W/m 3,8 C 7,6 C 3,2 km/h (1 Bft) 95,65 %
29.03.2023 17:21 7,6 C 77 % 1023,1 hPa 0,0 l/m 1,6 km/h (1 Bft) W-SW 247 1 min 0,000 mm 0,6 UV-I 167 W/m 3,8 C 7,6 C 3,2 km/h (1 Bft) 100,00 %
29.03.2023 17:20 7,6 C 77 % 1023,1 hPa 0,0 l/m 1,6 km/h (1 Bft) SW 225 1 min 0,000 mm 0,6 UV-I 160 W/m 3,8 C 7,6 C 1,6 km/h (1 Bft) 95,65 %
29.03.2023 17:19 7,6 C 79 % 1023,0 hPa 0,0 l/m 1,6 km/h (1 Bft) SW 225 1 min 0,000 mm 0,7 UV-I 155 W/m 4,2 C 7,6 C 3,2 km/h (1 Bft) 95,65 %
29.03.2023 17:18 7,5 C 79 % 1023,0 hPa 0,0 l/m 1,6 km/h (1 Bft) S 180 1 min 0,000 mm 0,7 UV-I 171 W/m 4,1 C 7,5 C 3,2 km/h (1 Bft) 95,65 %
29.03.2023 17:17 7,4 C 78 % 1023,1 hPa 0,0 l/m 1,6 km/h (1 Bft) SW 225 1 min 0,000 mm 0,6 UV-I 174 W/m 3,8 C 7,4 C 3,2 km/h (1 Bft) 100,00 %
29.03.2023 17:16 7,3 C 77 % 1023,1 hPa 0,0 l/m 0,0 km/h (0 Bft) N 0 1 min 0,000 mm 0,5 UV-I 183 W/m 3,5 C 7,3 C 0,0 km/h (0 Bft) 95,65 %
29.03.2023 17:15 7,3 C 78 % 1023,1 hPa 0,0 l/m 0,0 km/h (0 Bft) W-SW 247 1 min 0,000 mm 0,5 UV-I 185 W/m 3,7 C 7,3 C 1,6 km/h (1 Bft) 95,65 %
29.03.2023 17:14 7,3 C 79 % 1023,1 hPa 0,0 l/m 1,6 km/h (1 Bft) W-SW 247 1 min 0,000 mm 0,5 UV-I 165 W/m 3,9 C 7,3 C 3,2 km/h (1 Bft) 100,00 %
29.03.2023 17:13 7,2 C 77 % 1023,1 hPa 0,0 l/m 0,0 km/h (0 Bft) W-SW 247 0 min 0,000 mm 0,5 UV-I 144 W/m 3,4 C 7,2 C 1,6 km/h (1 Bft) 91,30 %
29.03.2023 17:12 7,2 C 78 % 1023,2 hPa 0,0 l/m 0,0 km/h (0 Bft) W-SW 247 0 min 0,000 mm 0,5 UV-I 146 W/m 3,6 C 7,2 C 1,6 km/h (1 Bft) 95,65 %
29.03.2023 17:11 7,2 C 79 % 1023,1 hPa 0,0 l/m 0,0 km/h (0 Bft) W-SW 247 0 min 0,000 mm 0,5 UV-I 135 W/m 3,8 C 7,2 C 3,2 km/h (1 Bft) 95,65 %
29.03.2023 17:10 7,2 C 78 % 1023,1 hPa 0,0 l/m 3,2 km/h (1 Bft) W-SW 247 0 min 0,000 mm 0,5 UV-I 137 W/m 3,6 C 7,2 C 3,2 km/h (1 Bft) 100,00 %
29.03.2023 17:09 7,2 C 77 % 1023,2 hPa 0,0 l/m 1,6 km/h (1 Bft) SW 225 0 min 0,000 mm 0,5 UV-I 146 W/m 3,4 C 7,2 C 3,2 km/h (1 Bft) 91,30 %
29.03.2023 17:08 7,2 C 77 % 1023,0 hPa 0,0 l/m 3,2 km/h (1 Bft) SW 225 0 min 0,000 mm 0,5 UV-I 151 W/m 3,4 C 7,2 C 4,8 km/h (1 Bft) 91,30 %
29.03.2023 17:07 7,2 C 77 % 1023,2 hPa 0,0 l/m 1,6 km/h (1 Bft) S 180 1 min 0,000 mm 0,5 UV-I 155 W/m 3,4 C 7,2 C 3,2 km/h (1 Bft) 100,00 %
29.03.2023 17:06 7,2 C 78 % 1023,3 hPa 0,0 l/m 1,6 km/h (1 Bft) S 180 1 min 0,000 mm 0,5 UV-I 160 W/m 3,6 C 7,2 C 3,2 km/h (1 Bft) 95,65 %
29.03.2023 17:05 7,2 C 77 % 1023,2 hPa 0,0 l/m 1,6 km/h (1 Bft) S-SW 202 1 min 0,000 mm 0,6 UV-I 163 W/m 3,4 C 7,2 C 3,2 km/h (1 Bft) 95,65 %
29.03.2023 17:04 7,2 C 78 % 1023,2 hPa 0,0 l/m 1,6 km/h (1 Bft) SW 225 1 min 0,000 mm 0,6 UV-I 171 W/m 3,6 C 7,2 C 3,2 km/h (1 Bft) 100,00 %
29.03.2023 17:03 7,2 C 78 % 1023,3 hPa 0,0 l/m 1,6 km/h (1 Bft) SW 225 1 min 0,000 mm 0,7 UV-I 193 W/m 3,6 C 7,2 C 3,2 km/h (1 Bft) 100,00 %
29.03.2023 17:02 7,3 C 78 % 1023,2 hPa 0,0 l/m 1,6 km/h (1 Bft) W-SW 247 1 min 0,000 mm 0,7 UV-I 185 W/m 3,7 C 7,3 C 3,2 km/h (1 Bft) 95,65 %
29.03.2023 17:01 7,2 C 78 % 1023,3 hPa 0,0 l/m 0,0 km/h (0 Bft) W-SW 247 1 min 0,000 mm 0,6 UV-I 176 W/m 3,6 C 7,2 C 1,6 km/h (1 Bft) 100,00 %
29.03.2023 17:00 7,2 C 78 % 1023,2 hPa 0,0 l/m 1,6 km/h (1 Bft) W-SW 247 1 min 0,102 mm 0,7 UV-I 181 W/m 3,6 C 7,2 C 3,2 km/h (1 Bft) 100,00 %
29.03.2023 16:59 7,2 C 78 % 1023,2 hPa 0,0 l/m 1,6 km/h (1 Bft) W-NW 292 1 min 0,000 mm 0,7 UV-I 183 W/m 3,6 C 7,2 C 1,6 km/h (1 Bft) 100,00 %
29.03.2023 16:58 7,1 C 78 % 1023,3 hPa 0,0 l/m 0,0 km/h (0 Bft) NW 315 1 min 0,000 mm 0,7 UV-I 195 W/m 3,5 C 7,1 C 1,6 km/h (1 Bft) 95,65 %
29.03.2023 16:57 7,0 C 78 % 1023,3 hPa 0,0 l/m 3,2 km/h (1 Bft) W-NW 292 1 min 0,000 mm 0,7 UV-I 251 W/m 3,4 C 7,0 C 3,2 km/h (1 Bft) 95,65 %
29.03.2023 16:56 6,9 C 78 % 1023,3 hPa 0,0 l/m 1,6 km/h (1 Bft) W-NW 292 1 min 0,000 mm 0,7 UV-I 197 W/m 3,3 C 6,9 C 3,2 km/h (1 Bft) 100,00 %
29.03.2023 16:55 6,8 C 78 % 1023,4 hPa 0,0 l/m 0,0 km/h (0 Bft) SW 225 1 min 0,000 mm 0,7 UV-I 158 W/m 3,2 C 6,8 C 1,6 km/h (1 Bft) 100,00 %
29.03.2023 16:54 6,8 C 77 % 1023,3 hPa 0,0 l/m 1,6 km/h (1 Bft) SW 225 0 min 0,000 mm 0,7 UV-I 137 W/m 3,1 C 6,8 C 1,6 km/h (1 Bft) 100,00 %
29.03.2023 16:53 6,9 C 78 % 1023,3 hPa 0,0 l/m 1,6 km/h (1 Bft) S-SW 202 0 min 0,000 mm 0,7 UV-I 135 W/m 3,3 C 6,9 C 3,2 km/h (1 Bft) 100,00 %
29.03.2023 16:52 6,8 C 77 % 1023,4 hPa 0,0 l/m 1,6 km/h (1 Bft) SW 225 1 min 0,000 mm 0,7 UV-I 156 W/m 3,1 C 6,8 C 3,2 km/h (1 Bft) 100,00 %
29.03.2023 16:51 7,0 C 77 % 1023,3 hPa 0,0 l/m 3,2 km/h (1 Bft) S 180 1 min 0,000 mm 0,8 UV-I 223 W/m 3,2 C 7,0 C 6,4 km/h (2 Bft) 91,30 %
29.03.2023 16:50 7,1 C 78 % 1023,3 hPa 0,0 l/m 3,2 km/h (1 Bft) S-SW 202 1 min 0,000 mm 0,8 UV-I 218 W/m 3,5 C 7,1 C 6,4 km/h (2 Bft) 100,00 %
29.03.2023 16:49 7,1 C 78 % 1023,3 hPa 0,0 l/m 3,2 km/h (1 Bft) W-SW 247 1 min 0,000 mm 0,8 UV-I 214 W/m 3,5 C 7,1 C 4,8 km/h (1 Bft) 91,30 %
29.03.2023 16:48 7,1 C 78 % 1023,4 hPa 0,0 l/m 1,6 km/h (1 Bft) SW 225 1 min 0,000 mm 0,8 UV-I 237 W/m 3,5 C 7,1 C 3,2 km/h (1 Bft) 95,65 %
29.03.2023 16:47 6,9 C 78 % 1023,5 hPa 0,0 l/m 1,6 km/h (1 Bft) SW 225 1 min 0,000 mm 0,9 UV-I 185 W/m 3,3 C 6,9 C 4,8 km/h (1 Bft) 100,00 %
29.03.2023 16:46 6,9 C 79 % 1023,3 hPa 0,0 l/m 1,6 km/h (1 Bft) W-SW 247 1 min 0,000 mm 1,0 UV-I 251 W/m 3,5 C 6,9 C 4,8 km/h (1 Bft) 100,00 %
29.03.2023 16:45 6,9 C 77 % 1023,3 hPa 0,0 l/m 1,6 km/h (1 Bft) W-SW 247 1 min 0,000 mm 1,0 UV-I 278 W/m 3,2 C 6,9 C 3,2 km/h (1 Bft) 95,65 %
29.03.2023 16:44 6,9 C 78 % 1023,4 hPa 0,0 l/m 1,6 km/h (1 Bft) W-SW 247 1 min 0,000 mm 0,9 UV-I 267 W/m 3,3 C 6,9 C 3,2 km/h (1 Bft) 95,65 %
29.03.2023 16:43 6,8 C 80 % 1023,5 hPa 0,0 l/m 0,0 km/h (0 Bft) W 270 1 min 0,000 mm 0,9 UV-I 269 W/m 3,6 C 6,8 C 1,6 km/h (1 Bft) 100,00 %
29.03.2023 16:42 6,8 C 78 % 1023,6 hPa 0,0 l/m 1,6 km/h (1 Bft) W 270 1 min 0,000 mm 1,2 UV-I 243 W/m 3,2 C 6,8 C 3,2 km/h (1 Bft) 100,00 %
29.03.2023 16:41 6,8 C 77 % 1023,5 hPa 0,0 l/m 1,6 km/h (1 Bft) SW 225 1 min 0,000 mm 1,2 UV-I 216 W/m 3,1 C 6,8 C 3,2 km/h (1 Bft) 100,00 %
29.03.2023 16:40 6,8 C 77 % 1023,6 hPa 0,0 l/m 0,0 km/h (0 Bft) SW 225 1 min 0,000 mm 1,2 UV-I 192 W/m 3,1 C 6,8 C 1,6 km/h (1 Bft) 95,65 %
29.03.2023 16:39 6,7 C 78 % 1023,6 hPa 0,0 l/m 0,0 km/h (0 Bft) SW 225 1 min 0,000 mm 1,2 UV-I 193 W/m 3,1 C 6,7 C 1,6 km/h (1 Bft) 100,00 %
29.03.2023 16:38 6,7 C 78 % 1023,6 hPa 0,0 l/m 0,0 km/h (0 Bft) N 0 1 min 0,000 mm 1,2 UV-I 209 W/m 3,1 C 6,7 C 0,0 km/h (0 Bft) 100,00 %
29.03.2023 16:37 6,7 C 78 % 1023,6 hPa 0,0 l/m 0,0 km/h (0 Bft) SW 225 1 min 0,000 mm 1,2 UV-I 229 W/m 3,1 C 6,7 C 1,6 km/h (1 Bft) 95,65 %
29.03.2023 16:36 6,6 C 78 % 1023,8 hPa 0,0 l/m 1,6 km/h (1 Bft) SW 225 1 min 0,000 mm 1,2 UV-I 246 W/m 3,0 C 6,6 C 4,8 km/h (1 Bft) 100,00 %
29.03.2023 16:35 6,6 C 77 % 1023,7 hPa 0,0 l/m 3,2 km/h (1 Bft) SW 225 1 min 0,000 mm 1,2 UV-I 260 W/m 2,9 C 6,6 C 4,8 km/h (1 Bft) 100,00 %
29.03.2023 16:34 6,6 C 77 % 1023,7 hPa 0,0 l/m 3,2 km/h (1 Bft) SW 225 1 min 0,000 mm 1,2 UV-I 285 W/m 2,9 C 6,6 C 4,8 km/h (1 Bft) 95,65 %
29.03.2023 16:33 6,8 C 78 % 1023,7 hPa 0,0 l/m 3,2 km/h (1 Bft) S 180 1 min 0,000 mm 1,2 UV-I 302 W/m 3,2 C 6,8 C 4,8 km/h (1 Bft) 100,00 %
29.03.2023 16:32 6,8 C 79 % 1023,6 hPa 0,0 l/m 6,4 km/h (2 Bft) S 180 1 min 0,000 mm 1,2 UV-I 315 W/m 3,4 C 5,7 C 8,0 km/h (2 Bft) 95,65 %
29.03.2023 16:31 6,8 C 79 % 1023,6 hPa 0,0 l/m 3,2 km/h (1 Bft) S 180 1 min 0,000 mm 1,2 UV-I 313 W/m 3,4 C 6,8 C 8,0 km/h (2 Bft) 100,00 %
29.03.2023 16:30 6,7 C 79 % 1023,6 hPa 0,0 l/m 3,2 km/h (1 Bft) SW 225 1 min 0,000 mm 1,1 UV-I 271 W/m 3,3 C 6,7 C 4,8 km/h (1 Bft) 91,30 %
29.03.2023 16:29 6,7 C 78 % 1023,7 hPa 0,0 l/m 1,6 km/h (1 Bft) SW 225 1 min 0,000 mm 1,1 UV-I 271 W/m 3,1 C 6,7 C 4,8 km/h (1 Bft) 100,00 %
29.03.2023 16:28 6,7 C 79 % 1023,7 hPa 0,0 l/m 1,6 km/h (1 Bft) S-SW 202 1 min 0,000 mm 0,8 UV-I 241 W/m 3,3 C 6,7 C 4,8 km/h (1 Bft) 100,00 %
29.03.2023 16:27 6,7 C 79 % 1023,7 hPa 0,0 l/m 0,0 km/h (0 Bft) S 180 1 min 0,000 mm 0,8 UV-I 190 W/m 3,3 C 6,7 C 1,6 km/h (1 Bft) 95,65 %
29.03.2023 16:26 6,7 C 77 % 1023,8 hPa 0,0 l/m 1,6 km/h (1 Bft) S 180 1 min 0,000 mm 0,8 UV-I 181 W/m 3,0 C 6,7 C 3,2 km/h (1 Bft) 100,00 %
29.03.2023 16:25 6,6 C 77 % 1023,9 hPa 0,0 l/m 1,6 km/h (1 Bft) S 180 1 min 0,000 mm 0,7 UV-I 176 W/m 2,9 C 6,6 C 3,2 km/h (1 Bft) 100,00 %
29.03.2023 16:24 6,6 C 76 % 1023,7 hPa 0,0 l/m 0,0 km/h (0 Bft) SW 225 1 min 0,000 mm 0,7 UV-I 172 W/m 2,7 C 6,6 C 1,6 km/h (1 Bft) 100,00 %
29.03.2023 16:23 6,7 C 77 % 1023,8 hPa 0,0 l/m 1,6 km/h (1 Bft) SW 225 1 min 0,000 mm 0,7 UV-I 167 W/m 3,0 C 6,7 C 3,2 km/h (1 Bft) 91,30 %
29.03.2023 16:22 6,6 C 77 % 1023,8 hPa 0,0 l/m 3,2 km/h (1 Bft) W-SW 247 1 min 0,000 mm 0,7 UV-I 169 W/m 2,9 C 6,6 C 4,8 km/h (1 Bft) 100,00 %
29.03.2023 16:21 6,6 C 77 % 1023,8 hPa 0,0 l/m 1,6 km/h (1 Bft) SW 225 1 min 0,000 mm 0,7 UV-I 174 W/m 2,9 C 6,6 C 3,2 km/h (1 Bft) 100,00 %
29.03.2023 16:20 6,6 C 76 % 1023,7 hPa 0,0 l/m 1,6 km/h (1 Bft) SW 225 1 min 0,000 mm 0,8 UV-I 179 W/m 2,7 C 6,6 C 3,2 km/h (1 Bft) 95,65 %
29.03.2023 16:19 6,6 C 76 % 1023,8 hPa 0,0 l/m 0,0 km/h (0 Bft) N 0 1 min 0,000 mm 0,8 UV-I 186 W/m 2,7 C 6,6 C 0,0 km/h (0 Bft) 100,00 %
29.03.2023 16:18 6,6 C 77 % 1023,8 hPa 0,0 l/m 1,6 km/h (1 Bft) SW 225 1 min 0,000 mm 0,8 UV-I 192 W/m 2,9 C 6,6 C 3,2 km/h (1 Bft) 95,65 %
29.03.2023 16:17 6,6 C 77 % 1023,8 hPa 0,0 l/m 1,6 km/h (1 Bft) SW 225 1 min 0,000 mm 0,8 UV-I 186 W/m 2,9 C 6,6 C 3,2 km/h (1 Bft) 95,65 %
29.03.2023 16:16 6,6 C 76 % 1023,8 hPa 0,0 l/m 1,6 km/h (1 Bft) S-SW 202 1 min 0,000 mm 0,8 UV-I 178 W/m 2,7 C 6,6 C 3,2 km/h (1 Bft) 91,30 %
29.03.2023 16:15 6,6 C 76 % 1023,7 hPa 0,0 l/m 1,6 km/h (1 Bft) SW 225 1 min 0,000 mm 1,0 UV-I 185 W/m 2,7 C 6,6 C 4,8 km/h (1 Bft) 100,00 %
29.03.2023 16:14 6,6 C 78 % 1023,6 hPa 0,0 l/m 1,6 km/h (1 Bft) S-SW 202 1 min 0,000 mm 1,0 UV-I 202 W/m 3,0 C 6,6 C 4,8 km/h (1 Bft) 95,65 %
29.03.2023 16:13 6,6 C 77 % 1023,6 hPa 0,0 l/m 1,6 km/h (1 Bft) S-SW 202 1 min 0,000 mm 1,0 UV-I 216 W/m 2,9 C 6,6 C 3,2 km/h (1 Bft) 95,65 %
29.03.2023 16:12 6,6 C 78 % 1023,8 hPa 0,0 l/m 1,6 km/h (1 Bft) S-SW 202 1 min 0,000 mm 1,0 UV-I 220 W/m 3,0 C 6,6 C 3,2 km/h (1 Bft) 95,65 %
29.03.2023 16:11 6,5 C 77 % 1023,7 hPa 0,0 l/m 0,0 km/h (0 Bft) SW 225 1 min 0,000 mm 0,9 UV-I 214 W/m 2,8 C 6,5 C 1,6 km/h (1 Bft) 95,65 %
29.03.2023 16:10 6,5 C 77 % 1023,7 hPa 0,0 l/m 0,0 km/h (0 Bft) SW 225 1 min 0,000 mm 0,9 UV-I 188 W/m 2,8 C 6,5 C 1,6 km/h (1 Bft) 95,65 %
29.03.2023 16:09 6,4 C 79 % 1023,6 hPa 0,0 l/m 1,6 km/h (1 Bft) SW 225 1 min 0,000 mm 0,7 UV-I 174 W/m 3,0 C 6,4 C 3,2 km/h (1 Bft) 95,65 %
29.03.2023 16:08 6,4 C 78 % 1023,6 hPa 0,0 l/m 1,6 km/h (1 Bft) SW 225 1 min 0,000 mm 0,7 UV-I 162 W/m 2,8 C 6,4 C 3,2 km/h (1 Bft) 91,30 %
29.03.2023 16:07 6,4 C 77 % 1023,8 hPa 0,0 l/m 1,6 km/h (1 Bft) S-SO 157 0 min 0,000 mm 0,7 UV-I 149 W/m 2,7 C 6,4 C 3,2 km/h (1 Bft) 91,30 %
29.03.2023 16:06 6,4 C 78 % 1023,8 hPa 0,0 l/m 0,0 km/h (0 Bft) SW 225 0 min 0,000 mm 0,7 UV-I 139 W/m 2,8 C 6,4 C 1,6 km/h (1 Bft) 100,00 %
29.03.2023 16:05 6,4 C 77 % 1023,8 hPa 0,0 l/m 0,0 km/h (0 Bft) SW 225 0 min 0,000 mm 1,1 UV-I 142 W/m 2,7 C 6,4 C 1,6 km/h (1 Bft) 95,65 %
29.03.2023 16:04 6,3 C 77 % 1023,8 hPa 0,0 l/m 1,6 km/h (1 Bft) SW 225 0 min 0,000 mm 1,1 UV-I 148 W/m 2,6 C 6,3 C 3,2 km/h (1 Bft) 100,00 %
29.03.2023 16:03 6,3 C 77 % 1023,8 hPa 0,0 l/m 0,0 km/h (0 Bft) W-SW 247 1 min 0,000 mm 1,1 UV-I 162 W/m 2,6 C 6,3 C 1,6 km/h (1 Bft) 95,65 %
29.03.2023 16:02 6,3 C 76 % 1023,8 hPa 0,0 l/m 0,0 km/h (0 Bft) W-SW 247 1 min 0,000 mm 1,1 UV-I 179 W/m 2,4 C 6,3 C 1,6 km/h (1 Bft) 95,65 %
29.03.2023 16:01 6,3 C 77 % 1023,8 hPa 0,0 l/m 0,0 km/h (0 Bft) W-SW 247 1 min 0,000 mm 1,1 UV-I 193 W/m 2,6 C 6,3 C 1,6 km/h (1 Bft) 95,65 %
29.03.2023 16:00 6,3 C 78 % 1023,8 hPa 0,0 l/m 1,6 km/h (1 Bft) W-SW 247 1 min 0,076 mm 1,1 UV-I 204 W/m 2,8 C 6,3 C 3,2 km/h (1 Bft) 100,00 %
29.03.2023 15:59 6,3 C 77 % 1023,8 hPa 0,0 l/m 3,2 km/h (1 Bft) W-SW 247 1 min 0,000 mm 1,1 UV-I 206 W/m 2,6 C 6,3 C 4,8 km/h (1 Bft) 91,30 %
29.03.2023 15:58 6,3 C 78 % 1023,7 hPa 0,0 l/m 4,8 km/h (1 Bft) SW 225 1 min 0,000 mm 1,1 UV-I 188 W/m 2,8 C 5,6 C 6,4 km/h (2 Bft) 100,00 %
29.03.2023 15:57 6,3 C 77 % 1023,8 hPa 0,0 l/m 3,2 km/h (1 Bft) W-SW 247 1 min 0,000 mm 1,1 UV-I 178 W/m 2,6 C 6,3 C 6,4 km/h (2 Bft) 95,65 %
29.03.2023 15:56 6,3 C 76 % 1023,8 hPa 0,0 l/m 1,6 km/h (1 Bft) S-SW 202 1 min 0,000 mm 1,1 UV-I 171 W/m 2,4 C 6,3 C 1,6 km/h (1 Bft) 100,00 %
29.03.2023 15:55 6,3 C 78 % 1023,8 hPa 0,2 l/m 1,6 km/h (1 Bft) S-SW 202 1 min 0,000 mm 1,1 UV-I 163 W/m 2,8 C 6,3 C 3,2 km/h (1 Bft) 91,30 %
29.03.2023 15:54 6,3 C 78 % 1023,8 hPa 0,0 l/m 3,2 km/h (1 Bft) S-SO 157 1 min 0,000 mm 1,1 UV-I 165 W/m 2,8 C 6,3 C 6,4 km/h (2 Bft) 100,00 %
29.03.2023 15:53 6,3 C 78 % 1023,8 hPa 0,0 l/m 3,2 km/h (1 Bft) S-SO 157 1 min 0,000 mm 1,1 UV-I 183 W/m 2,8 C 6,3 C 6,4 km/h (2 Bft) 100,00 %
29.03.2023 15:52 6,2 C 77 % 1023,9 hPa 0,0 l/m 0,0 km/h (0 Bft) SO 135 1 min 0,000 mm 1,1 UV-I 192 W/m 2,5 C 6,2 C 1,6 km/h (1 Bft) 100,00 %
29.03.2023 15:51 6,2 C 77 % 1023,8 hPa 0,0 l/m 1,6 km/h (1 Bft) SO 135 1 min 0,000 mm 1,1 UV-I 195 W/m 2,5 C 6,2 C 3,2 km/h (1 Bft) 95,65 %
29.03.2023 15:50 6,2 C 77 % 1023,8 hPa 0,0 l/m 1,6 km/h (1 Bft) S-SO 157 1 min 0,000 mm 1,1 UV-I 199 W/m 2,5 C 6,2 C 3,2 km/h (1 Bft) 91,30 %
29.03.2023 15:49 6,2 C 78 % 1023,9 hPa 0,0 l/m 1,6 km/h (1 Bft) S 180 1 min 0,000 mm 1,1 UV-I 199 W/m 2,7 C 6,2 C 1,6 km/h (1 Bft) 100,00 %
29.03.2023 15:48 6,2 C 78 % 1023,9 hPa 0,0 l/m 0,0 km/h (0 Bft) S 180 1 min 0,000 mm 1,1 UV-I 200 W/m 2,7 C 6,2 C 1,6 km/h (1 Bft) 91,30 %
29.03.2023 15:47 6,2 C 78 % 1023,9 hPa 0,0 l/m 0,0 km/h (0 Bft) S 180 1 min 0,000 mm 1,1 UV-I 209 W/m 2,7 C 6,2 C 1,6 km/h (1 Bft) 100,00 %
29.03.2023 15:46 6,1 C 79 % 1023,9 hPa 0,0 l/m 3,2 km/h (1 Bft) S-SO 157 1 min 0,000 mm 1,1 UV-I 214 W/m 2,7 C 6,1 C 3,2 km/h (1 Bft) 100,00 %
29.03.2023 15:45 6,0 C 78 % 1023,9 hPa 0,0 l/m 1,6 km/h (1 Bft) S 180 1 min 0,000 mm 1,1 UV-I 216 W/m 2,5 C 6,0 C 4,8 km/h (1 Bft) 95,65 %
29.03.2023 15:44 6,0 C 79 % 1023,9 hPa 0,0 l/m 0,0 km/h (0 Bft) W 270 1 min 0,000 mm 1,1 UV-I 218 W/m 2,6 C 6,0 C 1,6 km/h (1 Bft) 100,00 %
29.03.2023 15:43 5,9 C 78 % 1023,9 hPa 0,0 l/m 1,6 km/h (1 Bft) W 270 1 min 0,000 mm 0,8 UV-I 213 W/m 2,4 C 5,9 C 3,2 km/h (1 Bft) 100,00 %
29.03.2023 15:42 5,8 C 78 % 1024,0 hPa 0,0 l/m 3,2 km/h (1 Bft) W 270 1 min 0,000 mm 0,8 UV-I 202 W/m 2,3 C 5,8 C 3,2 km/h (1 Bft) 100,00 %
29.03.2023 15:41 5,8 C 78 % 1023,9 hPa 0,0 l/m 1,6 km/h (1 Bft) S 180 1 min 0,000 mm 0,8 UV-I 172 W/m 2,3 C 5,8 C 1,6 km/h (1 Bft) 95,65 %
29.03.2023 15:40 5,7 C 77 % 1024,0 hPa 0,0 l/m 1,6 km/h (1 Bft) S 180 1 min 0,000 mm 0,8 UV-I 163 W/m 2,0 C 5,7 C 1,6 km/h (1 Bft) 100,00 %
29.03.2023 15:39 5,7 C 77 % 1024,0 hPa 0,0 l/m 1,6 km/h (1 Bft) S 180 1 min 0,000 mm 0,8 UV-I 155 W/m 2,0 C 5,7 C 3,2 km/h (1 Bft) 100,00 %
29.03.2023 15:38 5,7 C 77 % 1024,0 hPa 0,0 l/m 1,6 km/h (1 Bft) S 180 1 min 0,000 mm 0,8 UV-I 153 W/m 2,0 C 5,7 C 4,8 km/h (1 Bft) 100,00 %
29.03.2023 15:37 5,7 C 77 % 1024,1 hPa 0,0 l/m 3,2 km/h (1 Bft) SW 225 1 min 0,000 mm 0,8 UV-I 155 W/m 2,0 C 5,7 C 4,8 km/h (1 Bft) 100,00 %
29.03.2023 15:36 5,7 C 77 % 1024,0 hPa 0,0 l/m 4,8 km/h (1 Bft) SW 225 0 min 0,000 mm 0,8 UV-I 146 W/m 2,0 C 5,0 C 4,8 km/h (1 Bft) 100,00 %
29.03.2023 15:35 5,7 C 78 % 1024,0 hPa 0,0 l/m 1,6 km/h (1 Bft) S-SW 202 0 min 0,000 mm 0,8 UV-I 125 W/m 2,2 C 5,7 C 3,2 km/h (1 Bft) 100,00 %
29.03.2023 15:34 5,7 C 76 % 1024,1 hPa 0,0 l/m 1,6 km/h (1 Bft) S-SW 202 0 min 0,000 mm 0,8 UV-I 130 W/m 1,8 C 5,7 C 3,2 km/h (1 Bft) 91,30 %
29.03.2023 15:33 5,7 C 77 % 1024,1 hPa 0,0 l/m 1,6 km/h (1 Bft) SW 225 0 min 0,000 mm 0,8 UV-I 130 W/m 2,0 C 5,7 C 3,2 km/h (1 Bft) 100,00 %
29.03.2023 15:32 5,7 C 77 % 1024,1 hPa 0,0 l/m 1,6 km/h (1 Bft) SW 225 0 min 0,000 mm 0,8 UV-I 132 W/m 2,0 C 5,7 C 3,2 km/h (1 Bft) 95,65 %
29.03.2023 15:31 5,6 C 77 % 1024,1 hPa 0,0 l/m 1,6 km/h (1 Bft) SW 225 0 min 0,000 mm 0,8 UV-I 148 W/m 1,9 C 5,6 C 3,2 km/h (1 Bft) 100,00 %
29.03.2023 15:30 5,6 C 77 % 1024,2 hPa 0,0 l/m 3,2 km/h (1 Bft) SW 225 1 min 0,000 mm 0,8 UV-I 153 W/m 1,9 C 5,6 C 3,2 km/h (1 Bft) 100,00 %
29.03.2023 15:29 5,6 C 77 % 1024,3 hPa 0,0 l/m 3,2 km/h (1 Bft) SW 225 0 min 0,000 mm 0,8 UV-I 149 W/m 1,9 C 5,6 C 4,8 km/h (1 Bft) 95,65 %
29.03.2023 15:28 5,7 C 78 % 1024,3 hPa 0,0 l/m 3,2 km/h (1 Bft) SW 225 0 min 0,000 mm 0,8 UV-I 149 W/m 2,2 C 5,7 C 4,8 km/h (1 Bft) 100,00 %
29.03.2023 15:27 5,6 C 78 % 1024,3 hPa 0,0 l/m 1,6 km/h (1 Bft) SW 225 0 min 0,000 mm 1,0 UV-I 149 W/m 2,1 C 5,6 C 3,2 km/h (1 Bft) 95,65 %
29.03.2023 15:26 5,6 C 79 % 1024,3 hPa 0,0 l/m 0,0 km/h (0 Bft) S 180 1 min 0,000 mm 1,0 UV-I 153 W/m 2,3 C 5,6 C 1,6 km/h (1 Bft) 95,65 %
29.03.2023 15:25 5,6 C 77 % 1024,3 hPa 0,0 l/m 0,0 km/h (0 Bft) N 0 1 min 0,000 mm 1,0 UV-I 158 W/m 1,9 C 5,6 C 0,0 km/h (0 Bft) 95,65 %
29.03.2023 15:24 5,6 C 77 % 1024,4 hPa 0,0 l/m 0,0 km/h (0 Bft) N 0 1 min 0,000 mm 1,0 UV-I 174 W/m 1,9 C 5,6 C 0,0 km/h (0 Bft) 100,00 %
29.03.2023 15:23 5,6 C 77 % 1024,5 hPa 0,0 l/m 0,0 km/h (0 Bft) N 0 1 min 0,000 mm 1,0 UV-I 178 W/m 1,9 C 5,6 C 0,0 km/h (0 Bft) 95,65 %
29.03.2023 15:22 5,6 C 77 % 1024,4 hPa 0,0 l/m 0,0 km/h (0 Bft) N 0 1 min 0,000 mm 1,0 UV-I 183 W/m 1,9 C 5,6 C 0,0 km/h (0 Bft) 100,00 %
29.03.2023 15:21 5,6 C 77 % 1024,5 hPa 0,0 l/m 1,6 km/h (1 Bft) S 180 1 min 0,000 mm 1,0 UV-I 195 W/m 1,9 C 5,6 C 3,2 km/h (1 Bft) 95,65 %
29.03.2023 15:20 5,4 C 78 % 1024,4 hPa 0,0 l/m 3,2 km/h (1 Bft) S 180 1 min 0,000 mm 1,0 UV-I 211 W/m 1,9 C 5,4 C 3,2 km/h (1 Bft) 95,65 %
29.03.2023 15:19 5,4 C 77 % 1024,4 hPa 0,0 l/m 1,6 km/h (1 Bft) S-SW 202 1 min 0,000 mm 1,0 UV-I 211 W/m 1,7 C 5,4 C 3,2 km/h (1 Bft) 95,65 %
29.03.2023 15:18 5,4 C 77 % 1024,5 hPa 0,0 l/m 1,6 km/h (1 Bft) S-SW 202 1 min 0,000 mm 1,0 UV-I 202 W/m 1,7 C 5,4 C 3,2 km/h (1 Bft) 100,00 %
29.03.2023 15:17 5,4 C 76 % 1024,6 hPa 0,0 l/m 1,6 km/h (1 Bft) S-SW 202 1 min 0,000 mm 1,0 UV-I 190 W/m 1,5 C 5,4 C 3,2 km/h (1 Bft) 95,65 %
29.03.2023 15:16 5,6 C 78 % 1024,4 hPa 0,0 l/m 1,6 km/h (1 Bft) S-SW 202 1 min 0,000 mm 1,0 UV-I 176 W/m 2,1 C 5,6 C 3,2 km/h (1 Bft) 100,00 %
29.03.2023 15:15 5,6 C 78 % 1024,4 hPa 0,0 l/m 1,6 km/h (1 Bft) S 180 1 min 0,000 mm 1,0 UV-I 169 W/m 2,1 C 5,6 C 3,2 km/h (1 Bft) 91,30 %
29.03.2023 15:14 5,6 C 77 % 1024,4 hPa 0,0 l/m 1,6 km/h (1 Bft) S-SW 202 1 min 0,000 mm 1,0 UV-I 171 W/m 1,9 C 5,6 C 3,2 km/h (1 Bft) 100,00 %
29.03.2023 15:13 5,6 C 78 % 1024,5 hPa 0,0 l/m 3,2 km/h (1 Bft) S-SW 202 1 min 0,000 mm 0,9 UV-I 171 W/m 2,1 C 5,6 C 6,4 km/h (2 Bft) 86,96 %
29.03.2023 15:12 5,6 C 78 % 1024,5 hPa 0,0 l/m 3,2 km/h (1 Bft) W-SW 247 1 min 0,000 mm 0,9 UV-I 167 W/m 2,1 C 5,6 C 4,8 km/h (1 Bft) 100,00 %
29.03.2023 15:11 5,6 C 78 % 1024,5 hPa 0,0 l/m 3,2 km/h (1 Bft) SW 225 1 min 0,000 mm 1,0 UV-I 171 W/m 2,1 C 5,6 C 4,8 km/h (1 Bft) 100,00 %
29.03.2023 15:10 5,6 C 78 % 1024,4 hPa 0,0 l/m 3,2 km/h (1 Bft) SW 225 1 min 0,000 mm 1,0 UV-I 167 W/m 2,1 C 5,6 C 3,2 km/h (1 Bft) 100,00 %
29.03.2023 15:09 5,6 C 77 % 1024,4 hPa 0,0 l/m 0,0 km/h (0 Bft) SW 225 1 min 0,000 mm 1,0 UV-I 163 W/m 1,9 C 5,6 C 3,2 km/h (1 Bft) 95,65 %
29.03.2023 15:08 5,6 C 77 % 1024,4 hPa 0,0 l/m 0,0 km/h (0 Bft) SW 225 1 min 0,000 mm 1,0 UV-I 163 W/m 1,9 C 5,6 C 1,6 km/h (1 Bft) 95,65 %
29.03.2023 15:07 5,6 C 78 % 1024,4 hPa 0,0 l/m 0,0 km/h (0 Bft) SW 225 1 min 0,000 mm 1,0 UV-I 169 W/m 2,1 C 5,6 C 1,6 km/h (1 Bft) 95,65 %
29.03.2023 15:06 5,6 C 79 % 1024,4 hPa 0,0 l/m 0,0 km/h (0 Bft) N 0 1 min 0,000 mm 1,0 UV-I 167 W/m 2,3 C 5,6 C 0,0 km/h (0 Bft) 91,30 %
29.03.2023 15:05 5,6 C 79 % 1024,4 hPa 0,0 l/m 0,0 km/h (0 Bft) S-SO 157 1 min 0,000 mm 1,0 UV-I 160 W/m 2,3 C 5,6 C 1,6 km/h (1 Bft) 100,00 %
29.03.2023 15:04 5,5 C 78 % 1024,3 hPa 0,0 l/m 0,0 km/h (0 Bft) N 0 1 min 0,000 mm 1,0 UV-I 160 W/m 2,0 C 5,5 C 0,0 km/h (0 Bft) 95,65 %
29.03.2023 15:03 5,6 C 78 % 1024,3 hPa 0,0 l/m 0,0 km/h (0 Bft) S-SO 157 1 min 0,000 mm 1,0 UV-I 163 W/m 2,1 C 5,6 C 1,6 km/h (1 Bft) 95,65 %
29.03.2023 15:02 5,5 C 77 % 1024,3 hPa 0,0 l/m 1,6 km/h (1 Bft) S-SO 157 1 min 0,000 mm 1,0 UV-I 169 W/m 1,8 C 5,5 C 4,8 km/h (1 Bft) 91,30 %
29.03.2023 15:01 5,5 C 78 % 1024,4 hPa 0,0 l/m 0,0 km/h (0 Bft) SW 225 1 min 0,000 mm 1,0 UV-I 172 W/m 2,0 C 5,5 C 1,6 km/h (1 Bft) 100,00 %
29.03.2023 15:00 5,6 C 78 % 1024,4 hPa 0,0 l/m 1,6 km/h (1 Bft) SW 225 1 min 0,102 mm 1,0 UV-I 172 W/m 2,1 C 5,6 C 4,8 km/h (1 Bft) 95,65 %
29.03.2023 14:59 5,6 C 79 % 1024,4 hPa 0,0 l/m 3,2 km/h (1 Bft) SW 225 1 min 0,000 mm 1,0 UV-I 155 W/m 2,3 C 5,6 C 4,8 km/h (1 Bft) 95,65 %
29.03.2023 14:58 5,5 C 79 % 1024,3 hPa 0,0 l/m 3,2 km/h (1 Bft) SW 225 0 min 0,000 mm 1,0 UV-I 151 W/m 2,2 C 5,5 C 4,8 km/h (1 Bft) 95,65 %
29.03.2023 14:57 5,4 C 79 % 1024,4 hPa 0,0 l/m 1,6 km/h (1 Bft) SW 225 0 min 0,000 mm 1,0 UV-I 149 W/m 2,1 C 5,4 C 3,2 km/h (1 Bft) 95,65 %
29.03.2023 14:56 5,3 C 78 % 1024,4 hPa 0,0 l/m 0,0 km/h (0 Bft) SW 225 0 min 0,000 mm 1,0 UV-I 149 W/m 1,8 C 5,3 C 1,6 km/h (1 Bft) 95,65 %
29.03.2023 14:55 5,2 C 78 % 1024,4 hPa 0,0 l/m 0,0 km/h (0 Bft) SW 225 1 min 0,000 mm 1,2 UV-I 153 W/m 1,7 C 5,2 C 1,6 km/h (1 Bft) 91,30 %
29.03.2023 14:54 5,2 C 79 % 1024,4 hPa 0,0 l/m 0,0 km/h (0 Bft) N 0 1 min 0,000 mm 1,2 UV-I 178 W/m 1,9 C 5,2 C 0,0 km/h (0 Bft) 100,00 %
29.03.2023 14:53 5,2 C 78 % 1024,4 hPa 0,0 l/m 0,0 km/h (0 Bft) N 0 1 min 0,000 mm 1,2 UV-I 188 W/m 1,7 C 5,2 C 0,0 km/h (0 Bft) 91,30 %
29.03.2023 14:52 5,2 C 79 % 1024,4 hPa 0,0 l/m 0,0 km/h (0 Bft) SW 225 1 min 0,000 mm 1,2 UV-I 193 W/m 1,9 C 5,2 C 3,2 km/h (1 Bft) 95,65 %
29.03.2023 14:51 5,1 C 79 % 1024,4 hPa 0,0 l/m 1,6 km/h (1 Bft) SW 225 1 min 0,000 mm 1,2 UV-I 195 W/m 1,8 C 5,1 C 1,6 km/h (1 Bft) 95,65 %
29.03.2023 14:50 5,2 C 78 % 1024,4 hPa 0,0 l/m 1,6 km/h (1 Bft) SW 225 1 min 0,000 mm 1,2 UV-I 200 W/m 1,7 C 5,2 C 3,2 km/h (1 Bft) 100,00 %
29.03.2023 14:49 5,2 C 77 % 1024,5 hPa 0,0 l/m 1,6 km/h (1 Bft) S-SW 202 1 min 0,000 mm 1,2 UV-I 202 W/m 1,5 C 5,2 C 3,2 km/h (1 Bft) 100,00 %
29.03.2023 14:48 5,2 C 77 % 1024,4 hPa 0,0 l/m 1,6 km/h (1 Bft) SW 225 1 min 0,000 mm 1,2 UV-I 197 W/m 1,5 C 5,2 C 3,2 km/h (1 Bft) 100,00 %
29.03.2023 14:47 5,3 C 78 % 1024,5 hPa 0,0 l/m 3,2 km/h (1 Bft) SW 225 1 min 0,000 mm 1,3 UV-I 207 W/m 1,8 C 5,3 C 4,8 km/h (1 Bft) 100,00 %
29.03.2023 14:46 5,3 C 78 % 1024,5 hPa 0,0 l/m 1,6 km/h (1 Bft) W-SW 247 1 min 0,000 mm 1,4 UV-I 227 W/m 1,8 C 5,3 C 3,2 km/h (1 Bft) 100,00 %
29.03.2023 14:45 5,3 C 79 % 1024,5 hPa 0,0 l/m 3,2 km/h (1 Bft) SW 225 1 min 0,000 mm 1,5 UV-I 251 W/m 2,0 C 5,3 C 4,8 km/h (1 Bft) 91,30 %
29.03.2023 14:44 5,3 C 80 % 1024,5 hPa 0,0 l/m 3,2 km/h (1 Bft) SW 225 1 min 0,000 mm 1,6 UV-I 281 W/m 2,1 C 5,3 C 3,2 km/h (1 Bft) 100,00 %
29.03.2023 14:43 5,2 C 79 % 1024,5 hPa 0,0 l/m 3,2 km/h (1 Bft) S-SW 202 1 min 0,000 mm 1,7 UV-I 290 W/m 1,9 C 5,2 C 4,8 km/h (1 Bft) 95,65 %
29.03.2023 14:42 5,1 C 79 % 1024,4 hPa 0,0 l/m 1,6 km/h (1 Bft) S-SO 157 1 min 0,000 mm 1,6 UV-I 255 W/m 1,8 C 5,1 C 3,2 km/h (1 Bft) 100,00 %
29.03.2023 14:41 5,1 C 79 % 1024,6 hPa 0,0 l/m 1,6 km/h (1 Bft) SO 135 1 min 0,000 mm 1,5 UV-I 243 W/m 1,8 C 5,1 C 3,2 km/h (1 Bft) 100,00 %
29.03.2023 14:40 5,0 C 79 % 1024,6 hPa 0,0 l/m 1,6 km/h (1 Bft) SO 135 1 min 0,000 mm 1,4 UV-I 232 W/m 1,7 C 5,0 C 3,2 km/h (1 Bft) 100,00 %
29.03.2023 14:39 4,9 C 79 % 1024,7 hPa 0,0 l/m 3,2 km/h (1 Bft) SO 135 1 min 0,000 mm 1,4 UV-I 229 W/m 1,6 C 4,9 C 4,8 km/h (1 Bft) 91,30 %
29.03.2023 14:38 4,9 C 80 % 1024,8 hPa 0,0 l/m 3,2 km/h (1 Bft) S-SO 157 1 min 0,000 mm 1,5 UV-I 239 W/m 1,7 C 4,9 C 4,8 km/h (1 Bft) 95,65 %
29.03.2023 14:37 4,8 C 79 % 1024,7 hPa 0,0 l/m 1,6 km/h (1 Bft) S-SW 202 1 min 0,000 mm 1,5 UV-I 248 W/m 1,5 C 4,8 C 1,6 km/h (1 Bft) 95,65 %
29.03.2023 14:36 4,7 C 78 % 1024,8 hPa 0,0 l/m 1,6 km/h (1 Bft) SW 225 1 min 0,000 mm 1,5 UV-I 241 W/m 1,2 C 4,7 C 3,2 km/h (1 Bft) 100,00 %
29.03.2023 14:35 4,7 C 79 % 1024,7 hPa 0,0 l/m 3,2 km/h (1 Bft) SW 225 1 min 0,000 mm 1,5 UV-I 255 W/m 1,4 C 4,7 C 3,2 km/h (1 Bft) 100,00 %
29.03.2023 14:34 4,8 C 78 % 1024,7 hPa 0,0 l/m 3,2 km/h (1 Bft) SW 225 1 min 0,000 mm 1,7 UV-I 274 W/m 1,3 C 4,8 C 4,8 km/h (1 Bft) 100,00 %
29.03.2023 14:33 4,8 C 79 % 1024,7 hPa 0,0 l/m 3,2 km/h (1 Bft) S-SW 202 1 min 0,000 mm 1,7 UV-I 285 W/m 1,5 C 4,8 C 4,8 km/h (1 Bft) 100,00 %
29.03.2023 14:32 4,8 C 79 % 1024,7 hPa 0,0 l/m 4,8 km/h (1 Bft) SW 225 1 min 0,000 mm 1,7 UV-I 287 W/m 1,5 C 3,9 C 6,4 km/h (2 Bft) 100,00 %
29.03.2023 14:31 4,7 C 80 % 1024,7 hPa 0,0 l/m 3,2 km/h (1 Bft) W-SW 247 1 min 0,000 mm 1,5 UV-I 272 W/m 1,6 C 4,7 C 4,8 km/h (1 Bft) 95,65 %
29.03.2023 14:30 4,6 C 79 % 1024,7 hPa 0,0 l/m 1,6 km/h (1 Bft) S-SW 202 1 min 0,000 mm 1,5 UV-I 265 W/m 1,3 C 4,6 C 3,2 km/h (1 Bft) 100,00 %
29.03.2023 14:29 4,6 C 80 % 1024,8 hPa 0,0 l/m 0,0 km/h (0 Bft) S-SW 202 1 min 0,000 mm 1,5 UV-I 269 W/m 1,5 C 4,6 C 1,6 km/h (1 Bft) 100,00 %
29.03.2023 14:28 4,5 C 80 % 1024,8 hPa 0,0 l/m 1,6 km/h (1 Bft) S-SW 202 1 min 0,000 mm 1,6 UV-I 274 W/m 1,4 C 4,5 C 1,6 km/h (1 Bft) 100,00 %
29.03.2023 14:27 4,4 C 79 % 1024,9 hPa 0,0 l/m 1,6 km/h (1 Bft) S-SW 202 1 min 0,000 mm 1,6 UV-I 267 W/m 1,1 C 4,4 C 1,6 km/h (1 Bft) 100,00 %
29.03.2023 14:26 4,3 C 79 % 1024,9 hPa 0,0 l/m 1,6 km/h (1 Bft) S-SW 202 1 min 0,000 mm 1,5 UV-I 246 W/m 1,0 C 4,3 C 3,2 km/h (1 Bft) 100,00 %
29.03.2023 14:25 4,3 C 79 % 1025,0 hPa 0,0 l/m 1,6 km/h (1 Bft) S-SW 202 1 min 0,000 mm 1,5 UV-I 234 W/m 1,0 C 4,3 C 3,2 km/h (1 Bft) 100,00 %
29.03.2023 14:24 4,3 C 81 % 1024,9 hPa 0,0 l/m 1,6 km/h (1 Bft) S-SW 202 1 min 0,000 mm 1,5 UV-I 239 W/m 1,3 C 4,3 C 3,2 km/h (1 Bft) 95,65 %
29.03.2023 14:23 4,3 C 79 % 1025,0 hPa 0,0 l/m 1,6 km/h (1 Bft) S 180 1 min 0,000 mm 1,5 UV-I 257 W/m 1,0 C 4,3 C 4,8 km/h (1 Bft) 100,00 %
29.03.2023 14:22 4,3 C 79 % 1025,1 hPa 0,0 l/m 3,2 km/h (1 Bft) S 180 1 min 0,000 mm 1,6 UV-I 278 W/m 1,0 C 4,3 C 4,8 km/h (1 Bft) 95,65 %
29.03.2023 14:21 4,3 C 80 % 1025,0 hPa 0,0 l/m 1,6 km/h (1 Bft) S-SW 202 1 min 0,000 mm 1,7 UV-I 285 W/m 1,2 C 4,3 C 3,2 km/h (1 Bft) 100,00 %
29.03.2023 14:20 4,2 C 80 % 1025,0 hPa 0,0 l/m 1,6 km/h (1 Bft) SW 225 1 min 0,000 mm 1,7 UV-I 281 W/m 1,1 C 4,2 C 3,2 km/h (1 Bft) 100,00 %
29.03.2023 14:19 4,2 C 79 % 1024,9 hPa 0,0 l/m 0,0 km/h (0 Bft) NW 315 1 min 0,000 mm 1,7 UV-I 290 W/m 0,9 C 4,2 C 1,6 km/h (1 Bft) 100,00 %
29.03.2023 14:18 4,1 C 80 % 1025,0 hPa 0,0 l/m 0,0 km/h (0 Bft) NW 315 1 min 0,000 mm 1,7 UV-I 283 W/m 1,0 C 4,1 C 1,6 km/h (1 Bft) 100,00 %
29.03.2023 14:17 4,1 C 80 % 1024,9 hPa 0,0 l/m 1,6 km/h (1 Bft) NW 315 1 min 0,000 mm 1,4 UV-I 278 W/m 1,0 C 4,1 C 3,2 km/h (1 Bft) 95,65 %
29.03.2023 14:16 4,1 C 79 % 1025,0 hPa 0,0 l/m 4,8 km/h (1 Bft) NW 315 1 min 0,000 mm 1,4 UV-I 271 W/m 0,8 C 3,1 C 6,4 km/h (2 Bft) 100,00 %
29.03.2023 14:15 4,1 C 81 % 1024,9 hPa 0,0 l/m 4,8 km/h (1 Bft) W 270 1 min 0,000 mm 1,4 UV-I 258 W/m 1,1 C 3,1 C 6,4 km/h (2 Bft) 91,30 %
29.03.2023 14:14 4,0 C 80 % 1025,0 hPa 0,0 l/m 1,6 km/h (1 Bft) W-SW 247 1 min 0,000 mm 1,2 UV-I 237 W/m 0,9 C 4,0 C 3,2 km/h (1 Bft) 100,00 %
29.03.2023 14:13 3,9 C 79 % 1024,9 hPa 0,0 l/m 0,0 km/h (0 Bft) W-SW 247 1 min 0,000 mm 1,2 UV-I 213 W/m 0,6 C 3,9 C 1,6 km/h (1 Bft) 95,65 %
29.03.2023 14:12 3,9 C 79 % 1025,0 hPa 0,0 l/m 0,0 km/h (0 Bft) N 0 1 min 0,000 mm 1,2 UV-I 207 W/m 0,6 C 3,9 C 0,0 km/h (0 Bft) 100,00 %
29.03.2023 14:11 3,9 C 79 % 1025,0 hPa 0,0 l/m 0,0 km/h (0 Bft) N-NW 337 1 min 0,000 mm 1,2 UV-I 209 W/m 0,6 C 3,9 C 1,6 km/h (1 Bft) 100,00 %
29.03.2023 14:10 3,8 C 79 % 1025,0 hPa 0,0 l/m 1,6 km/h (1 Bft) N-NW 337 1 min 0,000 mm 1,2 UV-I 206 W/m 0,5 C 3,8 C 3,2 km/h (1 Bft) 91,30 %
29.03.2023 14:09 3,8 C 79 % 1025,0 hPa 0,0 l/m 1,6 km/h (1 Bft) SO 135 1 min 0,000 mm 1,2 UV-I 199 W/m 0,5 C 3,8 C 3,2 km/h (1 Bft) 95,65 %
29.03.2023 14:08 3,8 C 80 % 1025,0 hPa 0,0 l/m 1,6 km/h (1 Bft) S-SO 157 1 min 0,000 mm 1,2 UV-I 202 W/m 0,7 C 3,8 C 3,2 km/h (1 Bft) 100,00 %
29.03.2023 14:07 3,8 C 79 % 1025,0 hPa 0,0 l/m 1,6 km/h (1 Bft) S-SW 202 1 min 0,000 mm 1,2 UV-I 206 W/m 0,5 C 3,8 C 6,4 km/h (2 Bft) 95,65 %
29.03.2023 14:06 3,8 C 80 % 1025,1 hPa 0,0 l/m 1,6 km/h (1 Bft) S-SW 202 1 min 0,000 mm 1,2 UV-I 200 W/m 0,7 C 3,8 C 3,2 km/h (1 Bft) 95,65 %
29.03.2023 14:05 3,8 C 80 % 1025,1 hPa 0,0 l/m 3,2 km/h (1 Bft) W-SW 247 1 min 0,000 mm 1,2 UV-I 185 W/m 0,7 C 3,8 C 4,8 km/h (1 Bft) 100,00 %
29.03.2023 14:04 3,8 C 80 % 1025,2 hPa 0,0 l/m 3,2 km/h (1 Bft) SW 225 1 min 0,000 mm 1,2 UV-I 172 W/m 0,7 C 3,8 C 4,8 km/h (1 Bft) 100,00 %
29.03.2023 14:03 3,8 C 80 % 1025,2 hPa 0,0 l/m 3,2 km/h (1 Bft) SW 225 1 min 0,000 mm 1,2 UV-I 165 W/m 0,7 C 3,8 C 4,8 km/h (1 Bft) 91,30 %
29.03.2023 14:02 3,8 C 79 % 1025,2 hPa 0,0 l/m 0,0 km/h (0 Bft) NW 315 1 min 0,000 mm 1,2 UV-I 169 W/m 0,5 C 3,8 C 1,6 km/h (1 Bft) 100,00 %
29.03.2023 14:01 3,8 C 80 % 1025,2 hPa 0,0 l/m 1,6 km/h (1 Bft) NW 315 1 min 0,000 mm 1,2 UV-I 174 W/m 0,7 C 3,8 C 3,2 km/h (1 Bft) 95,65 %
29.03.2023 14:00 3,8 C 80 % 1025,2 hPa 0,0 l/m 1,6 km/h (1 Bft) NW 315 1 min 0,051 mm 1,2 UV-I 185 W/m 0,7 C 3,8 C 3,2 km/h (1 Bft) 100,00 %
29.03.2023 13:59 3,8 C 79 % 1025,3 hPa 0,0 l/m 1,6 km/h (1 Bft) S-SO 157 1 min 0,000 mm 1,2 UV-I 181 W/m 0,5 C 3,8 C 3,2 km/h (1 Bft) 91,30 %
29.03.2023 13:58 3,8 C 80 % 1025,3 hPa 0,0 l/m 0,0 km/h (0 Bft) S-SO 157 1 min 0,000 mm 1,2 UV-I 181 W/m 0,7 C 3,8 C 1,6 km/h (1 Bft) 95,65 %
29.03.2023 13:57 3,8 C 80 % 1025,4 hPa 0,0 l/m 1,6 km/h (1 Bft) S-SO 157 1 min 0,000 mm 1,3 UV-I 193 W/m 0,7 C 3,8 C 3,2 km/h (1 Bft) 100,00 %
29.03.2023 13:56 3,8 C 81 % 1025,3 hPa 0,0 l/m 4,8 km/h (1 Bft) S-SO 157 1 min 0,000 mm 1,4 UV-I 239 W/m 0,8 C 2,8 C 8,0 km/h (2 Bft) 95,65 %
29.03.2023 13:55 3,7 C 81 % 1025,3 hPa 0,0 l/m 4,8 km/h (1 Bft) S 180 1 min 0,000 mm 0,7 UV-I 246 W/m 0,7 C 2,7 C 8,0 km/h (2 Bft) 95,65 %
29.03.2023 13:54 3,7 C 82 % 1025,3 hPa 0,0 l/m 3,2 km/h (1 Bft) SW 225 1 min 0,000 mm 0,7 UV-I 243 W/m 0,9 C 3,7 C 4,8 km/h (1 Bft) 95,65 %
29.03.2023 13:53 3,7 C 82 % 1025,3 hPa 0,0 l/m 4,8 km/h (1 Bft) SW 225 1 min 0,000 mm 0,7 UV-I 239 W/m 0,9 C 2,7 C 6,4 km/h (2 Bft) 100,00 %
29.03.2023 13:52 3,7 C 82 % 1025,2 hPa 0,0 l/m 1,6 km/h (1 Bft) S-SW 202 1 min 0,000 mm 0,7 UV-I 236 W/m 0,9 C 3,7 C 4,8 km/h (1 Bft) 91,30 %
29.03.2023 13:51 3,7 C 82 % 1025,2 hPa 0,0 l/m 1,6 km/h (1 Bft) S 180 1 min 0,000 mm 0,7 UV-I 225 W/m 0,9 C 3,7 C 1,6 km/h (1 Bft) 100,00 %
29.03.2023 13:50 3,6 C 81 % 1025,2 hPa 0,0 l/m 0,0 km/h (0 Bft) SO 135 1 min 0,000 mm 0,7 UV-I 206 W/m 0,7 C 3,6 C 1,6 km/h (1 Bft) 95,65 %
29.03.2023 13:49 3,5 C 81 % 1025,3 hPa 0,0 l/m 0,0 km/h (0 Bft) N 0 1 min 0,000 mm 0,7 UV-I 181 W/m 0,6 C 3,5 C 0,0 km/h (0 Bft) 95,65 %
29.03.2023 13:48 3,4 C 81 % 1025,4 hPa 0,0 l/m 0,0 km/h (0 Bft) N 0 1 min 0,000 mm 0,7 UV-I 167 W/m 0,5 C 3,4 C 0,0 km/h (0 Bft) 95,65 %
29.03.2023 13:47 3,4 C 81 % 1025,4 hPa 0,0 l/m 0,0 km/h (0 Bft) SO 135 0 min 0,000 mm 0,7 UV-I 149 W/m 0,5 C 3,4 C 1,6 km/h (1 Bft) 95,65 %
29.03.2023 13:46 3,4 C 82 % 1025,4 hPa 0,0 l/m 1,6 km/h (1 Bft) SO 135 0 min 0,000 mm 0,7 UV-I 137 W/m 0,6 C 3,4 C 3,2 km/h (1 Bft) 95,65 %
29.03.2023 13:45 3,4 C 81 % 1025,4 hPa 0,0 l/m 3,2 km/h (1 Bft) SO 135 0 min 0,000 mm 0,7 UV-I 135 W/m 0,5 C 3,4 C 4,8 km/h (1 Bft) 95,65 %
29.03.2023 13:44 3,4 C 81 % 1025,4 hPa 0,0 l/m 3,2 km/h (1 Bft) S 180 0 min 0,000 mm 0,7 UV-I 132 W/m 0,5 C 3,4 C 6,4 km/h (2 Bft) 95,65 %
29.03.2023 13:43 3,4 C 81 % 1025,4 hPa 0,0 l/m 1,6 km/h (1 Bft) W-SW 247 0 min 0,000 mm 0,7 UV-I 105 W/m 0,5 C 3,4 C 4,8 km/h (1 Bft) 95,65 %
29.03.2023 13:42 3,4 C 82 % 1025,4 hPa 0,0 l/m 3,2 km/h (1 Bft) W-SW 247 0 min 0,000 mm 0,7 UV-I 98 W/m 0,6 C 3,4 C 4,8 km/h (1 Bft) 100,00 %
29.03.2023 13:41 3,4 C 82 % 1025,4 hPa 0,0 l/m 3,2 km/h (1 Bft) W-SW 247 0 min 0,000 mm 0,7 UV-I 100 W/m 0,6 C 3,4 C 4,8 km/h (1 Bft) 95,65 %
29.03.2023 13:40 3,3 C 82 % 1025,4 hPa 0,0 l/m 1,6 km/h (1 Bft) SW 225 0 min 0,000 mm 0,7 UV-I 100 W/m 0,5 C 3,3 C 3,2 km/h (1 Bft) 100,00 %
29.03.2023 13:39 3,3 C 81 % 1025,3 hPa 0,0 l/m 0,0 km/h (0 Bft) SW 225 0 min 0,000 mm 0,7 UV-I 97 W/m 0,4 C 3,3 C 1,6 km/h (1 Bft) 95,65 %
29.03.2023 13:38 3,3 C 81 % 1025,3 hPa 0,0 l/m 0,0 km/h (0 Bft) SW 225 0 min 0,000 mm 0,7 UV-I 91 W/m 0,4 C 3,3 C 1,6 km/h (1 Bft) 100,00 %
29.03.2023 13:37 3,3 C 81 % 1025,3 hPa 0,0 l/m 0,0 km/h (0 Bft) SW 225 0 min 0,000 mm 0,7 UV-I 84 W/m 0,4 C 3,3 C 1,6 km/h (1 Bft) 95,65 %
29.03.2023 13:36 3,3 C 81 % 1025,4 hPa 0,0 l/m 0,0 km/h (0 Bft) SW 225 0 min 0,000 mm 0,7 UV-I 93 W/m 0,4 C 3,3 C 1,6 km/h (1 Bft) 100,00 %
29.03.2023 13:35 3,3 C 81 % 1025,3 hPa 0,0 l/m 1,6 km/h (1 Bft) SW 225 0 min 0,000 mm 0,7 UV-I 104 W/m 0,4 C 3,3 C 3,2 km/h (1 Bft) 100,00 %
29.03.2023 13:34 3,3 C 82 % 1025,4 hPa 0,0 l/m 1,6 km/h (1 Bft) SW 225 0 min 0,000 mm 0,7 UV-I 113 W/m 0,5 C 3,3 C 3,2 km/h (1 Bft) 95,65 %
29.03.2023 13:33 3,3 C 82 % 1025,4 hPa 0,0 l/m 3,2 km/h (1 Bft) W-SW 247 0 min 0,000 mm 0,7 UV-I 113 W/m 0,5 C 3,3 C 4,8 km/h (1 Bft) 100,00 %
29.03.2023 13:32 3,3 C 82 % 1025,3 hPa 0,0 l/m 1,6 km/h (1 Bft) SO 135 0 min 0,000 mm 0,7 UV-I 111 W/m 0,5 C 3,3 C 1,6 km/h (1 Bft) 100,00 %
29.03.2023 13:31 3,3 C 82 % 1025,3 hPa 0,0 l/m 0,0 km/h (0 Bft) N 0 0 min 0,000 mm 0,7 UV-I 109 W/m 0,5 C 3,3 C 0,0 km/h (0 Bft) 100,00 %
29.03.2023 13:30 3,2 C 81 % 1025,3 hPa 0,0 l/m 0,0 km/h (0 Bft) O 90 0 min 0,000 mm 0,7 UV-I 116 W/m 0,3 C 3,2 C 1,6 km/h (1 Bft) 100,00 %
29.03.2023 13:29 3,3 C 82 % 1025,4 hPa 0,0 l/m 1,6 km/h (1 Bft) O 90 0 min 0,000 mm 0,7 UV-I 125 W/m 0,5 C 3,3 C 3,2 km/h (1 Bft) 95,65 %
29.03.2023 13:28 3,3 C 82 % 1025,3 hPa 0,0 l/m 1,6 km/h (1 Bft) O 90 0 min 0,000 mm 0,7 UV-I 128 W/m 0,5 C 3,3 C 3,2 km/h (1 Bft) 95,65 %
29.03.2023 13:27 3,2 C 82 % 1025,4 hPa 0,0 l/m 1,6 km/h (1 Bft) SO 135 0 min 0,000 mm 0,7 UV-I 127 W/m 0,4 C 3,2 C 1,6 km/h (1 Bft) 95,65 %
29.03.2023 13:26 3,2 C 81 % 1025,4 hPa 0,0 l/m 3,2 km/h (1 Bft) S 180 0 min 0,000 mm 0,7 UV-I 120 W/m 0,3 C 3,2 C 4,8 km/h (1 Bft) 100,00 %
29.03.2023 13:25 3,2 C 81 % 1025,5 hPa 0,0 l/m 3,2 km/h (1 Bft) S-SW 202 0 min 0,000 mm 0,7 UV-I 113 W/m 0,3 C 3,2 C 4,8 km/h (1 Bft) 100,00 %
29.03.2023 13:24 3,2 C 81 % 1025,4 hPa 0,0 l/m 1,6 km/h (1 Bft) S 180 0 min 0,000 mm 0,7 UV-I 109 W/m 0,3 C 3,2 C 4,8 km/h (1 Bft) 100,00 %
29.03.2023 13:23 3,3 C 82 % 1025,4 hPa 0,0 l/m 3,2 km/h (1 Bft) W-SW 247 0 min 0,000 mm 0,7 UV-I 109 W/m 0,5 C 3,3 C 4,8 km/h (1 Bft) 95,65 %
29.03.2023 13:22 3,2 C 82 % 1025,3 hPa 0,0 l/m 1,6 km/h (1 Bft) W-SW 247 0 min 0,000 mm 0,7 UV-I 111 W/m 0,4 C 3,2 C 3,2 km/h (1 Bft) 100,00 %
29.03.2023 13:21 3,2 C 82 % 1025,3 hPa 0,0 l/m 0,0 km/h (0 Bft) SW 225 0 min 0,000 mm 0,7 UV-I 109 W/m 0,4 C 3,2 C 1,6 km/h (1 Bft) 95,65 %
29.03.2023 13:20 3,2 C 82 % 1025,3 hPa 0,0 l/m 0,0 km/h (0 Bft) N 0 0 min 0,000 mm 0,7 UV-I 107 W/m 0,4 C 3,2 C 0,0 km/h (0 Bft) 95,65 %
29.03.2023 13:19 3,2 C 82 % 1025,4 hPa 0,0 l/m 0,0 km/h (0 Bft) N 0 0 min 0,000 mm 0,7 UV-I 111 W/m 0,4 C 3,2 C 0,0 km/h (0 Bft) 100,00 %
29.03.2023 13:18 3,1 C 81 % 1025,4 hPa 0,0 l/m 0,0 km/h (0 Bft) N 0 0 min 0,000 mm 0,5 UV-I 113 W/m 0,2 C 3,1 C 0,0 km/h (0 Bft) 95,65 %
29.03.2023 13:17 3,1 C 82 % 1025,4 hPa 0,0 l/m 0,0 km/h (0 Bft) SW 225 0 min 0,000 mm 0,5 UV-I 114 W/m 0,3 C 3,1 C 1,6 km/h (1 Bft) 95,65 %
29.03.2023 13:16 3,1 C 82 % 1025,4 hPa 0,0 l/m 1,6 km/h (1 Bft) SW 225 0 min 0,000 mm 0,5 UV-I 118 W/m 0,3 C 3,1 C 1,6 km/h (1 Bft) 100,00 %
29.03.2023 13:15 3,2 C 82 % 1025,5 hPa 0,0 l/m 0,0 km/h (0 Bft) SW 225 0 min 0,000 mm 0,5 UV-I 116 W/m 0,4 C 3,2 C 1,6 km/h (1 Bft) 95,65 %
29.03.2023 13:14 3,1 C 82 % 1025,5 hPa 0,0 l/m 0,0 km/h (0 Bft) N 0 0 min 0,000 mm 0,5 UV-I 104 W/m 0,3 C 3,1 C 0,0 km/h (0 Bft) 100,00 %
29.03.2023 13:13 3,1 C 82 % 1025,5 hPa 0,0 l/m 0,0 km/h (0 Bft) N 0 0 min 0,000 mm 0,5 UV-I 100 W/m 0,3 C 3,1 C 0,0 km/h (0 Bft) 95,65 %
29.03.2023 13:12 3,1 C 82 % 1025,5 hPa 0,0 l/m 0,0 km/h (0 Bft) SW 225 0 min 0,000 mm 0,5 UV-I 100 W/m 0,3 C 3,1 C 1,6 km/h (1 Bft) 95,65 %
29.03.2023 13:11 3,2 C 83 % 1025,6 hPa 0,0 l/m 1,6 km/h (1 Bft) SW 225 0 min 0,000 mm 0,5 UV-I 98 W/m 0,6 C 3,2 C 3,2 km/h (1 Bft) 100,00 %
29.03.2023 13:10 3,2 C 83 % 1025,5 hPa 0,0 l/m 0,0 km/h (0 Bft) SW 225 0 min 0,000 mm 0,5 UV-I 93 W/m 0,6 C 3,2 C 1,6 km/h (1 Bft) 100,00 %
29.03.2023 13:09 3,1 C 82 % 1025,6 hPa 0,0 l/m 0,0 km/h (0 Bft) N 0 0 min 0,000 mm 0,5 UV-I 91 W/m 0,3 C 3,1 C 0,0 km/h (0 Bft) 95,65 %
29.03.2023 13:08 3,1 C 83 % 1025,6 hPa 0,0 l/m 0,0 km/h (0 Bft) N 0 0 min 0,000 mm 0,5 UV-I 84 W/m 0,5 C 3,1 C 0,0 km/h (0 Bft) 100,00 %
29.03.2023 13:07 3,0 C 82 % 1025,6 hPa 0,2 l/m 0,0 km/h (0 Bft) N 0 0 min 0,000 mm 0,5 UV-I 79 W/m 0,2 C 3,0 C 0,0 km/h (0 Bft) 95,65 %
29.03.2023 13:06 3,0 C 82 % 1025,6 hPa 0,0 l/m 0,0 km/h (0 Bft) S-SW 202 0 min 0,000 mm 0,5 UV-I 77 W/m 0,2 C 3,0 C 1,6 km/h (1 Bft) 95,65 %
29.03.2023 13:05 3,0 C 82 % 1025,6 hPa 0,0 l/m 1,6 km/h (1 Bft) S-SW 202 0 min 0,000 mm 0,5 UV-I 76 W/m 0,2 C 3,0 C 1,6 km/h (1 Bft) 100,00 %
29.03.2023 13:04 2,9 C 82 % 1025,6 hPa 0,0 l/m 0,0 km/h (0 Bft) S-SW 202 0 min 0,000 mm 0,5 UV-I 74 W/m 0,1 C 2,9 C 1,6 km/h (1 Bft) 100,00 %
29.03.2023 13:03 2,9 C 82 % 1025,6 hPa 0,0 l/m 0,0 km/h (0 Bft) N 0 0 min 0,000 mm 0,5 UV-I 76 W/m 0,1 C 2,9 C 0,0 km/h (0 Bft) 100,00 %
29.03.2023 13:02 2,9 C 82 % 1025,5 hPa 0,0 l/m 0,0 km/h (0 Bft) S-SW 202 0 min 0,000 mm 0,5 UV-I 76 W/m 0,1 C 2,9 C 1,6 km/h (1 Bft) 100,00 %
29.03.2023 13:01 3,0 C 82 % 1025,5 hPa 0,0 l/m 3,2 km/h (1 Bft) SW 225 0 min 0,000 mm 0,5 UV-I 77 W/m 0,2 C 3,0 C 6,4 km/h (2 Bft) 100,00 %
29.03.2023 13:00 3,0 C 82 % 1025,5 hPa 0,0 l/m 1,6 km/h (1 Bft) S-SW 202 0 min 0,051 mm 0,5 UV-I 81 W/m 0,2 C 3,0 C 4,8 km/h (1 Bft) 100,00 %
29.03.2023 12:59 3,0 C 82 % 1025,5 hPa 0,0 l/m 1,6 km/h (1 Bft) S-SW 202 0 min 0,000 mm 0,6 UV-I 84 W/m 0,2 C 3,0 C 3,2 km/h (1 Bft) 86,96 %
29.03.2023 12:58 3,0 C 82 % 1025,5 hPa 0,0 l/m 1,6 km/h (1 Bft) W-SW 247 0 min 0,000 mm 0,6 UV-I 88 W/m 0,2 C 3,0 C 3,2 km/h (1 Bft) 100,00 %
29.03.2023 12:57 3,0 C 82 % 1025,4 hPa 0,0 l/m 1,6 km/h (1 Bft) SW 225 0 min 0,000 mm 0,6 UV-I 95 W/m 0,2 C 3,0 C 3,2 km/h (1 Bft) 100,00 %
29.03.2023 12:56 3,0 C 82 % 1025,4 hPa 0,0 l/m 1,6 km/h (1 Bft) SW 225 0 min 0,000 mm 0,7 UV-I 100 W/m 0,2 C 3,0 C 3,2 km/h (1 Bft) 100,00 %
29.03.2023 12:55 3,0 C 82 % 1025,4 hPa 0,0 l/m 1,6 km/h (1 Bft) SW 225 0 min 0,000 mm 0,7 UV-I 102 W/m 0,2 C 3,0 C 3,2 km/h (1 Bft) 100,00 %
29.03.2023 12:54 3,0 C 82 % 1025,3 hPa 0,0 l/m 1,6 km/h (1 Bft) SW 225 0 min 0,000 mm 0,7 UV-I 102 W/m 0,2 C 3,0 C 3,2 km/h (1 Bft) 100,00 %
29.03.2023 12:53 3,0 C 82 % 1025,4 hPa 0,0 l/m 0,0 km/h (0 Bft) SW 225 0 min 0,000 mm 0,8 UV-I 120 W/m 0,2 C 3,0 C 1,6 km/h (1 Bft) 95,65 %
29.03.2023 12:52 3,0 C 82 % 1025,4 hPa 0,0 l/m 0,0 km/h (0 Bft) N 0 0 min 0,000 mm 0,8 UV-I 120 W/m 0,2 C 3,0 C 0,0 km/h (0 Bft) 95,65 %
29.03.2023 12:51 2,9 C 82 % 1025,4 hPa 0,0 l/m 0,0 km/h (0 Bft) SW 225 0 min 0,000 mm 0,8 UV-I 125 W/m 0,1 C 2,9 C 1,6 km/h (1 Bft) 95,65 %
29.03.2023 12:50 2,9 C 82 % 1025,5 hPa 0,0 l/m 0,0 km/h (0 Bft) N 0 0 min 0,000 mm 0,8 UV-I 123 W/m 0,1 C 2,9 C 0,0 km/h (0 Bft) 100,00 %
29.03.2023 12:49 2,8 C 82 % 1025,5 hPa 0,0 l/m 0,0 km/h (0 Bft) N 0 0 min 0,000 mm 0,8 UV-I 120 W/m 0,0 C 2,8 C 0,0 km/h (0 Bft) 95,65 %
29.03.2023 12:48 2,8 C 82 % 1025,5 hPa 0,0 l/m 0,0 km/h (0 Bft) SW 225 0 min 0,000 mm 0,8 UV-I 114 W/m 0,0 C 2,8 C 1,6 km/h (1 Bft) 95,65 %
29.03.2023 12:47 2,8 C 82 % 1025,4 hPa 0,0 l/m 1,6 km/h (1 Bft) SW 225 0 min 0,000 mm 0,8 UV-I 114 W/m 0,0 C 2,8 C 1,6 km/h (1 Bft) 100,00 %
29.03.2023 12:46 2,8 C 81 % 1025,5 hPa 0,0 l/m 0,0 km/h (0 Bft) SW 225 0 min 0,000 mm 0,8 UV-I 127 W/m -0,1 C 2,8 C 1,6 km/h (1 Bft) 95,65 %
29.03.2023 12:45 2,8 C 82 % 1025,4 hPa 0,0 l/m 1,6 km/h (1 Bft) SW 225 0 min 0,000 mm 0,8 UV-I 123 W/m 0,0 C 2,8 C 1,6 km/h (1 Bft) 95,65 %
29.03.2023 12:44 2,8 C 82 % 1025,4 hPa 0,0 l/m 3,2 km/h (1 Bft) SW 225 0 min 0,000 mm 0,8 UV-I 86 W/m 0,0 C 2,8 C 3,2 km/h (1 Bft) 91,30 %
29.03.2023 12:43 2,8 C 82 % 1025,5 hPa 0,0 l/m 3,2 km/h (1 Bft) SW 225 0 min 0,000 mm 0,8 UV-I 86 W/m 0,0 C 2,8 C 4,8 km/h (1 Bft) 100,00 %
29.03.2023 12:42 2,8 C 82 % 1025,4 hPa 0,0 l/m 3,2 km/h (1 Bft) SW 225 0 min 0,000 mm 0,8 UV-I 86 W/m 0,0 C 2,8 C 4,8 km/h (1 Bft) 95,65 %
29.03.2023 12:41 2,8 C 82 % 1025,4 hPa 0,0 l/m 1,6 km/h (1 Bft) SW 225 0 min 0,000 mm 0,7 UV-I 86 W/m 0,0 C 2,8 C 3,2 km/h (1 Bft) 100,00 %
29.03.2023 12:40 2,9 C 82 % 1025,5 hPa 0,0 l/m 1,6 km/h (1 Bft) SW 225 0 min 0,000 mm 0,7 UV-I 86 W/m 0,1 C 2,9 C 3,2 km/h (1 Bft) 95,65 %
29.03.2023 12:39 2,9 C 83 % 1025,5 hPa 0,0 l/m 1,6 km/h (1 Bft) SW 225 0 min 0,000 mm 0,7 UV-I 86 W/m 0,3 C 2,9 C 1,6 km/h (1 Bft) 91,30 %
29.03.2023 12:38 2,9 C 83 % 1025,5 hPa 0,0 l/m 1,6 km/h (1 Bft) SW 225 0 min 0,000 mm 0,6 UV-I 86 W/m 0,3 C 2,9 C 1,6 km/h (1 Bft) 95,65 %
29.03.2023 12:37 2,9 C 83 % 1025,6 hPa 0,0 l/m 0,0 km/h (0 Bft) SW 225 0 min 0,000 mm 0,6 UV-I 86 W/m 0,3 C 2,9 C 1,6 km/h (1 Bft) 91,30 %
29.03.2023 12:36 2,9 C 84 % 1025,7 hPa 0,0 l/m 0,0 km/h (0 Bft) SW 225 0 min 0,000 mm 0,6 UV-I 86 W/m 0,5 C 2,9 C 1,6 km/h (1 Bft) 100,00 %
29.03.2023 12:35 2,8 C 83 % 1025,7 hPa 0,0 l/m 0,0 km/h (0 Bft) N 0 0 min 0,000 mm 0,5 UV-I 86 W/m 0,2 C 2,8 C 0,0 km/h (0 Bft) 95,65 %
29.03.2023 12:34 2,8 C 83 % 1025,7 hPa 0,0 l/m 0,0 km/h (0 Bft) N 0 0 min 0,000 mm 0,5 UV-I 86 W/m 0,2 C 2,8 C 0,0 km/h (0 Bft) 100,00 %
29.03.2023 12:33 2,8 C 82 % 1025,7 hPa 0,0 l/m 0,0 km/h (0 Bft) SW 225 0 min 0,000 mm 0,5 UV-I 86 W/m 0,0 C 2,8 C 1,6 km/h (1 Bft) 100,00 %
29.03.2023 12:32 2,8 C 82 % 1025,7 hPa 0,0 l/m 1,6 km/h (1 Bft) SW 225 0 min 0,000 mm 0,5 UV-I 86 W/m 0,0 C 2,8 C 3,2 km/h (1 Bft) 95,65 %
29.03.2023 12:31 2,8 C 82 % 1025,6 hPa 0,0 l/m 1,6 km/h (1 Bft) SW 225 0 min 0,000 mm 0,5 UV-I 86 W/m 0,0 C 2,8 C 3,2 km/h (1 Bft) 95,65 %
29.03.2023 12:30 2,8 C 82 % 1025,7 hPa 0,0 l/m 0,0 km/h (0 Bft) SW 225 0 min 0,000 mm 0,5 UV-I 86 W/m 0,0 C 2,8 C 1,6 km/h (1 Bft) 100,00 %
29.03.2023 12:29 2,8 C 82 % 1025,7 hPa 0,0 l/m 0,0 km/h (0 Bft) SW 225 0 min 0,000 mm 0,5 UV-I 86 W/m 0,0 C 2,8 C 1,6 km/h (1 Bft) 95,65 %
29.03.2023 12:28 2,8 C 83 % 1025,8 hPa 0,0 l/m 0,0 km/h (0 Bft) N 0 0 min 0,000 mm 0,5 UV-I 86 W/m 0,2 C 2,8 C 0,0 km/h (0 Bft) 100,00 %
29.03.2023 12:27 2,8 C 83 % 1025,7 hPa 0,0 l/m 0,0 km/h (0 Bft) N 0 0 min 0,000 mm 0,5 UV-I 86 W/m 0,2 C 2,8 C 0,0 km/h (0 Bft) 100,00 %
29.03.2023 12:26 2,9 C 84 % 1025,7 hPa 0,0 l/m 0,0 km/h (0 Bft) SW 225 0 min 0,000 mm 0,5 UV-I 86 W/m 0,5 C 2,9 C 1,6 km/h (1 Bft) 95,65 %
29.03.2023 12:25 2,8 C 83 % 1025,8 hPa 0,0 l/m 0,0 km/h (0 Bft) SW 225 0 min 0,000 mm 0,6 UV-I 86 W/m 0,2 C 2,8 C 1,6 km/h (1 Bft) 100,00 %
29.03.2023 12:24 2,7 C 83 % 1025,7 hPa 0,0 l/m 1,6 km/h (1 Bft) SW 225 0 min 0,000 mm 0,6 UV-I 86 W/m 0,1 C 2,7 C 3,2 km/h (1 Bft) 91,30 %
29.03.2023 12:23 2,8 C 83 % 1025,7 hPa 0,0 l/m 1,6 km/h (1 Bft) SW 225 0 min 0,000 mm 0,6 UV-I 104 W/m 0,2 C 2,8 C 3,2 km/h (1 Bft) 100,00 %
29.03.2023 12:22 2,8 C 83 % 1025,7 hPa 0,0 l/m 0,0 km/h (0 Bft) N 0 0 min 0,000 mm 0,6 UV-I 104 W/m 0,2 C 2,8 C 0,0 km/h (0 Bft) 100,00 %
29.03.2023 12:21 2,8 C 83 % 1025,7 hPa 0,0 l/m 0,0 km/h (0 Bft) N 0 0 min 0,000 mm 0,7 UV-I 104 W/m 0,2 C 2,8 C 0,0 km/h (0 Bft) 91,30 %
29.03.2023 12:20 2,8 C 83 % 1025,6 hPa 0,0 l/m 0,0 km/h (0 Bft) N 0 0 min 0,000 mm 0,8 UV-I 104 W/m 0,2 C 2,8 C 0,0 km/h (0 Bft) 100,00 %
29.03.2023 12:19 2,8 C 83 % 1025,7 hPa 0,0 l/m 0,0 km/h (0 Bft) N 0 0 min 0,000 mm 0,8 UV-I 104 W/m 0,2 C 2,8 C 0,0 km/h (0 Bft) 95,65 %
29.03.2023 12:18 2,8 C 83 % 1025,7 hPa 0,0 l/m 0,0 km/h (0 Bft) N 0 0 min 0,000 mm 0,8 UV-I 104 W/m 0,2 C 2,8 C 0,0 km/h (0 Bft) 95,65 %
29.03.2023 12:17 2,8 C 83 % 1025,7 hPa 0,0 l/m 0,0 km/h (0 Bft) N 0 0 min 0,000 mm 0,7 UV-I 104 W/m 0,2 C 2,8 C 0,0 km/h (0 Bft) 95,65 %
29.03.2023 12:16 2,8 C 84 % 1025,8 hPa 0,0 l/m 0,0 km/h (0 Bft) N 0 0 min 0,000 mm 0,7 UV-I 104 W/m 0,4 C 2,8 C 0,0 km/h (0 Bft) 95,65 %
29.03.2023 12:15 2,7 C 83 % 1025,8 hPa 0,0 l/m 0,0 km/h (0 Bft) N 0 0 min 0,000 mm 0,8 UV-I 137 W/m 0,1 C 2,7 C 0,0 km/h (0 Bft) 100,00 %
29.03.2023 12:14 2,7 C 83 % 1025,7 hPa 0,0 l/m 0,0 km/h (0 Bft) N 0 0 min 0,000 mm 0,8 UV-I 137 W/m 0,1 C 2,7 C 0,0 km/h (0 Bft) 100,00 %
29.03.2023 12:13 2,7 C 84 % 1025,8 hPa 0,0 l/m 0,0 km/h (0 Bft) N 0 0 min 0,000 mm 0,8 UV-I 137 W/m 0,3 C 2,7 C 0,0 km/h (0 Bft) 95,65 %
29.03.2023 12:12 2,6 C 84 % 1025,7 hPa 0,0 l/m 0,0 km/h (0 Bft) N 0 0 min 0,000 mm 0,9 UV-I 137 W/m 0,2 C 2,6 C 0,0 km/h (0 Bft) 100,00 %
29.03.2023 12:11 2,6 C 84 % 1025,9 hPa 0,0 l/m 1,6 km/h (1 Bft) SW 225 0 min 0,000 mm 0,9 UV-I 137 W/m 0,2 C 2,6 C 3,2 km/h (1 Bft) 95,65 %
29.03.2023 12:10 2,5 C 84 % 1025,9 hPa 0,0 l/m 3,2 km/h (1 Bft) SW 225 0 min 0,000 mm 0,9 UV-I 137 W/m 0,1 C 2,5 C 4,8 km/h (1 Bft) 95,65 %
29.03.2023 12:09 2,5 C 84 % 1025,7 hPa 0,0 l/m 3,2 km/h (1 Bft) SW 225 0 min 0,000 mm 0,9 UV-I 98 W/m 0,1 C 2,5 C 4,8 km/h (1 Bft) 100,00 %
29.03.2023 12:08 2,4 C 83 % 1025,8 hPa 0,0 l/m 1,6 km/h (1 Bft) S-SW 202 0 min 0,000 mm 0,9 UV-I 98 W/m -0,2 C 2,4 C 3,2 km/h (1 Bft) 95,65 %
29.03.2023 12:07 2,4 C 83 % 1025,8 hPa 0,0 l/m 0,0 km/h (0 Bft) S-SW 202 0 min 0,000 mm 0,9 UV-I 98 W/m -0,2 C 2,4 C 1,6 km/h (1 Bft) 95,65 %
29.03.2023 12:06 2,4 C 83 % 1025,8 hPa 0,0 l/m 0,0 km/h (0 Bft) S-SW 202 0 min 0,000 mm 0,9 UV-I 98 W/m -0,2 C 2,4 C 1,6 km/h (1 Bft) 95,65 %
29.03.2023 12:05 2,4 C 83 % 1025,9 hPa 0,0 l/m 0,0 km/h (0 Bft) S-SW 202 0 min 0,000 mm 0,9 UV-I 98 W/m -0,2 C 2,4 C 1,6 km/h (1 Bft) 95,65 %
29.03.2023 12:04 2,4 C 83 % 1025,9 hPa 0,0 l/m 0,0 km/h (0 Bft) S-SW 202 0 min 0,000 mm 0,9 UV-I 98 W/m -0,2 C 2,4 C 1,6 km/h (1 Bft) 95,65 %
29.03.2023 12:03 2,3 C 83 % 1025,9 hPa 0,0 l/m 0,0 km/h (0 Bft) S-SW 202 0 min 0,000 mm 0,8 UV-I 98 W/m -0,3 C 2,3 C 1,6 km/h (1 Bft) 95,65 %
29.03.2023 12:02 2,4 C 83 % 1026,0 hPa 0,0 l/m 0,0 km/h (0 Bft) S-SW 202 0 min 0,000 mm 0,8 UV-I 98 W/m -0,2 C 2,4 C 1,6 km/h (1 Bft) 100,00 %
29.03.2023 12:01 2,4 C 83 % 1026,0 hPa 0,0 l/m 0,0 km/h (0 Bft) S-SW 202 0 min 0,000 mm 0,9 UV-I 98 W/m -0,2 C 2,4 C 1,6 km/h (1 Bft) 95,65 %
29.03.2023 12:00 2,5 C 83 % 1026,0 hPa 0,0 l/m 1,6 km/h (1 Bft) S-SW 202 0 min 0,025 mm 1,0 UV-I 98 W/m -0,1 C 2,5 C 3,2 km/h (1 Bft) 100,00 %
29.03.2023 11:59 2,5 C 84 % 1026,0 hPa 0,0 l/m 1,6 km/h (1 Bft) W-SW 247 0 min 0,000 mm 1,0 UV-I 98 W/m 0,1 C 2,5 C 3,2 km/h (1 Bft) 100,00 %
29.03.2023 11:58 2,5 C 85 % 1026,0 hPa 0,0 l/m 1,6 km/h (1 Bft) W-SW 247 0 min 0,000 mm 1,0 UV-I 98 W/m 0,2 C 2,5 C 3,2 km/h (1 Bft) 100,00 %
29.03.2023 11:57 2,4 C 84 % 1026,0 hPa 0,0 l/m 1,6 km/h (1 Bft) SW 225 0 min 0,000 mm 1,1 UV-I 98 W/m -0,0 C 2,4 C 3,2 km/h (1 Bft) 95,65 %
29.03.2023 11:56 2,3 C 84 % 1026,0 hPa 0,0 l/m 1,6 km/h (1 Bft) S-SW 202 0 min 0,000 mm 1,1 UV-I 98 W/m -0,1 C 2,3 C 3,2 km/h (1 Bft) 95,65 %
29.03.2023 11:55 2,3 C 84 % 1025,9 hPa 0,0 l/m 1,6 km/h (1 Bft) S-SW 202 0 min 0,000 mm 1,1 UV-I 98 W/m -0,1 C 2,3 C 3,2 km/h (1 Bft) 100,00 %
29.03.2023 11:54 2,3 C 84 % 1026,1 hPa 0,0 l/m 0,0 km/h (0 Bft) S-SW 202 0 min 0,000 mm 1,1 UV-I 98 W/m -0,1 C 2,3 C 1,6 km/h (1 Bft) 100,00 %
29.03.2023 11:53 2,3 C 84 % 1026,1 hPa 0,0 l/m 0,0 km/h (0 Bft) S-SW 202 0 min 0,000 mm 1,1 UV-I 98 W/m -0,1 C 2,3 C 1,6 km/h (1 Bft) 95,65 %
29.03.2023 11:52 2,3 C 84 % 1026,1 hPa 0,0 l/m 0,0 km/h (0 Bft) N 0 0 min 0,000 mm 1,1 UV-I 98 W/m -0,1 C 2,3 C 0,0 km/h (0 Bft) 95,65 %
29.03.2023 11:51 2,2 C 84 % 1026,0 hPa 0,0 l/m 0,0 km/h (0 Bft) S-SW 202 0 min 0,000 mm 1,1 UV-I 98 W/m -0,2 C 2,2 C 1,6 km/h (1 Bft) 100,00 %
29.03.2023 11:50 2,2 C 84 % 1026,0 hPa 0,0 l/m 0,0 km/h (0 Bft) N 0 0 min 0,000 mm 1,1 UV-I 98 W/m -0,2 C 2,2 C 0,0 km/h (0 Bft) 100,00 %
29.03.2023 11:49 2,2 C 84 % 1026,0 hPa 0,0 l/m 0,0 km/h (0 Bft) N 0 0 min 0,000 mm 1,2 UV-I 98 W/m -0,2 C 2,2 C 0,0 km/h (0 Bft) 95,65 %
29.03.2023 11:48 2,2 C 84 % 1026,0 hPa 0,0 l/m 1,6 km/h (1 Bft) S-SW 202 0 min 0,000 mm 1,2 UV-I 98 W/m -0,2 C 2,2 C 1,6 km/h (1 Bft) 95,65 %
29.03.2023 11:47 2,2 C 84 % 1026,0 hPa 0,0 l/m 1,6 km/h (1 Bft) S-SW 202 0 min 0,000 mm 1,3 UV-I 98 W/m -0,2 C 2,2 C 3,2 km/h (1 Bft) 100,00 %
29.03.2023 11:46 2,2 C 84 % 1026,1 hPa 0,0 l/m 1,6 km/h (1 Bft) W-SW 247 0 min 0,000 mm 1,2 UV-I 98 W/m -0,2 C 2,2 C 3,2 km/h (1 Bft) 95,65 %
29.03.2023 11:45 2,2 C 85 % 1026,0 hPa 0,0 l/m 1,6 km/h (1 Bft) W-SW 247 0 min 0,000 mm 1,3 UV-I 98 W/m -0,1 C 2,2 C 3,2 km/h (1 Bft) 95,65 %
29.03.2023 11:44 2,1 C 84 % 1026,0 hPa 0,0 l/m 1,6 km/h (1 Bft) W-SW 247 0 min 0,000 mm 1,3 UV-I 98 W/m -0,3 C 2,1 C 3,2 km/h (1 Bft) 100,00 %
29.03.2023 11:43 2,1 C 84 % 1026,0 hPa 0,0 l/m 1,6 km/h (1 Bft) W 270 0 min 0,000 mm 1,2 UV-I 98 W/m -0,3 C 2,1 C 3,2 km/h (1 Bft) 95,65 %
29.03.2023 11:42 2,1 C 84 % 1026,0 hPa 0,0 l/m 0,0 km/h (0 Bft) N 0 0 min 0,000 mm 1,1 UV-I 98 W/m -0,3 C 2,1 C 0,0 km/h (0 Bft) 95,65 %
29.03.2023 11:41 2,0 C 84 % 1026,0 hPa 0,0 l/m 1,6 km/h (1 Bft) W 270 0 min 0,000 mm 0,9 UV-I 98 W/m -0,4 C 2,0 C 1,6 km/h (1 Bft) 95,65 %
29.03.2023 11:40 2,0 C 85 % 1026,0 hPa 0,0 l/m 0,0 km/h (0 Bft) W 270 0 min 0,000 mm 0,8 UV-I 98 W/m -0,3 C 2,0 C 1,6 km/h (1 Bft) 95,65 %
29.03.2023 11:39 1,9 C 85 % 1026,0 hPa 0,0 l/m 0,0 km/h (0 Bft) W 270 0 min 0,000 mm 0,8 UV-I 98 W/m -0,3 C 1,9 C 1,6 km/h (1 Bft) 91,30 %
29.03.2023 11:38 1,9 C 84 % 1026,0 hPa 0,0 l/m 0,0 km/h (0 Bft) N 0 0 min 0,000 mm 0,8 UV-I 98 W/m -0,5 C 1,9 C 0,0 km/h (0 Bft) 95,65 %
29.03.2023 11:37 1,8 C 84 % 1026,0 hPa 0,0 l/m 0,0 km/h (0 Bft) W 270 0 min 0,000 mm 0,7 UV-I 98 W/m -0,6 C 1,8 C 1,6 km/h (1 Bft) 95,65 %
29.03.2023 11:36 1,8 C 84 % 1026,2 hPa 0,0 l/m 1,6 km/h (1 Bft) W 270 0 min 0,000 mm 0,6 UV-I 98 W/m -0,6 C 1,8 C 1,6 km/h (1 Bft) 95,65 %
29.03.2023 11:35 1,9 C 85 % 1026,1 hPa 0,0 l/m 1,6 km/h (1 Bft) W 270 0 min 0,000 mm 0,6 UV-I 102 W/m -0,3 C 1,9 C 1,6 km/h (1 Bft) 95,65 %
29.03.2023 11:34 1,9 C 84 % 1026,1 hPa 0,0 l/m 1,6 km/h (1 Bft) S-SW 202 0 min 0,000 mm 0,6 UV-I 100 W/m -0,5 C 1,9 C 3,2 km/h (1 Bft) 95,65 %
29.03.2023 11:33 1,9 C 85 % 1026,2 hPa 0,0 l/m 1,6 km/h (1 Bft) S-SW 202 0 min 0,000 mm 0,6 UV-I 98 W/m -0,3 C 1,9 C 1,6 km/h (1 Bft) 100,00 %
29.03.2023 11:32 1,9 C 85 % 1026,2 hPa 0,0 l/m 1,6 km/h (1 Bft) S 180 0 min 0,000 mm 0,6 UV-I 97 W/m -0,3 C 1,9 C 3,2 km/h (1 Bft) 95,65 %
29.03.2023 11:31 1,8 C 85 % 1026,1 hPa 0,0 l/m 1,6 km/h (1 Bft) S 180 0 min 0,000 mm 0,6 UV-I 97 W/m -0,4 C 1,8 C 1,6 km/h (1 Bft) 95,65 %
29.03.2023 11:30 1,8 C 84 % 1026,0 hPa 0,0 l/m 0,0 km/h (0 Bft) S 180 0 min 0,000 mm 0,6 UV-I 79 W/m -0,6 C 1,8 C 1,6 km/h (1 Bft) 91,30 %
29.03.2023 11:29 1,8 C 85 % 1026,1 hPa 0,0 l/m 1,6 km/h (1 Bft) S 180 0 min 0,000 mm 0,6 UV-I 79 W/m -0,4 C 1,8 C 1,6 km/h (1 Bft) 91,30 %
29.03.2023 11:28 1,9 C 85 % 1026,1 hPa 0,0 l/m 0,0 km/h (0 Bft) S 180 0 min 0,000 mm 0,5 UV-I 79 W/m -0,3 C 1,9 C 1,6 km/h (1 Bft) 95,65 %
29.03.2023 11:27 1,8 C 85 % 1026,1 hPa 0,0 l/m 0,0 km/h (0 Bft) S 180 0 min 0,000 mm 0,5 UV-I 69 W/m -0,4 C 1,8 C 1,6 km/h (1 Bft) 95,65 %
29.03.2023 11:26 1,8 C 85 % 1026,1 hPa 0,0 l/m 0,0 km/h (0 Bft) N 0 0 min 0,000 mm 0,0 UV-I 69 W/m -0,4 C 1,8 C 0,0 km/h (0 Bft) 100,00 %
29.03.2023 11:25 1,8 C 85 % 1026,1 hPa 0,0 l/m 1,6 km/h (1 Bft) S 180 0 min 0,000 mm 0,0 UV-I 69 W/m -0,4 C 1,8 C 1,6 km/h (1 Bft) 100,00 %
29.03.2023 11:24 1,8 C 85 % 1026,1 hPa 0,0 l/m 0,0 km/h (0 Bft) S 180 0 min 0,000 mm 0,0 UV-I 69 W/m -0,4 C 1,8 C 1,6 km/h (1 Bft) 100,00 %
29.03.2023 11:23 1,8 C 85 % 1026,1 hPa 0,0 l/m 1,6 km/h (1 Bft) S 180 0 min 0,000 mm 0,0 UV-I 69 W/m -0,4 C 1,8 C 1,6 km/h (1 Bft) 95,65 %
29.03.2023 11:22 1,8 C 85 % 1026,2 hPa 0,0 l/m 0,0 km/h (0 Bft) S 180 0 min 0,000 mm 0,5 UV-I 69 W/m -0,4 C 1,8 C 1,6 km/h (1 Bft) 100,00 %
29.03.2023 11:21 1,8 C 85 % 1026,1 hPa 0,0 l/m 0,0 km/h (0 Bft) S 180 0 min 0,000 mm 0,5 UV-I 69 W/m -0,4 C 1,8 C 1,6 km/h (1 Bft) 95,65 %
29.03.2023 11:20 1,8 C 85 % 1026,1 hPa 0,0 l/m 0,0 km/h (0 Bft) S-SO 157 0 min 0,000 mm 0,0 UV-I 69 W/m -0,4 C 1,8 C 1,6 km/h (1 Bft) 100,00 %
29.03.2023 11:19 1,7 C 85 % 1026,2 hPa 0,0 l/m 0,0 km/h (0 Bft) S-SO 157 0 min 0,000 mm 0,0 UV-I 69 W/m -0,5 C 1,7 C 1,6 km/h (1 Bft) 100,00 %
29.03.2023 11:18 1,8 C 85 % 1026,0 hPa 0,0 l/m 0,0 km/h (0 Bft) S-SO 157 0 min 0,000 mm 0,0 UV-I 69 W/m -0,4 C 1,8 C 1,6 km/h (1 Bft) 100,00 %
29.03.2023 11:17 1,8 C 85 % 1026,0 hPa 0,0 l/m 0,0 km/h (0 Bft) S-SO 157 0 min 0,000 mm 0,0 UV-I 69 W/m -0,4 C 1,8 C 1,6 km/h (1 Bft) 100,00 %
29.03.2023 11:16 1,8 C 85 % 1026,0 hPa 0,0 l/m 1,6 km/h (1 Bft) S-SO 157 0 min 0,000 mm 0,0 UV-I 69 W/m -0,4 C 1,8 C 1,6 km/h (1 Bft) 95,65 %
29.03.2023 11:15 1,7 C 85 % 1026,1 hPa 0,0 l/m 0,0 km/h (0 Bft) S-SO 157 0 min 0,000 mm 0,0 UV-I 69 W/m -0,5 C 1,7 C 1,6 km/h (1 Bft) 100,00 %
29.03.2023 11:14 1,8 C 85 % 1026,2 hPa 0,0 l/m 0,0 km/h (0 Bft) S-SO 157 0 min 0,000 mm 0,0 UV-I 69 W/m -0,4 C 1,8 C 1,6 km/h (1 Bft) 91,30 %
29.03.2023 11:13 1,7 C 85 % 1026,1 hPa 0,0 l/m 1,6 km/h (1 Bft) S-SO 157 0 min 0,000 mm 0,0 UV-I 65 W/m -0,5 C 1,7 C 3,2 km/h (1 Bft) 100,00 %
29.03.2023 11:12 1,7 C 85 % 1026,1 hPa 0,0 l/m 1,6 km/h (1 Bft) S-SW 202 0 min 0,000 mm 0,0 UV-I 65 W/m -0,5 C 1,7 C 4,8 km/h (1 Bft) 100,00 %
29.03.2023 11:11 1,7 C 85 % 1026,2 hPa 0,0 l/m 0,0 km/h (0 Bft) S-SW 202 0 min 0,000 mm 0,0 UV-I 60 W/m -0,5 C 1,7 C 1,6 km/h (1 Bft) 100,00 %
29.03.2023 11:10 1,7 C 85 % 1026,1 hPa 0,0 l/m 0,0 km/h (0 Bft) S-SW 202 0 min 0,000 mm 0,0 UV-I 62 W/m -0,5 C 1,7 C 1,6 km/h (1 Bft) 95,65 %
29.03.2023 11:09 1,7 C 85 % 1026,2 hPa 0,0 l/m 0,0 km/h (0 Bft) S-SW 202 0 min 0,000 mm 0,0 UV-I 58 W/m -0,5 C 1,7 C 1,6 km/h (1 Bft) 95,65 %
29.03.2023 11:08 1,6 C 85 % 1026,1 hPa 0,0 l/m 0,0 km/h (0 Bft) S-SW 202 0 min 0,000 mm 0,0 UV-I 58 W/m -0,6 C 1,6 C 3,2 km/h (1 Bft) 100,00 %
29.03.2023 11:07 1,7 C 85 % 1026,1 hPa 0,0 l/m 1,6 km/h (1 Bft) S-SW 202 0 min 0,000 mm 0,0 UV-I 56 W/m -0,5 C 1,7 C 3,2 km/h (1 Bft) 95,65 %
29.03.2023 11:06 1,7 C 85 % 1026,1 hPa 0,0 l/m 0,0 km/h (0 Bft) N 0 0 min 0,000 mm 0,0 UV-I 58 W/m -0,5 C 1,7 C 0,0 km/h (0 Bft) 100,00 %
29.03.2023 11:05 1,7 C 85 % 1026,1 hPa 0,0 l/m 0,0 km/h (0 Bft) S-SW 202 0 min 0,000 mm 0,0 UV-I 60 W/m -0,5 C 1,7 C 1,6 km/h (1 Bft) 100,00 %
29.03.2023 11:04 1,6 C 85 % 1026,2 hPa 0,0 l/m 0,0 km/h (0 Bft) S-SW 202 0 min 0,000 mm 0,0 UV-I 60 W/m -0,6 C 1,6 C 1,6 km/h (1 Bft) 95,65 %
29.03.2023 11:03 1,6 C 85 % 1026,2 hPa 0,0 l/m 0,0 km/h (0 Bft) N 0 0 min 0,000 mm 0,0 UV-I 60 W/m -0,6 C 1,6 C 0,0 km/h (0 Bft) 100,00 %
29.03.2023 11:02 1,6 C 85 % 1026,2 hPa 0,0 l/m 0,0 km/h (0 Bft) N 0 0 min 0,000 mm 0,0 UV-I 60 W/m -0,6 C 1,6 C 0,0 km/h (0 Bft) 100,00 %
29.03.2023 11:01 1,6 C 85 % 1026,2 hPa 0,0 l/m 0,0 km/h (0 Bft) S-SW 202 0 min 0,000 mm 0,0 UV-I 60 W/m -0,6 C 1,6 C 1,6 km/h (1 Bft) 95,65 %
29.03.2023 11:00 1,6 C 85 % 1026,1 hPa 0,0 l/m 0,0 km/h (0 Bft) S-SW 202 0 min 0,025 mm 0,0 UV-I 58 W/m -0,6 C 1,6 C 1,6 km/h (1 Bft) 95,65 %
29.03.2023 10:59 1,6 C 86 % 1026,1 hPa 0,0 l/m 0,0 km/h (0 Bft) N 0 0 min 0,000 mm 0,0 UV-I 58 W/m -0,5 C 1,6 C 0,0 km/h (0 Bft) 100,00 %
29.03.2023 10:58 1,6 C 86 % 1026,2 hPa 0,0 l/m 0,0 km/h (0 Bft) S-SW 202 0 min 0,000 mm 0,0 UV-I 54 W/m -0,5 C 1,6 C 1,6 km/h (1 Bft) 100,00 %
29.03.2023 10:57 1,6 C 85 % 1026,1 hPa 0,0 l/m 1,6 km/h (1 Bft) SO 135 0 min 0,000 mm 0,0 UV-I 58 W/m -0,6 C 1,6 C 1,6 km/h (1 Bft) 100,00 %
29.03.2023 10:56 1,6 C 85 % 1026,0 hPa 0,0 l/m 0,0 km/h (0 Bft) SO 135 0 min 0,000 mm 0,0 UV-I 58 W/m -0,6 C 1,6 C 1,6 km/h (1 Bft) 100,00 %
29.03.2023 10:55 1,7 C 85 % 1026,0 hPa 0,0 l/m 1,6 km/h (1 Bft) SO 135 0 min 0,000 mm 0,0 UV-I 58 W/m -0,5 C 1,7 C 1,6 km/h (1 Bft) 100,00 %
29.03.2023 10:54 1,7 C 86 % 1026,0 hPa 0,0 l/m 1,6 km/h (1 Bft) SO 135 0 min 0,000 mm 0,0 UV-I 58 W/m -0,4 C 1,7 C 1,6 km/h (1 Bft) 95,65 %
29.03.2023 10:53 1,6 C 85 % 1026,0 hPa 0,0 l/m 1,6 km/h (1 Bft) SO 135 0 min 0,000 mm 0,0 UV-I 65 W/m -0,6 C 1,6 C 3,2 km/h (1 Bft) 95,65 %
29.03.2023 10:52 1,6 C 85 % 1026,0 hPa 0,0 l/m 0,0 km/h (0 Bft) S 180 0 min 0,000 mm 0,0 UV-I 70 W/m -0,6 C 1,6 C 1,6 km/h (1 Bft) 95,65 %
29.03.2023 10:51 1,6 C 85 % 1026,2 hPa 0,0 l/m 0,0 km/h (0 Bft) N 0 0 min 0,000 mm 0,0 UV-I 70 W/m -0,6 C 1,6 C 0,0 km/h (0 Bft) 100,00 %
29.03.2023 10:50 1,5 C 84 % 1026,1 hPa 0,0 l/m 0,0 km/h (0 Bft) N 0 0 min 0,000 mm 0,0 UV-I 76 W/m -0,9 C 1,5 C 0,0 km/h (0 Bft) 100,00 %
29.03.2023 10:49 1,5 C 85 % 1026,1 hPa 0,0 l/m 0,0 km/h (0 Bft) S 180 0 min 0,000 mm 0,5 UV-I 76 W/m -0,7 C 1,5 C 1,6 km/h (1 Bft) 95,65 %
29.03.2023 10:48 1,4 C 84 % 1026,0 hPa 0,0 l/m 1,6 km/h (1 Bft) S 180 0 min 0,000 mm 0,5 UV-I 86 W/m -1,0 C 1,4 C 3,2 km/h (1 Bft) 100,00 %
29.03.2023 10:47 1,4 C 85 % 1026,0 hPa 0,0 l/m 0,0 km/h (0 Bft) S-SW 202 0 min 0,000 mm 0,5 UV-I 83 W/m -0,8 C 1,4 C 1,6 km/h (1 Bft) 95,65 %
29.03.2023 10:46 1,4 C 85 % 1026,0 hPa 0,0 l/m 0,0 km/h (0 Bft) N 0 0 min 0,000 mm 0,5 UV-I 77 W/m -0,8 C 1,4 C 0,0 km/h (0 Bft) 95,65 %
29.03.2023 10:45 1,4 C 84 % 1025,9 hPa 0,0 l/m 0,0 km/h (0 Bft) N 0 0 min 0,000 mm 0,0 UV-I 77 W/m -1,0 C 1,4 C 0,0 km/h (0 Bft) 100,00 %
29.03.2023 10:44 1,4 C 84 % 1026,0 hPa 0,0 l/m 0,0 km/h (0 Bft) S-SW 202 0 min 0,000 mm 0,5 UV-I 83 W/m -1,0 C 1,4 C 1,6 km/h (1 Bft) 100,00 %
29.03.2023 10:43 1,4 C 84 % 1026,0 hPa 0,0 l/m 0,0 km/h (0 Bft) N 0 0 min 0,000 mm 0,5 UV-I 84 W/m -1,0 C 1,4 C 0,0 km/h (0 Bft) 95,65 %
29.03.2023 10:42 1,4 C 84 % 1026,0 hPa 0,0 l/m 0,0 km/h (0 Bft) N 0 0 min 0,000 mm 0,5 UV-I 86 W/m -1,0 C 1,4 C 0,0 km/h (0 Bft) 100,00 %
29.03.2023 10:41 1,4 C 84 % 1026,0 hPa 0,0 l/m 0,0 km/h (0 Bft) N 0 0 min 0,000 mm 0,5 UV-I 90 W/m -1,0 C 1,4 C 0,0 km/h (0 Bft) 95,65 %
29.03.2023 10:40 1,4 C 84 % 1025,9 hPa 0,0 l/m 0,0 km/h (0 Bft) N 0 0 min 0,000 mm 0,5 UV-I 95 W/m -1,0 C 1,4 C 0,0 km/h (0 Bft) 100,00 %
29.03.2023 10:39 1,4 C 85 % 1025,9 hPa 0,0 l/m 0,0 km/h (0 Bft) N 0 0 min 0,000 mm 0,5 UV-I 93 W/m -0,8 C 1,4 C 0,0 km/h (0 Bft) 86,96 %
29.03.2023 10:38 1,5 C 85 % 1025,9 hPa 0,0 l/m 0,0 km/h (0 Bft) N 0 0 min 0,000 mm 0,5 UV-I 93 W/m -0,7 C 1,5 C 0,0 km/h (0 Bft) 95,65 %
29.03.2023 10:37 1,5 C 86 % 1026,0 hPa 0,0 l/m 0,0 km/h (0 Bft) N 0 0 min 0,000 mm 0,5 UV-I 93 W/m -0,6 C 1,5 C 0,0 km/h (0 Bft) 95,65 %
29.03.2023 10:36 1,5 C 86 % 1026,0 hPa 0,0 l/m 0,0 km/h (0 Bft) N 0 0 min 0,000 mm 0,5 UV-I 93 W/m -0,6 C 1,5 C 0,0 km/h (0 Bft) 100,00 %
29.03.2023 10:35 1,4 C 86 % 1025,9 hPa 0,0 l/m 0,0 km/h (0 Bft) N 0 0 min 0,000 mm 0,5 UV-I 93 W/m -0,7 C 1,4 C 0,0 km/h (0 Bft) 95,65 %
29.03.2023 10:34 1,3 C 85 % 1025,9 hPa 0,0 l/m 0,0 km/h (0 Bft) N 0 0 min 0,000 mm 0,5 UV-I 93 W/m -0,9 C 1,3 C 0,0 km/h (0 Bft) 100,00 %
29.03.2023 10:33 1,4 C 85 % 1025,9 hPa 0,0 l/m 0,0 km/h (0 Bft) N 0 0 min 0,000 mm 0,5 UV-I 98 W/m -0,8 C 1,4 C 0,0 km/h (0 Bft) 91,30 %
29.03.2023 10:32 1,4 C 85 % 1025,9 hPa 0,0 l/m 0,0 km/h (0 Bft) N 0 0 min 0,000 mm 0,5 UV-I 98 W/m -0,8 C 1,4 C 0,0 km/h (0 Bft) 95,65 %
29.03.2023 10:31 1,4 C 85 % 1026,0 hPa 0,0 l/m 0,0 km/h (0 Bft) N 0 0 min 0,000 mm 0,5 UV-I 98 W/m -0,8 C 1,4 C 0,0 km/h (0 Bft) 95,65 %
29.03.2023 10:30 1,4 C 85 % 1025,9 hPa 0,0 l/m 0,0 km/h (0 Bft) N 0 0 min 0,000 mm 0,5 UV-I 104 W/m -0,8 C 1,4 C 0,0 km/h (0 Bft) 91,30 %
29.03.2023 10:29 1,4 C 86 % 1025,9 hPa 0,0 l/m 0,0 km/h (0 Bft) N 0 0 min 0,000 mm 0,5 UV-I 104 W/m -0,7 C 1,4 C 0,0 km/h (0 Bft) 100,00 %
29.03.2023 10:28 1,4 C 86 % 1025,9 hPa 0,0 l/m 0,0 km/h (0 Bft) N 0 0 min 0,000 mm 0,5 UV-I 116 W/m -0,7 C 1,4 C 0,0 km/h (0 Bft) 91,30 %
29.03.2023 10:27 1,3 C 86 % 1025,9 hPa 0,0 l/m 0,0 km/h (0 Bft) N 0 0 min 0,000 mm 0,6 UV-I 116 W/m -0,8 C 1,3 C 0,0 km/h (0 Bft) 95,65 %
29.03.2023 10:26 1,3 C 86 % 1026,0 hPa 0,0 l/m 0,0 km/h (0 Bft) N 0 0 min 0,000 mm 0,6 UV-I 116 W/m -0,8 C 1,3 C 0,0 km/h (0 Bft) 91,30 %
29.03.2023 10:25 1,2 C 85 % 1026,0 hPa 0,0 l/m 0,0 km/h (0 Bft) N 0 0 min 0,000 mm 0,6 UV-I 116 W/m -1,0 C 1,2 C 0,0 km/h (0 Bft) 95,65 %
29.03.2023 10:24 1,2 C 84 % 1025,9 hPa 0,0 l/m 0,0 km/h (0 Bft) N 0 0 min 0,000 mm 0,6 UV-I 116 W/m -1,2 C 1,2 C 0,0 km/h (0 Bft) 95,65 %
29.03.2023 10:23 1,2 C 84 % 1026,0 hPa 0,0 l/m 0,0 km/h (0 Bft) N 0 0 min 0,000 mm 0,6 UV-I 116 W/m -1,2 C 1,2 C 0,0 km/h (0 Bft) 95,65 %
29.03.2023 10:22 1,2 C 85 % 1026,0 hPa 0,0 l/m 0,0 km/h (0 Bft) N 0 0 min 0,000 mm 0,6 UV-I 118 W/m -1,0 C 1,2 C 0,0 km/h (0 Bft) 95,65 %
29.03.2023 10:21 1,2 C 85 % 1026,0 hPa 0,0 l/m 0,0 km/h (0 Bft) N 0 0 min 0,000 mm 0,6 UV-I 113 W/m -1,0 C 1,2 C 0,0 km/h (0 Bft) 95,65 %
29.03.2023 10:20 1,2 C 85 % 1026,1 hPa 0,0 l/m 0,0 km/h (0 Bft) N 0 0 min 0,000 mm 0,6 UV-I 113 W/m -1,0 C 1,2 C 0,0 km/h (0 Bft) 100,00 %
29.03.2023 10:19 1,1 C 85 % 1026,0 hPa 0,0 l/m 0,0 km/h (0 Bft) N 0 0 min 0,000 mm 0,5 UV-I 98 W/m -1,1 C 1,1 C 0,0 km/h (0 Bft) 95,65 %
29.03.2023 10:18 1,2 C 85 % 1026,0 hPa 0,0 l/m 0,0 km/h (0 Bft) N 0 0 min 0,000 mm 0,5 UV-I 86 W/m -1,0 C 1,2 C 0,0 km/h (0 Bft) 95,65 %
29.03.2023 10:17 1,1 C 84 % 1026,1 hPa 0,0 l/m 0,0 km/h (0 Bft) N 0 0 min 0,000 mm 0,0 UV-I 76 W/m -1,3 C 1,1 C 0,0 km/h (0 Bft) 95,65 %
29.03.2023 10:16 1,1 C 84 % 1026,1 hPa 0,0 l/m 0,0 km/h (0 Bft) N 0 0 min 0,000 mm 0,0 UV-I 65 W/m -1,3 C 1,1 C 0,0 km/h (0 Bft) 95,65 %
29.03.2023 10:15 1,2 C 84 % 1026,0 hPa 0,0 l/m 0,0 km/h (0 Bft) N 0 0 min 0,000 mm 0,0 UV-I 58 W/m -1,2 C 1,2 C 0,0 km/h (0 Bft) 95,65 %
29.03.2023 10:14 1,2 C 84 % 1026,0 hPa 0,0 l/m 0,0 km/h (0 Bft) N 0 0 min 0,000 mm 0,0 UV-I 58 W/m -1,2 C 1,2 C 0,0 km/h (0 Bft) 100,00 %
29.03.2023 10:13 1,1 C 84 % 1026,0 hPa 0,0 l/m 0,0 km/h (0 Bft) N-NO 22 0 min 0,000 mm 0,0 UV-I 58 W/m -1,3 C 1,1 C 1,6 km/h (1 Bft) 95,65 %
29.03.2023 10:12 1,2 C 84 % 1026,1 hPa 0,0 l/m 1,6 km/h (1 Bft) N-NO 22 0 min 0,000 mm 0,0 UV-I 51 W/m -1,2 C 1,2 C 1,6 km/h (1 Bft) 100,00 %
29.03.2023 10:11 1,2 C 84 % 1026,1 hPa 0,0 l/m 0,0 km/h (0 Bft) N-NO 22 0 min 0,000 mm 0,0 UV-I 53 W/m -1,2 C 1,2 C 1,6 km/h (1 Bft) 95,65 %
29.03.2023 10:10 1,2 C 84 % 1026,0 hPa 0,0 l/m 0,0 km/h (0 Bft) N-NO 22 0 min 0,000 mm 0,0 UV-I 53 W/m -1,2 C 1,2 C 1,6 km/h (1 Bft) 100,00 %
29.03.2023 10:09 1,2 C 85 % 1026,1 hPa 0,0 l/m 0,0 km/h (0 Bft) NO 45 0 min 0,000 mm 0,0 UV-I 53 W/m -1,0 C 1,2 C 1,6 km/h (1 Bft) 100,00 %
29.03.2023 10:08 1,2 C 85 % 1026,1 hPa 0,0 l/m 0,0 km/h (0 Bft) N 0 0 min 0,000 mm 0,0 UV-I 62 W/m -1,0 C 1,2 C 0,0 km/h (0 Bft) 100,00 %
29.03.2023 10:07 1,2 C 85 % 1026,0 hPa 0,0 l/m 0,0 km/h (0 Bft) N 0 0 min 0,000 mm 0,0 UV-I 62 W/m -1,0 C 1,2 C 0,0 km/h (0 Bft) 100,00 %
29.03.2023 10:06 1,2 C 85 % 1026,2 hPa 0,0 l/m 0,0 km/h (0 Bft) NO 45 0 min 0,000 mm 0,0 UV-I 69 W/m -1,0 C 1,2 C 1,6 km/h (1 Bft) 100,00 %
29.03.2023 10:05 1,2 C 86 % 1026,1 hPa 0,0 l/m 0,0 km/h (0 Bft) NO 45 0 min 0,000 mm 0,0 UV-I 77 W/m -0,9 C 1,2 C 1,6 km/h (1 Bft) 100,00 %
29.03.2023 10:04 1,1 C 85 % 1026,1 hPa 0,0 l/m 0,0 km/h (0 Bft) N 0 0 min 0,000 mm 0,0 UV-I 77 W/m -1,1 C 1,1 C 0,0 km/h (0 Bft) 91,30 %
29.03.2023 10:03 1,1 C 85 % 1026,1 hPa 0,0 l/m 0,0 km/h (0 Bft) N 0 0 min 0,000 mm 0,0 UV-I 81 W/m -1,1 C 1,1 C 0,0 km/h (0 Bft) 100,00 %
29.03.2023 10:02 1,1 C 86 % 1026,0 hPa 0,0 l/m 0,0 km/h (0 Bft) NO 45 0 min 0,000 mm 0,0 UV-I 83 W/m -1,0 C 1,1 C 1,6 km/h (1 Bft) 100,00 %
29.03.2023 10:01 1,1 C 86 % 1026,1 hPa 0,0 l/m 0,0 km/h (0 Bft) NO 45 0 min 0,000 mm 0,0 UV-I 81 W/m -1,0 C 1,1 C 1,6 km/h (1 Bft) 95,65 %
29.03.2023 10:00 1,1 C 86 % 1026,1 hPa 0,0 l/m 0,0 km/h (0 Bft) N 0 0 min 0,025 mm 0,0 UV-I 77 W/m -1,0 C 1,1 C 0,0 km/h (0 Bft) 100,00 %
29.03.2023 09:59 1,1 C 86 % 1026,1 hPa 0,0 l/m 0,0 km/h (0 Bft) N 0 0 min 0,000 mm 0,0 UV-I 77 W/m -1,0 C 1,1 C 0,0 km/h (0 Bft) 100,00 %
29.03.2023 09:58 1,0 C 87 % 1026,1 hPa 0,0 l/m 0,0 km/h (0 Bft) NO 45 0 min 0,000 mm 0,0 UV-I 83 W/m -0,9 C 1,0 C 1,6 km/h (1 Bft) 95,65 %
29.03.2023 09:57 1,0 C 87 % 1026,0 hPa 0,0 l/m 1,6 km/h (1 Bft) NO 45 0 min 0,000 mm 0,0 UV-I 83 W/m -0,9 C 1,0 C 3,2 km/h (1 Bft) 95,65 %
29.03.2023 09:56 0,9 C 87 % 1026,1 hPa 0,0 l/m 0,0 km/h (0 Bft) NO 45 0 min 0,000 mm 0,0 UV-I 77 W/m -1,0 C 0,9 C 1,6 km/h (1 Bft) 95,65 %
29.03.2023 09:55 0,9 C 87 % 1026,1 hPa 0,0 l/m 0,0 km/h (0 Bft) N 0 0 min 0,000 mm 0,0 UV-I 65 W/m -1,0 C 0,9 C 0,0 km/h (0 Bft) 91,30 %
29.03.2023 09:54 0,9 C 87 % 1026,1 hPa 0,0 l/m 0,0 km/h (0 Bft) N-NO 22 0 min 0,000 mm 0,0 UV-I 67 W/m -1,0 C 0,9 C 1,6 km/h (1 Bft) 100,00 %
29.03.2023 09:53 0,9 C 87 % 1026,0 hPa 0,0 l/m 0,0 km/h (0 Bft) N 0 0 min 0,000 mm 0,0 UV-I 70 W/m -1,0 C 0,9 C 0,0 km/h (0 Bft) 95,65 %
29.03.2023 09:52 0,8 C 87 % 1026,1 hPa 0,0 l/m 0,0 km/h (0 Bft) N-NO 22 0 min 0,000 mm 0,0 UV-I 72 W/m -1,1 C 0,8 C 1,6 km/h (1 Bft) 100,00 %
29.03.2023 09:51 0,8 C 87 % 1026,0 hPa 0,0 l/m 0,0 km/h (0 Bft) N-NO 22 0 min 0,000 mm 0,0 UV-I 69 W/m -1,1 C 0,8 C 1,6 km/h (1 Bft) 100,00 %
29.03.2023 09:50 0,8 C 86 % 1026,0 hPa 0,0 l/m 0,0 km/h (0 Bft) N 0 0 min 0,000 mm 0,0 UV-I 58 W/m -1,3 C 0,8 C 0,0 km/h (0 Bft) 95,65 %
29.03.2023 09:49 0,8 C 87 % 1026,0 hPa 0,0 l/m 0,0 km/h (0 Bft) N 0 0 min 0,000 mm 0,0 UV-I 53 W/m -1,1 C 0,8 C 0,0 km/h (0 Bft) 100,00 %
29.03.2023 09:48 0,8 C 86 % 1026,0 hPa 0,0 l/m 0,0 km/h (0 Bft) N 0 0 min 0,000 mm 0,0 UV-I 51 W/m -1,3 C 0,8 C 0,0 km/h (0 Bft) 100,00 %
29.03.2023 09:47 0,8 C 86 % 1026,0 hPa 0,0 l/m 0,0 km/h (0 Bft) N-NO 22 0 min 0,000 mm 0,0 UV-I 40 W/m -1,3 C 0,8 C 1,6 km/h (1 Bft) 100,00 %
29.03.2023 09:46 0,8 C 86 % 1026,0 hPa 0,0 l/m 0,0 km/h (0 Bft) N-NO 22 0 min 0,000 mm 0,0 UV-I 40 W/m -1,3 C 0,8 C 1,6 km/h (1 Bft) 100,00 %
29.03.2023 09:45 0,8 C 85 % 1026,0 hPa 0,0 l/m 1,6 km/h (1 Bft) N-NO 22 0 min 0,000 mm 0,0 UV-I 42 W/m -1,4 C 0,8 C 1,6 km/h (1 Bft) 100,00 %
29.03.2023 09:44 0,8 C 86 % 1026,0 hPa 0,0 l/m 0,0 km/h (0 Bft) N-NO 22 0 min 0,000 mm 0,0 UV-I 47 W/m -1,3 C 0,8 C 1,6 km/h (1 Bft) 100,00 %
29.03.2023 09:43 0,8 C 86 % 1026,1 hPa 0,0 l/m 0,0 km/h (0 Bft) N 0 0 min 0,000 mm 0,0 UV-I 47 W/m -1,3 C 0,8 C 0,0 km/h (0 Bft) 91,30 %
29.03.2023 09:42 0,8 C 86 % 1026,0 hPa 0,0 l/m 0,0 km/h (0 Bft) N 0 0 min 0,000 mm 0,0 UV-I 46 W/m -1,3 C 0,8 C 0,0 km/h (0 Bft) 100,00 %
29.03.2023 09:41 0,8 C 86 % 1026,0 hPa 0,0 l/m 0,0 km/h (0 Bft) N 0 0 min 0,000 mm 0,0 UV-I 44 W/m -1,3 C 0,8 C 0,0 km/h (0 Bft) 100,00 %
29.03.2023 09:40 0,8 C 86 % 1026,0 hPa 0,0 l/m 0,0 km/h (0 Bft) N 0 0 min 0,000 mm 0,0 UV-I 44 W/m -1,3 C 0,8 C 0,0 km/h (0 Bft) 100,00 %
29.03.2023 09:39 0,8 C 86 % 1026,0 hPa 0,0 l/m 0,0 km/h (0 Bft) N 0 0 min 0,000 mm 0,0 UV-I 44 W/m -1,3 C 0,8 C 0,0 km/h (0 Bft) 95,65 %
29.03.2023 09:38 0,8 C 86 % 1026,0 hPa 0,0 l/m 0,0 km/h (0 Bft) N 0 0 min 0,000 mm 0,0 UV-I 47 W/m -1,3 C 0,8 C 0,0 km/h (0 Bft) 100,00 %
29.03.2023 09:37 0,8 C 86 % 1026,0 hPa 0,0 l/m 0,0 km/h (0 Bft) N 0 0 min 0,000 mm 0,0 UV-I 44 W/m -1,3 C 0,8 C 0,0 km/h (0 Bft) 95,65 %
29.03.2023 09:36 0,8 C 86 % 1026,0 hPa 0,0 l/m 0,0 km/h (0 Bft) N 0 0 min 0,000 mm 0,0 UV-I 44 W/m -1,3 C 0,8 C 0,0 km/h (0 Bft) 95,65 %
29.03.2023 09:35 0,7 C 86 % 1026,0 hPa 0,0 l/m 0,0 km/h (0 Bft) N 0 0 min 0,000 mm 0,0 UV-I 44 W/m -1,4 C 0,7 C 0,0 km/h (0 Bft) 95,65 %
29.03.2023 09:34 0,7 C 86 % 1026,1 hPa 0,0 l/m 0,0 km/h (0 Bft) N 0 0 min 0,000 mm 0,0 UV-I 40 W/m -1,4 C 0,7 C 0,0 km/h (0 Bft) 100,00 %
29.03.2023 09:33 0,7 C 85 % 1026,0 hPa 0,0 l/m 0,0 km/h (0 Bft) N-NO 22 0 min 0,000 mm 0,0 UV-I 39 W/m -1,5 C 0,7 C 1,6 km/h (1 Bft) 100,00 %
29.03.2023 09:32 0,7 C 85 % 1025,9 hPa 0,0 l/m 0,0 km/h (0 Bft) N-NO 22 0 min 0,000 mm 0,0 UV-I 39 W/m -1,5 C 0,7 C 1,6 km/h (1 Bft) 100,00 %
29.03.2023 09:31 0,7 C 85 % 1025,9 hPa 0,0 l/m 0,0 km/h (0 Bft) N-NO 22 0 min 0,000 mm 0,0 UV-I 39 W/m -1,5 C 0,7 C 1,6 km/h (1 Bft) 100,00 %
29.03.2023 09:30 0,8 C 86 % 1026,0 hPa 0,0 l/m 0,0 km/h (0 Bft) N 0 0 min 0,000 mm 0,0 UV-I 37 W/m -1,3 C 0,8 C 0,0 km/h (0 Bft) 95,65 %
29.03.2023 09:29 0,8 C 86 % 1026,0 hPa 0,0 l/m 0,0 km/h (0 Bft) N 0 0 min 0,000 mm 0,0 UV-I 37 W/m -1,3 C 0,8 C 0,0 km/h (0 Bft) 91,30 %
29.03.2023 09:28 0,7 C 85 % 1026,0 hPa 0,0 l/m 0,0 km/h (0 Bft) N-NO 22 0 min 0,000 mm 0,0 UV-I 42 W/m -1,5 C 0,7 C 1,6 km/h (1 Bft) 100,00 %
29.03.2023 09:27 0,7 C 85 % 1026,0 hPa 0,0 l/m 0,0 km/h (0 Bft) N-NO 22 0 min 0,000 mm 0,0 UV-I 40 W/m -1,5 C 0,7 C 1,6 km/h (1 Bft) 95,65 %
29.03.2023 09:26 0,7 C 85 % 1026,0 hPa 0,0 l/m 0,0 km/h (0 Bft) N-NO 22 0 min 0,000 mm 0,0 UV-I 40 W/m -1,5 C 0,7 C 1,6 km/h (1 Bft) 100,00 %
29.03.2023 09:25 0,7 C 85 % 1026,0 hPa 0,0 l/m 1,6 km/h (1 Bft) N-NO 22 0 min 0,000 mm 0,0 UV-I 28 W/m -1,5 C 0,7 C 3,2 km/h (1 Bft) 91,30 %
29.03.2023 09:24 0,7 C 85 % 1026,0 hPa 0,0 l/m 1,6 km/h (1 Bft) N-NO 22 0 min 0,000 mm 0,0 UV-I 28 W/m -1,5 C 0,7 C 3,2 km/h (1 Bft) 100,00 %
29.03.2023 09:23 0,7 C 85 % 1026,0 hPa 0,0 l/m 0,0 km/h (0 Bft) N-NO 22 0 min 0,000 mm 0,0 UV-I 28 W/m -1,5 C 0,7 C 1,6 km/h (1 Bft) 95,65 %
29.03.2023 09:22 0,7 C 84 % 1026,0 hPa 0,0 l/m 0,0 km/h (0 Bft) N 0 0 min 0,000 mm 0,0 UV-I 28 W/m -1,7 C 0,7 C 0,0 km/h (0 Bft) 95,65 %
29.03.2023 09:21 0,8 C 84 % 1026,0 hPa 0,0 l/m 0,0 km/h (0 Bft) N 0 0 min 0,000 mm 0,0 UV-I 28 W/m -1,6 C 0,8 C 0,0 km/h (0 Bft) 91,30 %
29.03.2023 09:20 0,8 C 84 % 1026,0 hPa 0,0 l/m 0,0 km/h (0 Bft) N-NO 22 0 min 0,000 mm 0,0 UV-I 25 W/m -1,6 C 0,8 C 1,6 km/h (1 Bft) 95,65 %
29.03.2023 09:19 0,8 C 83 % 1026,0 hPa 0,0 l/m 1,6 km/h (1 Bft) N-NO 22 0 min 0,000 mm 0,0 UV-I 23 W/m -1,8 C 0,8 C 1,6 km/h (1 Bft) 95,65 %
29.03.2023 09:18 0,8 C 84 % 1026,0 hPa 0,0 l/m 0,0 km/h (0 Bft) O-NO 67 0 min 0,000 mm 0,0 UV-I 21 W/m -1,6 C 0,8 C 1,6 km/h (1 Bft) 95,65 %
29.03.2023 09:17 0,9 C 83 % 1025,9 hPa 0,0 l/m 0,0 km/h (0 Bft) N 0 0 min 0,000 mm 0,0 UV-I 21 W/m -1,7 C 0,9 C 0,0 km/h (0 Bft) 100,00 %
29.03.2023 09:16 0,8 C 83 % 1025,9 hPa 0,0 l/m 0,0 km/h (0 Bft) O-NO 67 0 min 0,000 mm 0,0 UV-I 21 W/m -1,8 C 0,8 C 1,6 km/h (1 Bft) 95,65 %
29.03.2023 09:15 0,8 C 83 % 1025,9 hPa 0,0 l/m 0,0 km/h (0 Bft) O-NO 67 0 min 0,000 mm 0,0 UV-I 21 W/m -1,8 C 0,8 C 3,2 km/h (1 Bft) 100,00 %
29.03.2023 09:14 0,8 C 84 % 1026,1 hPa 0,0 l/m 1,6 km/h (1 Bft) O 90 0 min 0,000 mm 0,0 UV-I 21 W/m -1,6 C 0,8 C 1,6 km/h (1 Bft) 86,96 %
29.03.2023 09:13 0,8 C 84 % 1026,0 hPa 0,0 l/m 3,2 km/h (1 Bft) O 90 0 min 0,000 mm 0,0 UV-I 21 W/m -1,6 C 0,8 C 3,2 km/h (1 Bft) 95,65 %
29.03.2023 09:12 0,8 C 84 % 1026,0 hPa 0,0 l/m 1,6 km/h (1 Bft) O-SO 112 0 min 0,000 mm 0,0 UV-I 21 W/m -1,6 C 0,8 C 3,2 km/h (1 Bft) 91,30 %
29.03.2023 09:11 0,8 C 83 % 1026,0 hPa 0,0 l/m 1,6 km/h (1 Bft) SO 135 0 min 0,000 mm 0,0 UV-I 21 W/m -1,8 C 0,8 C 3,2 km/h (1 Bft) 100,00 %
29.03.2023 09:10 0,8 C 83 % 1026,0 hPa 0,0 l/m 0,0 km/h (0 Bft) N 0 0 min 0,000 mm 0,0 UV-I 30 W/m -1,8 C 0,8 C 0,0 km/h (0 Bft) 100,00 %
29.03.2023 09:09 0,8 C 83 % 1026,0 hPa 0,0 l/m 0,0 km/h (0 Bft) N 0 0 min 0,000 mm 0,0 UV-I 30 W/m -1,8 C 0,8 C 0,0 km/h (0 Bft) 100,00 %
29.03.2023 09:08 0,8 C 83 % 1025,9 hPa 0,0 l/m 0,0 km/h (0 Bft) N 0 0 min 0,000 mm 0,0 UV-I 30 W/m -1,8 C 0,8 C 0,0 km/h (0 Bft) 95,65 %
29.03.2023 09:07 0,8 C 83 % 1025,9 hPa 0,0 l/m 0,0 km/h (0 Bft) N 0 0 min 0,000 mm 0,0 UV-I 30 W/m -1,8 C 0,8 C 0,0 km/h (0 Bft) 95,65 %
29.03.2023 09:06 0,8 C 83 % 1025,9 hPa 0,0 l/m 0,0 km/h (0 Bft) SO 135 0 min 0,000 mm 0,0 UV-I 32 W/m -1,8 C 0,8 C 1,6 km/h (1 Bft) 100,00 %
29.03.2023 09:05 0,8 C 83 % 1025,9 hPa 0,0 l/m 0,0 km/h (0 Bft) SO 135 0 min 0,000 mm 0,0 UV-I 32 W/m -1,8 C 0,8 C 1,6 km/h (1 Bft) 100,00 %
29.03.2023 09:04 0,8 C 83 % 1025,8 hPa 0,0 l/m 0,0 km/h (0 Bft) N 0 0 min 0,000 mm 0,0 UV-I 30 W/m -1,8 C 0,8 C 0,0 km/h (0 Bft) 100,00 %
29.03.2023 09:03 0,8 C 83 % 1025,9 hPa 0,0 l/m 0,0 km/h (0 Bft) N 0 0 min 0,000 mm 0,0 UV-I 33 W/m -1,8 C 0,8 C 0,0 km/h (0 Bft) 100,00 %
29.03.2023 09:02 0,8 C 83 % 1025,9 hPa 0,0 l/m 0,0 km/h (0 Bft) N 0 0 min 0,000 mm 0,0 UV-I 33 W/m -1,8 C 0,8 C 0,0 km/h (0 Bft) 100,00 %
29.03.2023 09:01 0,8 C 83 % 1025,8 hPa 0,0 l/m 0,0 km/h (0 Bft) SO 135 0 min 0,000 mm 0,0 UV-I 33 W/m -1,8 C 0,8 C 1,6 km/h (1 Bft) 95,65 %
29.03.2023 09:00 0,8 C 84 % 1025,9 hPa 0,0 l/m 0,0 km/h (0 Bft) N 0 0 min 0,025 mm 0,0 UV-I 40 W/m -1,6 C 0,8 C 0,0 km/h (0 Bft) 95,65 %
29.03.2023 08:59 0,8 C 84 % 1025,8 hPa 0,0 l/m 0,0 km/h (0 Bft) SO 135 0 min 0,000 mm 0,0 UV-I 40 W/m -1,6 C 0,8 C 1,6 km/h (1 Bft) 95,65 %
29.03.2023 08:58 0,8 C 85 % 1025,8 hPa 0,0 l/m 0,0 km/h (0 Bft) SO 135 0 min 0,000 mm 0,0 UV-I 47 W/m -1,4 C 0,8 C 1,6 km/h (1 Bft) 100,00 %
29.03.2023 08:57 0,7 C 85 % 1025,9 hPa 0,0 l/m 0,0 km/h (0 Bft) N 0 0 min 0,000 mm 0,0 UV-I 49 W/m -1,5 C 0,7 C 0,0 km/h (0 Bft) 95,65 %
29.03.2023 08:56 0,7 C 85 % 1025,9 hPa 0,0 l/m 0,0 km/h (0 Bft) N 0 0 min 0,000 mm 0,0 UV-I 51 W/m -1,5 C 0,7 C 0,0 km/h (0 Bft) 100,00 %
29.03.2023 08:55 0,7 C 85 % 1025,9 hPa 0,0 l/m 0,0 km/h (0 Bft) N 0 0 min 0,000 mm 0,0 UV-I 51 W/m -1,5 C 0,7 C 0,0 km/h (0 Bft) 100,00 %
29.03.2023 08:54 0,7 C 85 % 1025,9 hPa 0,0 l/m 0,0 km/h (0 Bft) N 0 0 min 0,000 mm 0,0 UV-I 53 W/m -1,5 C 0,7 C 0,0 km/h (0 Bft) 100,00 %
29.03.2023 08:53 0,6 C 85 % 1025,8 hPa 0,0 l/m 0,0 km/h (0 Bft) N 0 0 min 0,000 mm 0,0 UV-I 54 W/m -1,6 C 0,6 C 0,0 km/h (0 Bft) 91,30 %
29.03.2023 08:52 0,6 C 85 % 1025,8 hPa 0,0 l/m 0,0 km/h (0 Bft) SO 135 0 min 0,000 mm 0,0 UV-I 56 W/m -1,6 C 0,6 C 1,6 km/h (1 Bft) 100,00 %
29.03.2023 08:51 0,6 C 85 % 1025,8 hPa 0,0 l/m 0,0 km/h (0 Bft) SO 135 0 min 0,000 mm 0,0 UV-I 56 W/m -1,6 C 0,6 C 1,6 km/h (1 Bft) 100,00 %
29.03.2023 08:50 0,6 C 86 % 1025,8 hPa 0,0 l/m 0,0 km/h (0 Bft) SO 135 0 min 0,000 mm 0,0 UV-I 56 W/m -1,5 C 0,6 C 1,6 km/h (1 Bft) 100,00 %
29.03.2023 08:49 0,6 C 86 % 1025,8 hPa 0,0 l/m 0,0 km/h (0 Bft) SO 135 0 min 0,000 mm 0,0 UV-I 54 W/m -1,5 C 0,6 C 1,6 km/h (1 Bft) 100,00 %
29.03.2023 08:48 0,6 C 86 % 1025,7 hPa 0,0 l/m 0,0 km/h (0 Bft) SO 135 0 min 0,000 mm 0,0 UV-I 54 W/m -1,5 C 0,6 C 1,6 km/h (1 Bft) 95,65 %
29.03.2023 08:47 0,6 C 86 % 1025,8 hPa 0,0 l/m 0,0 km/h (0 Bft) SO 135 0 min 0,000 mm 0,0 UV-I 54 W/m -1,5 C 0,6 C 1,6 km/h (1 Bft) 100,00 %
29.03.2023 08:46 0,6 C 86 % 1025,8 hPa 0,0 l/m 0,0 km/h (0 Bft) SO 135 0 min 0,000 mm 0,0 UV-I 53 W/m -1,5 C 0,6 C 1,6 km/h (1 Bft) 95,65 %
29.03.2023 08:45 0,6 C 86 % 1025,8 hPa 0,0 l/m 0,0 km/h (0 Bft) SO 135 0 min 0,000 mm 0,0 UV-I 53 W/m -1,5 C 0,6 C 1,6 km/h (1 Bft) 100,00 %
29.03.2023 08:44 0,6 C 86 % 1025,8 hPa 0,0 l/m 1,6 km/h (1 Bft) SO 135 0 min 0,000 mm 0,0 UV-I 51 W/m -1,5 C 0,6 C 1,6 km/h (1 Bft) 100,00 %
29.03.2023 08:43 0,6 C 86 % 1025,8 hPa 0,0 l/m 1,6 km/h (1 Bft) SO 135 0 min 0,000 mm 0,0 UV-I 47 W/m -1,5 C 0,6 C 1,6 km/h (1 Bft) 95,65 %
29.03.2023 08:42 0,6 C 85 % 1025,9 hPa 0,0 l/m 0,0 km/h (0 Bft) SO 135 0 min 0,000 mm 0,0 UV-I 46 W/m -1,6 C 0,6 C 1,6 km/h (1 Bft) 100,00 %
29.03.2023 08:41 0,6 C 85 % 1025,8 hPa 0,0 l/m 0,0 km/h (0 Bft) N 0 0 min 0,000 mm 0,0 UV-I 44 W/m -1,6 C 0,6 C 0,0 km/h (0 Bft) 100,00 %
29.03.2023 08:40 0,6 C 85 % 1025,8 hPa 0,0 l/m 0,0 km/h (0 Bft) SO 135 0 min 0,000 mm 0,0 UV-I 44 W/m -1,6 C 0,6 C 1,6 km/h (1 Bft) 100,00 %
29.03.2023 08:39 0,6 C 85 % 1025,9 hPa 0,0 l/m 0,0 km/h (0 Bft) SO 135 0 min 0,000 mm 0,0 UV-I 39 W/m -1,6 C 0,6 C 1,6 km/h (1 Bft) 95,65 %
29.03.2023 08:38 0,5 C 85 % 1025,8 hPa 0,0 l/m 0,0 km/h (0 Bft) N 0 0 min 0,000 mm 0,0 UV-I 37 W/m -1,7 C 0,5 C 0,0 km/h (0 Bft) 100,00 %
29.03.2023 08:37 0,5 C 85 % 1025,8 hPa 0,0 l/m 1,6 km/h (1 Bft) SO 135 0 min 0,000 mm 0,0 UV-I 35 W/m -1,7 C 0,5 C 3,2 km/h (1 Bft) 100,00 %
29.03.2023 08:36 0,4 C 86 % 1025,8 hPa 0,0 l/m 1,6 km/h (1 Bft) SO 135 0 min 0,000 mm 0,0 UV-I 37 W/m -1,7 C 0,4 C 3,2 km/h (1 Bft) 100,00 %
29.03.2023 08:35 0,4 C 86 % 1025,8 hPa 0,0 l/m 1,6 km/h (1 Bft) SO 135 0 min 0,000 mm 0,0 UV-I 37 W/m -1,7 C 0,4 C 3,2 km/h (1 Bft) 100,00 %
29.03.2023 08:34 0,4 C 86 % 1025,9 hPa 0,0 l/m 1,6 km/h (1 Bft) W-SW 247 0 min 0,000 mm 0,0 UV-I 39 W/m -1,7 C 0,4 C 3,2 km/h (1 Bft) 91,30 %
29.03.2023 08:33 0,4 C 86 % 1025,8 hPa 0,0 l/m 0,0 km/h (0 Bft) NW 315 0 min 0,000 mm 0,0 UV-I 39 W/m -1,7 C 0,4 C 1,6 km/h (1 Bft) 100,00 %
29.03.2023 08:32 0,4 C 86 % 1025,8 hPa 0,0 l/m 0,0 km/h (0 Bft) N 0 0 min 0,000 mm 0,0 UV-I 37 W/m -1,7 C 0,4 C 0,0 km/h (0 Bft) 95,65 %
29.03.2023 08:31 0,4 C 86 % 1025,8 hPa 0,0 l/m 0,0 km/h (0 Bft) NW 315 0 min 0,000 mm 0,0 UV-I 35 W/m -1,7 C 0,4 C 1,6 km/h (1 Bft) 100,00 %
29.03.2023 08:30 0,4 C 85 % 1025,8 hPa 0,0 l/m 1,6 km/h (1 Bft) NW 315 0 min 0,000 mm 0,0 UV-I 33 W/m -1,8 C 0,4 C 3,2 km/h (1 Bft) 100,00 %
29.03.2023 08:29 0,4 C 85 % 1025,8 hPa 0,0 l/m 3,2 km/h (1 Bft) NW 315 0 min 0,000 mm 0,0 UV-I 32 W/m -1,8 C 0,4 C 4,8 km/h (1 Bft) 100,00 %
29.03.2023 08:28 0,4 C 85 % 1025,7 hPa 0,0 l/m 1,6 km/h (1 Bft) NW 315 0 min 0,000 mm 0,0 UV-I 32 W/m -1,8 C 0,4 C 4,8 km/h (1 Bft) 100,00 %
29.03.2023 08:27 0,4 C 85 % 1025,8 hPa 0,0 l/m 0,0 km/h (0 Bft) N 0 0 min 0,000 mm 0,0 UV-I 32 W/m -1,8 C 0,4 C 0,0 km/h (0 Bft) 100,00 %
29.03.2023 08:26 0,4 C 84 % 1025,8 hPa 0,0 l/m 0,0 km/h (0 Bft) N 0 0 min 0,000 mm 0,0 UV-I 33 W/m -2,0 C 0,4 C 0,0 km/h (0 Bft) 95,65 %
29.03.2023 08:25 0,4 C 85 % 1025,7 hPa 0,0 l/m 0,0 km/h (0 Bft) N 0 0 min 0,000 mm 0,0 UV-I 33 W/m -1,8 C 0,4 C 0,0 km/h (0 Bft) 95,65 %
29.03.2023 08:24 0,4 C 85 % 1025,6 hPa 0,0 l/m 0,0 km/h (0 Bft) N 0 0 min 0,000 mm 0,0 UV-I 33 W/m -1,8 C 0,4 C 0,0 km/h (0 Bft) 95,65 %
29.03.2023 08:23 0,3 C 85 % 1025,7 hPa 0,0 l/m 0,0 km/h (0 Bft) N 0 0 min 0,000 mm 0,0 UV-I 32 W/m -1,9 C 0,3 C 0,0 km/h (0 Bft) 100,00 %
29.03.2023 08:22 0,3 C 85 % 1025,7 hPa 0,0 l/m 0,0 km/h (0 Bft) N 0 0 min 0,000 mm 0,0 UV-I 32 W/m -1,9 C 0,3 C 0,0 km/h (0 Bft) 95,65 %
29.03.2023 08:21 0,3 C 85 % 1025,6 hPa 0,0 l/m 0,0 km/h (0 Bft) N 0 0 min 0,000 mm 0,0 UV-I 30 W/m -1,9 C 0,3 C 0,0 km/h (0 Bft) 91,30 %
29.03.2023 08:20 0,3 C 85 % 1025,7 hPa 0,0 l/m 0,0 km/h (0 Bft) N 0 0 min 0,000 mm 0,0 UV-I 30 W/m -1,9 C 0,3 C 0,0 km/h (0 Bft) 100,00 %
29.03.2023 08:19 0,2 C 85 % 1025,6 hPa 0,0 l/m 0,0 km/h (0 Bft) N 0 0 min 0,000 mm 0,0 UV-I 30 W/m -2,0 C 0,2 C 0,0 km/h (0 Bft) 95,65 %
29.03.2023 08:18 0,2 C 85 % 1025,6 hPa 0,0 l/m 0,0 km/h (0 Bft) N 0 0 min 0,000 mm 0,0 UV-I 30 W/m -2,0 C 0,2 C 0,0 km/h (0 Bft) 91,30 %
29.03.2023 08:17 0,2 C 86 % 1025,6 hPa 0,0 l/m 0,0 km/h (0 Bft) N 0 0 min 0,000 mm 0,0 UV-I 30 W/m -1,9 C 0,2 C 0,0 km/h (0 Bft) 95,65 %
29.03.2023 08:16 0,2 C 86 % 1025,6 hPa 0,0 l/m 0,0 km/h (0 Bft) N 0 0 min 0,000 mm 0,0 UV-I 30 W/m -1,9 C 0,2 C 0,0 km/h (0 Bft) 100,00 %
29.03.2023 08:15 0,1 C 86 % 1025,6 hPa 0,0 l/m 0,0 km/h (0 Bft) N 0 0 min 0,000 mm 0,0 UV-I 32 W/m -2,0 C 0,1 C 0,0 km/h (0 Bft) 95,65 %
29.03.2023 08:14 0,1 C 86 % 1025,6 hPa 0,0 l/m 0,0 km/h (0 Bft) N 0 0 min 0,000 mm 0,0 UV-I 33 W/m -2,0 C 0,1 C 0,0 km/h (0 Bft) 95,65 %
29.03.2023 08:13 0,1 C 86 % 1025,6 hPa 0,0 l/m 0,0 km/h (0 Bft) N 0 0 min 0,000 mm 0,0 UV-I 35 W/m -2,0 C 0,1 C 0,0 km/h (0 Bft) 95,65 %
29.03.2023 08:12 0,0 C 86 % 1025,6 hPa 0,0 l/m 0,0 km/h (0 Bft) N 0 0 min 0,000 mm 0,0 UV-I 37 W/m -2,1 C 0,0 C 0,0 km/h (0 Bft) 95,65 %
29.03.2023 08:11 0,0 C 86 % 1025,5 hPa 0,0 l/m 0,0 km/h (0 Bft) N 0 0 min 0,000 mm 0,0 UV-I 39 W/m -2,1 C 0,0 C 0,0 km/h (0 Bft) 95,65 %
29.03.2023 08:10 -0,1 C 86 % 1025,6 hPa 0,0 l/m 0,0 km/h (0 Bft) N 0 0 min 0,000 mm 0,0 UV-I 39 W/m -2,2 C -0,1 C 0,0 km/h (0 Bft) 91,30 %
29.03.2023 08:09 -0,1 C 86 % 1025,4 hPa 0,0 l/m 0,0 km/h (0 Bft) N 0 0 min 0,000 mm 0,0 UV-I 40 W/m -2,2 C -0,1 C 0,0 km/h (0 Bft) 100,00 %
29.03.2023 08:08 -0,1 C 86 % 1025,5 hPa 0,0 l/m 0,0 km/h (0 Bft) N 0 0 min 0,000 mm 0,0 UV-I 40 W/m -2,2 C -0,1 C 0,0 km/h (0 Bft) 95,65 %
29.03.2023 08:07 -0,1 C 86 % 1025,3 hPa 0,0 l/m 0,0 km/h (0 Bft) N 0 0 min 0,000 mm 0,0 UV-I 40 W/m -2,2 C -0,1 C 0,0 km/h (0 Bft) 100,00 %
29.03.2023 08:06 -0,2 C 86 % 1025,2 hPa 0,0 l/m 0,0 km/h (0 Bft) N 0 0 min 0,000 mm 0,0 UV-I 40 W/m -2,3 C -0,2 C 0,0 km/h (0 Bft) 95,65 %
29.03.2023 08:05 -0,2 C 85 % 1025,3 hPa 0,0 l/m 0,0 km/h (0 Bft) N 0 0 min 0,000 mm 0,0 UV-I 40 W/m -2,4 C -0,2 C 0,0 km/h (0 Bft) 95,65 %
29.03.2023 08:04 -0,2 C 86 % 1025,4 hPa 0,0 l/m 0,0 km/h (0 Bft) N 0 0 min 0,000 mm 0,0 UV-I 40 W/m -2,3 C -0,2 C 0,0 km/h (0 Bft) 91,30 %
29.03.2023 08:03 -0,2 C 85 % 1025,5 hPa 0,0 l/m 0,0 km/h (0 Bft) N 0 0 min 0,000 mm 0,0 UV-I 37 W/m -2,4 C -0,2 C 0,0 km/h (0 Bft) 100,00 %
29.03.2023 08:02 -0,2 C 85 % 1025,5 hPa 0,0 l/m 0,0 km/h (0 Bft) N 0 0 min 0,000 mm 0,0 UV-I 35 W/m -2,4 C -0,2 C 0,0 km/h (0 Bft) 100,00 %
29.03.2023 08:01 -0,2 C 85 % 1025,3 hPa 0,0 l/m 0,0 km/h (0 Bft) N 0 0 min 0,000 mm 0,0 UV-I 33 W/m -2,4 C -0,2 C 0,0 km/h (0 Bft) 100,00 %
29.03.2023 08:00 -0,2 C 85 % 1025,3 hPa 0,0 l/m 0,0 km/h (0 Bft) N 0 0 min 0,000 mm 0,0 UV-I 33 W/m -2,4 C -0,2 C 0,0 km/h (0 Bft) 100,00 %
29.03.2023 07:59 -0,2 C 86 % 1025,4 hPa 0,0 l/m 0,0 km/h (0 Bft) N 0 0 min 0,000 mm 0,0 UV-I 32 W/m -2,3 C -0,2 C 0,0 km/h (0 Bft) 95,65 %
29.03.2023 07:58 -0,2 C 86 % 1025,5 hPa 0,0 l/m 0,0 km/h (0 Bft) N 0 0 min 0,000 mm 0,0 UV-I 28 W/m -2,3 C -0,2 C 0,0 km/h (0 Bft) 100,00 %
29.03.2023 07:57 -0,2 C 86 % 1025,5 hPa 0,0 l/m 0,0 km/h (0 Bft) N 0 0 min 0,000 mm 0,0 UV-I 26 W/m -2,3 C -0,2 C 0,0 km/h (0 Bft) 91,30 %
29.03.2023 07:56 -0,2 C 86 % 1025,5 hPa 0,0 l/m 0,0 km/h (0 Bft) N 0 0 min 0,000 mm 0,0 UV-I 25 W/m -2,3 C -0,2 C 0,0 km/h (0 Bft) 100,00 %
29.03.2023 07:55 -0,2 C 86 % 1025,5 hPa 0,0 l/m 0,0 km/h (0 Bft) N 0 0 min 0,000 mm 0,0 UV-I 23 W/m -2,3 C -0,2 C 0,0 km/h (0 Bft) 100,00 %
29.03.2023 07:54 -0,2 C 86 % 1025,4 hPa 0,0 l/m 0,0 km/h (0 Bft) N 0 0 min 0,000 mm 0,0 UV-I 23 W/m -2,3 C -0,2 C 0,0 km/h (0 Bft) 95,65 %
29.03.2023 07:53 -0,2 C 86 % 1025,6 hPa 0,0 l/m 0,0 km/h (0 Bft) N 0 0 min 0,000 mm 0,0 UV-I 23 W/m -2,3 C -0,2 C 0,0 km/h (0 Bft) 100,00 %
29.03.2023 07:52 -0,2 C 86 % 1025,6 hPa 0,0 l/m 0,0 km/h (0 Bft) N 0 0 min 0,000 mm 0,0 UV-I 21 W/m -2,3 C -0,2 C 0,0 km/h (0 Bft) 95,65 %
29.03.2023 07:51 -0,3 C 86 % 1025,6 hPa 0,0 l/m 0,0 km/h (0 Bft) N 0 0 min 0,000 mm 0,0 UV-I 19 W/m -2,3 C -0,3 C 0,0 km/h (0 Bft) 100,00 %
29.03.2023 07:50 -0,3 C 86 % 1025,6 hPa 0,0 l/m 0,0 km/h (0 Bft) N 0 0 min 0,000 mm 0,0 UV-I 19 W/m -2,3 C -0,3 C 0,0 km/h (0 Bft) 95,65 %
29.03.2023 07:49 -0,3 C 85 % 1025,7 hPa 0,0 l/m 0,0 km/h (0 Bft) N 0 0 min 0,000 mm 0,0 UV-I 18 W/m -2,5 C -0,3 C 0,0 km/h (0 Bft) 95,65 %
29.03.2023 07:48 -0,3 C 85 % 1025,7 hPa 0,0 l/m 0,0 km/h (0 Bft) N 0 0 min 0,000 mm 0,0 UV-I 16 W/m -2,5 C -0,3 C 0,0 km/h (0 Bft) 100,00 %
29.03.2023 07:47 -0,3 C 86 % 1025,7 hPa 0,0 l/m 0,0 km/h (0 Bft) N 0 0 min 0,000 mm 0,0 UV-I 14 W/m -2,3 C -0,3 C 0,0 km/h (0 Bft) 95,65 %
29.03.2023 07:46 -0,3 C 85 % 1025,9 hPa 0,0 l/m 0,0 km/h (0 Bft) N 0 0 min 0,000 mm 0,0 UV-I 12 W/m -2,5 C -0,3 C 0,0 km/h (0 Bft) 100,00 %
29.03.2023 07:45 -0,3 C 85 % 1025,9 hPa 0,0 l/m 0,0 km/h (0 Bft) N 0 0 min 0,000 mm 0,0 UV-I 11 W/m -2,5 C -0,3 C 0,0 km/h (0 Bft) 91,30 %
29.03.2023 07:44 -0,3 C 85 % 1025,9 hPa 0,0 l/m 0,0 km/h (0 Bft) N 0 0 min 0,000 mm 0,0 UV-I 11 W/m -2,5 C -0,3 C 0,0 km/h (0 Bft) 100,00 %
29.03.2023 07:43 -0,3 C 85 % 1025,9 hPa 0,0 l/m 0,0 km/h (0 Bft) N 0 0 min 0,000 mm 0,0 UV-I 9 W/m -2,5 C -0,3 C 0,0 km/h (0 Bft) 95,65 %
29.03.2023 07:42 -0,3 C 85 % 1025,9 hPa 0,0 l/m 0,0 km/h (0 Bft) N 0 0 min 0,000 mm 0,0 UV-I 9 W/m -2,5 C -0,3 C 0,0 km/h (0 Bft) 100,00 %
29.03.2023 07:41 -0,3 C 86 % 1025,9 hPa 0,0 l/m 0,0 km/h (0 Bft) N 0 0 min 0,000 mm 0,0 UV-I 7 W/m -2,3 C -0,3 C 0,0 km/h (0 Bft) 100,00 %
29.03.2023 07:40 -0,3 C 86 % 1026,0 hPa 0,0 l/m 0,0 km/h (0 Bft) N 0 0 min 0,000 mm 0,0 UV-I 9 W/m -2,3 C -0,3 C 0,0 km/h (0 Bft) 100,00 %
29.03.2023 07:39 -0,3 C 85 % 1026,0 hPa 0,0 l/m 0,0 km/h (0 Bft) N 0 0 min 0,000 mm 0,0 UV-I 9 W/m -2,5 C -0,3 C 0,0 km/h (0 Bft) 100,00 %
29.03.2023 07:38 -0,4 C 85 % 1026,0 hPa 0,0 l/m 0,0 km/h (0 Bft) N 0 0 min 0,000 mm 0,0 UV-I 9 W/m -2,6 C -0,4 C 0,0 km/h (0 Bft) 100,00 %
29.03.2023 07:37 -0,3 C 85 % 1026,0 hPa 0,0 l/m 0,0 km/h (0 Bft) N 0 0 min 0,000 mm 0,0 UV-I 9 W/m -2,5 C -0,3 C 0,0 km/h (0 Bft) 95,65 %
29.03.2023 07:36 -0,3 C 85 % 1026,0 hPa 0,0 l/m 0,0 km/h (0 Bft) N 0 0 min 0,000 mm 0,0 UV-I 9 W/m -2,5 C -0,3 C 0,0 km/h (0 Bft) 95,65 %
29.03.2023 07:35 -0,4 C 85 % 1026,0 hPa 0,0 l/m 0,0 km/h (0 Bft) N 0 0 min 0,000 mm 0,0 UV-I 9 W/m -2,6 C -0,4 C 0,0 km/h (0 Bft) 100,00 %
29.03.2023 07:34 -0,4 C 85 % 1026,0 hPa 0,0 l/m 0,0 km/h (0 Bft) N 0 0 min 0,000 mm 0,0 UV-I 9 W/m -2,6 C -0,4 C 0,0 km/h (0 Bft) 100,00 %
29.03.2023 07:33 -0,3 C 85 % 1026,0 hPa 0,0 l/m 0,0 km/h (0 Bft) N 0 0 min 0,000 mm 0,0 UV-I 7 W/m -2,5 C -0,3 C 0,0 km/h (0 Bft) 100,00 %
29.03.2023 07:32 -0,4 C 85 % 1026,0 hPa 0,0 l/m 0,0 km/h (0 Bft) N 0 0 min 0,000 mm 0,0 UV-I 7 W/m -2,6 C -0,4 C 0,0 km/h (0 Bft) 95,65 %
29.03.2023 07:31 -0,4 C 85 % 1026,0 hPa 0,0 l/m 0,0 km/h (0 Bft) N 0 0 min 0,000 mm 0,0 UV-I 7 W/m -2,6 C -0,4 C 0,0 km/h (0 Bft) 91,30 %
29.03.2023 07:30 -0,4 C 85 % 1026,0 hPa 0,0 l/m 0,0 km/h (0 Bft) N 0 0 min 0,000 mm 0,0 UV-I 7 W/m -2,6 C -0,4 C 0,0 km/h (0 Bft) 100,00 %
29.03.2023 07:29 -0,4 C 85 % 1026,0 hPa 0,0 l/m 0,0 km/h (0 Bft) N 0 0 min 0,000 mm 0,0 UV-I 7 W/m -2,6 C -0,4 C 0,0 km/h (0 Bft) 95,65 %
29.03.2023 07:28 -0,4 C 85 % 1026,0 hPa 0,0 l/m 0,0 km/h (0 Bft) N 0 0 min 0,000 mm 0,0 UV-I 5 W/m -2,6 C -0,4 C 0,0 km/h (0 Bft) 91,30 %
29.03.2023 07:27 -0,4 C 86 % 1026,0 hPa 0,0 l/m 0,0 km/h (0 Bft) N 0 0 min 0,000 mm 0,0 UV-I 5 W/m -2,4 C -0,4 C 0,0 km/h (0 Bft) 100,00 %
29.03.2023 07:26 -0,4 C 85 % 1026,0 hPa 0,0 l/m 0,0 km/h (0 Bft) N 0 0 min 0,000 mm 0,0 UV-I 5 W/m -2,6 C -0,4 C 0,0 km/h (0 Bft) 100,00 %
29.03.2023 07:25 -0,4 C 85 % 1026,1 hPa 0,0 l/m 0,0 km/h (0 Bft) N 0 0 min 0,000 mm 0,0 UV-I 5 W/m -2,6 C -0,4 C 0,0 km/h (0 Bft) 100,00 %
29.03.2023 07:24 -0,4 C 85 % 1026,0 hPa 0,0 l/m 0,0 km/h (0 Bft) N 0 0 min 0,000 mm 0,0 UV-I 5 W/m -2,6 C -0,4 C 0,0 km/h (0 Bft) 100,00 %
29.03.2023 07:23 -0,4 C 85 % 1026,0 hPa 0,0 l/m 0,0 km/h (0 Bft) N 0 0 min 0,000 mm 0,0 UV-I 5 W/m -2,6 C -0,4 C 0,0 km/h (0 Bft) 95,65 %
29.03.2023 07:22 -0,4 C 85 % 1026,1 hPa 0,0 l/m 0,0 km/h (0 Bft) N 0 0 min 0,000 mm 0,0 UV-I 5 W/m -2,6 C -0,4 C 0,0 km/h (0 Bft) 95,65 %
29.03.2023 07:21 -0,4 C 85 % 1026,0 hPa 0,0 l/m 0,0 km/h (0 Bft) N 0 0 min 0,000 mm 0,0 UV-I 5 W/m -2,6 C -0,4 C 0,0 km/h (0 Bft) 100,00 %
29.03.2023 07:20 -0,4 C 85 % 1026,0 hPa 0,0 l/m 0,0 km/h (0 Bft) N 0 0 min 0,000 mm 0,0 UV-I 5 W/m -2,6 C -0,4 C 0,0 km/h (0 Bft) 95,65 %
29.03.2023 07:19 -0,4 C 85 % 1026,0 hPa 0,0 l/m 0,0 km/h (0 Bft) S-SW 202 0 min 0,000 mm 0,0 UV-I 5 W/m -2,6 C -0,4 C 1,6 km/h (1 Bft) 100,00 %
29.03.2023 07:18 -0,4 C 86 % 1026,0 hPa 0,0 l/m 0,0 km/h (0 Bft) S-SW 202 0 min 0,000 mm 0,0 UV-I 5 W/m -2,4 C -0,4 C 1,6 km/h (1 Bft) 95,65 %
29.03.2023 07:17 -0,4 C 85 % 1026,0 hPa 0,0 l/m 0,0 km/h (0 Bft) N 0 0 min 0,000 mm 0,0 UV-I 0 W/m -2,6 C -0,4 C 0,0 km/h (0 Bft) 100,00 %
29.03.2023 07:16 -0,4 C 85 % 1026,0 hPa 0,0 l/m 0,0 km/h (0 Bft) N 0 0 min 0,000 mm 0,0 UV-I 0 W/m -2,6 C -0,4 C 0,0 km/h (0 Bft) 95,65 %
29.03.2023 07:15 -0,4 C 85 % 1026,0 hPa 0,0 l/m 0,0 km/h (0 Bft) N 0 0 min 0,000 mm 0,0 UV-I 0 W/m -2,6 C -0,4 C 0,0 km/h (0 Bft) 95,65 %
29.03.2023 07:14 -0,4 C 85 % 1026,1 hPa 0,0 l/m 0,0 km/h (0 Bft) N 0 0 min 0,000 mm 0,0 UV-I 0 W/m -2,6 C -0,4 C 0,0 km/h (0 Bft) 95,65 %
29.03.2023 07:13 -0,4 C 85 % 1026,0 hPa 0,0 l/m 0,0 km/h (0 Bft) N 0 0 min 0,000 mm 0,0 UV-I 0 W/m -2,6 C -0,4 C 0,0 km/h (0 Bft) 95,65 %
29.03.2023 07:12 -0,4 C 85 % 1026,0 hPa 0,0 l/m 0,0 km/h (0 Bft) N 0 0 min 0,000 mm 0,0 UV-I 0 W/m -2,6 C -0,4 C 0,0 km/h (0 Bft) 86,96 %
29.03.2023 07:11 -0,4 C 85 % 1026,0 hPa 0,0 l/m 0,0 km/h (0 Bft) N 0 0 min 0,000 mm 0,0 UV-I 0 W/m -2,6 C -0,4 C 0,0 km/h (0 Bft) 95,65 %
29.03.2023 07:10 -0,4 C 85 % 1026,1 hPa 0,0 l/m 0,0 km/h (0 Bft) N 0 0 min 0,000 mm 0,0 UV-I 0 W/m -2,6 C -0,4 C 0,0 km/h (0 Bft) 100,00 %
29.03.2023 07:09 -0,4 C 85 % 1026,1 hPa 0,0 l/m 0,0 km/h (0 Bft) S-SW 202 0 min 0,000 mm 0,0 UV-I 0 W/m -2,6 C -0,4 C 1,6 km/h (1 Bft) 95,65 %
29.03.2023 07:08 -0,4 C 85 % 1026,1 hPa 0,0 l/m 1,6 km/h (1 Bft) S-SW 202 0 min 0,000 mm 0,0 UV-I 0 W/m -2,6 C -0,4 C 1,6 km/h (1 Bft) 95,65 %
29.03.2023 07:07 -0,4 C 85 % 1026,1 hPa 0,0 l/m 0,0 km/h (0 Bft) S-SW 202 0 min 0,000 mm 0,0 UV-I 0 W/m -2,6 C -0,4 C 1,6 km/h (1 Bft) 91,30 %
29.03.2023 07:06 -0,4 C 85 % 1026,1 hPa 0,0 l/m 0,0 km/h (0 Bft) S-SW 202 0 min 0,000 mm 0,0 UV-I 0 W/m -2,6 C -0,4 C 1,6 km/h (1 Bft) 100,00 %
29.03.2023 07:05 -0,4 C 85 % 1026,1 hPa 0,0 l/m 0,0 km/h (0 Bft) N 0 0 min 0,000 mm 0,0 UV-I 0 W/m -2,6 C -0,4 C 0,0 km/h (0 Bft) 95,65 %
29.03.2023 07:04 -0,3 C 85 % 1026,2 hPa 0,0 l/m 0,0 km/h (0 Bft) N 0 0 min 0,000 mm 0,0 UV-I 0 W/m -2,5 C -0,3 C 0,0 km/h (0 Bft) 100,00 %
29.03.2023 07:03 -0,3 C 85 % 1026,2 hPa 0,0 l/m 0,0 km/h (0 Bft) S-SW 202 0 min 0,000 mm 0,0 UV-I 0 W/m -2,5 C -0,3 C 1,6 km/h (1 Bft) 95,65 %
29.03.2023 07:02 -0,4 C 84 % 1026,1 hPa 0,0 l/m 1,6 km/h (1 Bft) S-SW 202 0 min 0,000 mm 0,0 UV-I 0 W/m -2,8 C -0,4 C 3,2 km/h (1 Bft) 95,65 %
29.03.2023 07:01 -0,4 C 84 % 1026,2 hPa 0,0 l/m 0,0 km/h (0 Bft) N 0 0 min 0,000 mm 0,0 UV-I 0 W/m -2,8 C -0,4 C 0,0 km/h (0 Bft) 95,65 %
29.03.2023 07:00 -0,4 C 84 % 1026,3 hPa 0,0 l/m 0,0 km/h (0 Bft) S-SW 202 0 min 0,000 mm 0,0 UV-I 0 W/m -2,8 C -0,4 C 1,6 km/h (1 Bft) 95,65 %
29.03.2023 06:59 -0,4 C 84 % 1026,2 hPa 0,0 l/m 1,6 km/h (1 Bft) S-SW 202 0 min 0,000 mm 0,0 UV-I 0 W/m -2,8 C -0,4 C 3,2 km/h (1 Bft) 95,65 %
29.03.2023 06:58 -0,4 C 85 % 1026,2 hPa 0,0 l/m 1,6 km/h (1 Bft) W-SW 247 0 min 0,000 mm 0,0 UV-I 0 W/m -2,6 C -0,4 C 3,2 km/h (1 Bft) 100,00 %
29.03.2023 06:57 -0,5 C 86 % 1026,3 hPa 0,0 l/m 0,0 km/h (0 Bft) S-SW 202 0 min 0,000 mm 0,0 UV-I 0 W/m -2,5 C -0,5 C 1,6 km/h (1 Bft) 95,65 %
29.03.2023 06:56 -0,4 C 86 % 1026,3 hPa 0,0 l/m 1,6 km/h (1 Bft) S-SW 202 0 min 0,000 mm 0,0 UV-I 0 W/m -2,4 C -0,4 C 3,2 km/h (1 Bft) 95,65 %
29.03.2023 06:55 -0,4 C 86 % 1026,3 hPa 0,0 l/m 1,6 km/h (1 Bft) S-SW 202 0 min 0,000 mm 0,0 UV-I 0 W/m -2,4 C -0,4 C 3,2 km/h (1 Bft) 95,65 %
29.03.2023 06:54 -0,4 C 85 % 1026,2 hPa 0,0 l/m 3,2 km/h (1 Bft) S-SW 202 0 min 0,000 mm 0,0 UV-I 0 W/m -2,6 C -0,4 C 3,2 km/h (1 Bft) 95,65 %
29.03.2023 06:53 -0,4 C 85 % 1026,3 hPa 0,0 l/m 0,0 km/h (0 Bft) W-SW 247 0 min 0,000 mm 0,0 UV-I 0 W/m -2,6 C -0,4 C 1,6 km/h (1 Bft) 91,30 %
29.03.2023 06:52 -0,5 C 85 % 1026,2 hPa 0,0 l/m 0,0 km/h (0 Bft) W-SW 247 0 min 0,000 mm 0,0 UV-I 0 W/m -2,7 C -0,5 C 1,6 km/h (1 Bft) 100,00 %
29.03.2023 06:51 -0,5 C 85 % 1026,2 hPa 0,0 l/m 0,0 km/h (0 Bft) W-SW 247 0 min 0,000 mm 0,0 UV-I 0 W/m -2,7 C -0,5 C 1,6 km/h (1 Bft) 100,00 %
29.03.2023 06:50 -0,5 C 85 % 1026,3 hPa 0,0 l/m 0,0 km/h (0 Bft) W-SW 247 0 min 0,000 mm 0,0 UV-I 0 W/m -2,7 C -0,5 C 1,6 km/h (1 Bft) 100,00 %
29.03.2023 06:49 -0,5 C 85 % 1026,3 hPa 0,0 l/m 1,6 km/h (1 Bft) W-SW 247 0 min 0,000 mm 0,0 UV-I 0 W/m -2,7 C -0,5 C 3,2 km/h (1 Bft) 100,00 %
29.03.2023 06:48 -0,4 C 85 % 1026,4 hPa 0,0 l/m 1,6 km/h (1 Bft) W-SW 247 0 min 0,000 mm 0,0 UV-I 0 W/m -2,6 C -0,4 C 3,2 km/h (1 Bft) 100,00 %
29.03.2023 06:47 -0,4 C 85 % 1026,3 hPa 0,0 l/m 4,8 km/h (1 Bft) W-SW 247 0 min 0,000 mm 0,0 UV-I 0 W/m -2,6 C -1,9 C 6,4 km/h (2 Bft) 95,65 %
29.03.2023 06:46 -0,4 C 85 % 1026,4 hPa 0,0 l/m 4,8 km/h (1 Bft) SW 225 0 min 0,000 mm 0,0 UV-I 0 W/m -2,6 C -1,9 C 6,4 km/h (2 Bft) 100,00 %
29.03.2023 06:45 -0,4 C 86 % 1026,4 hPa 0,0 l/m 3,2 km/h (1 Bft) W-SW 247 0 min 0,000 mm 0,0 UV-I 0 W/m -2,4 C -0,4 C 6,4 km/h (2 Bft) 95,65 %
29.03.2023 06:44 -0,4 C 85 % 1026,3 hPa 0,0 l/m 1,6 km/h (1 Bft) W 270 0 min 0,000 mm 0,0 UV-I 0 W/m -2,6 C -0,4 C 3,2 km/h (1 Bft) 100,00 %
29.03.2023 06:43 -0,4 C 85 % 1026,3 hPa 0,0 l/m 1,6 km/h (1 Bft) W 270 0 min 0,000 mm 0,0 UV-I 0 W/m -2,6 C -0,4 C 3,2 km/h (1 Bft) 100,00 %
29.03.2023 06:42 -0,4 C 85 % 1026,3 hPa 0,0 l/m 1,6 km/h (1 Bft) S-SW 202 0 min 0,000 mm 0,0 UV-I 0 W/m -2,6 C -0,4 C 3,2 km/h (1 Bft) 100,00 %
29.03.2023 06:41 -0,4 C 85 % 1026,4 hPa 0,0 l/m 0,0 km/h (0 Bft) S-SW 202 0 min 0,000 mm 0,0 UV-I 0 W/m -2,6 C -0,4 C 1,6 km/h (1 Bft) 100,00 %
29.03.2023 06:40 -0,4 C 85 % 1026,3 hPa 0,0 l/m 1,6 km/h (1 Bft) S-SW 202 0 min 0,000 mm 0,0 UV-I 0 W/m -2,6 C -0,4 C 1,6 km/h (1 Bft) 95,65 %
29.03.2023 06:39 -0,4 C 85 % 1026,4 hPa 0,0 l/m 1,6 km/h (1 Bft) SW 225 0 min 0,000 mm 0,0 UV-I 0 W/m -2,6 C -0,4 C 3,2 km/h (1 Bft) 100,00 %
29.03.2023 06:38 -0,4 C 85 % 1026,4 hPa 0,0 l/m 0,0 km/h (0 Bft) W-NW 292 0 min 0,000 mm 0,0 UV-I 0 W/m -2,6 C -0,4 C 1,6 km/h (1 Bft) 95,65 %
29.03.2023 06:37 -0,4 C 85 % 1026,4 hPa 0,0 l/m 0,0 km/h (0 Bft) N 0 0 min 0,000 mm 0,0 UV-I 0 W/m -2,6 C -0,4 C 0,0 km/h (0 Bft) 100,00 %
29.03.2023 06:36 -0,4 C 85 % 1026,6 hPa 0,0 l/m 0,0 km/h (0 Bft) N 0 0 min 0,000 mm 0,0 UV-I 0 W/m -2,6 C -0,4 C 0,0 km/h (0 Bft) 100,00 %
29.03.2023 06:35 -0,4 C 85 % 1026,5 hPa 0,0 l/m 0,0 km/h (0 Bft) NW 315 0 min 0,000 mm 0,0 UV-I 0 W/m -2,6 C -0,4 C 1,6 km/h (1 Bft) 100,00 %
29.03.2023 06:34 -0,4 C 85 % 1026,6 hPa 0,0 l/m 1,6 km/h (1 Bft) NW 315 0 min 0,000 mm 0,0 UV-I 0 W/m -2,6 C -0,4 C 3,2 km/h (1 Bft) 100,00 %
29.03.2023 06:33 -0,4 C 84 % 1026,7 hPa 0,0 l/m 1,6 km/h (1 Bft) NW 315 0 min 0,000 mm 0,0 UV-I 0 W/m -2,8 C -0,4 C 3,2 km/h (1 Bft) 95,65 %
29.03.2023 06:32 -0,4 C 84 % 1026,6 hPa 0,0 l/m 3,2 km/h (1 Bft) NW 315 0 min 0,000 mm 0,0 UV-I 0 W/m -2,8 C -0,4 C 4,8 km/h (1 Bft) 91,30 %
29.03.2023 06:31 -0,4 C 84 % 1026,7 hPa 0,0 l/m 0,0 km/h (0 Bft) S-SO 157 0 min 0,000 mm 0,0 UV-I 0 W/m -2,8 C -0,4 C 1,6 km/h (1 Bft) 95,65 %
29.03.2023 06:30 -0,4 C 84 % 1026,5 hPa 0,0 l/m 1,6 km/h (1 Bft) S-SO 157 0 min 0,000 mm 0,0 UV-I 0 W/m -2,8 C -0,4 C 1,6 km/h (1 Bft) 100,00 %
29.03.2023 06:29 -0,4 C 84 % 1026,6 hPa 0,0 l/m 0,0 km/h (0 Bft) S-SO 157 0 min 0,000 mm 0,0 UV-I 0 W/m -2,8 C -0,4 C 1,6 km/h (1 Bft) 95,65 %
29.03.2023 06:28 -0,4 C 85 % 1026,7 hPa 0,0 l/m 0,0 km/h (0 Bft) S-SO 157 0 min 0,000 mm 0,0 UV-I 0 W/m -2,6 C -0,4 C 1,6 km/h (1 Bft) 95,65 %
29.03.2023 06:27 -0,4 C 85 % 1026,6 hPa 0,0 l/m 0,0 km/h (0 Bft) S-SO 157 0 min 0,000 mm 0,0 UV-I 0 W/m -2,6 C -0,4 C 1,6 km/h (1 Bft) 100,00 %
29.03.2023 06:26 -0,4 C 84 % 1026,6 hPa 0,0 l/m 0,0 km/h (0 Bft) S-SO 157 0 min 0,000 mm 0,0 UV-I 0 W/m -2,8 C -0,4 C 1,6 km/h (1 Bft) 95,65 %
29.03.2023 06:25 -0,4 C 84 % 1026,6 hPa 0,0 l/m 0,0 km/h (0 Bft) S-SO 157 0 min 0,000 mm 0,0 UV-I 0 W/m -2,8 C -0,4 C 1,6 km/h (1 Bft) 95,65 %
29.03.2023 06:24 -0,3 C 84 % 1026,6 hPa 0,0 l/m 1,6 km/h (1 Bft) S-SO 157 0 min 0,000 mm 0,0 UV-I 0 W/m -2,7 C -0,3 C 1,6 km/h (1 Bft) 95,65 %
29.03.2023 06:23 -0,4 C 84 % 1026,4 hPa 0,0 l/m 1,6 km/h (1 Bft) O-SO 112 0 min 0,000 mm 0,0 UV-I 0 W/m -2,8 C -0,4 C 3,2 km/h (1 Bft) 100,00 %
29.03.2023 06:22 -0,3 C 85 % 1026,4 hPa 0,0 l/m 1,6 km/h (1 Bft) O-SO 112 0 min 0,000 mm 0,0 UV-I 0 W/m -2,5 C -0,3 C 3,2 km/h (1 Bft) 100,00 %
29.03.2023 06:21 -0,3 C 84 % 1026,5 hPa 0,0 l/m 1,6 km/h (1 Bft) O-SO 112 0 min 0,000 mm 0,0 UV-I 0 W/m -2,7 C -0,3 C 3,2 km/h (1 Bft) 100,00 %
29.03.2023 06:20 -0,3 C 84 % 1026,5 hPa 0,0 l/m 1,6 km/h (1 Bft) NO 45 0 min 0,000 mm 0,0 UV-I 0 W/m -2,7 C -0,3 C 3,2 km/h (1 Bft) 100,00 %
29.03.2023 06:19 -0,4 C 84 % 1026,5 hPa 0,0 l/m 1,6 km/h (1 Bft) N 360 0 min 0,000 mm 0,0 UV-I 0 W/m -2,8 C -0,4 C 1,6 km/h (1 Bft) 95,65 %
29.03.2023 06:18 -0,4 C 84 % 1026,7 hPa 0,0 l/m 0,0 km/h (0 Bft) N 360 0 min 0,000 mm 0,0 UV-I 0 W/m -2,8 C -0,4 C 1,6 km/h (1 Bft) 100,00 %
29.03.2023 06:17 -0,4 C 84 % 1026,6 hPa 0,0 l/m 0,0 km/h (0 Bft) N 360 0 min 0,000 mm 0,0 UV-I 0 W/m -2,8 C -0,4 C 1,6 km/h (1 Bft) 100,00 %
29.03.2023 06:16 -0,4 C 84 % 1026,7 hPa 0,0 l/m 0,0 km/h (0 Bft) N 0 0 min 0,000 mm 0,0 UV-I 0 W/m -2,8 C -0,4 C 0,0 km/h (0 Bft) 95,65 %
29.03.2023 06:15 -0,4 C 85 % 1026,7 hPa 0,0 l/m 0,0 km/h (0 Bft) N 0 0 min 0,000 mm 0,0 UV-I 0 W/m -2,6 C -0,4 C 0,0 km/h (0 Bft) 100,00 %
29.03.2023 06:14 -0,4 C 85 % 1026,7 hPa 0,0 l/m 0,0 km/h (0 Bft) N 0 0 min 0,000 mm 0,0 UV-I 0 W/m -2,6 C -0,4 C 0,0 km/h (0 Bft) 100,00 %
29.03.2023 06:13 -0,4 C 85 % 1026,7 hPa 0,0 l/m 0,0 km/h (0 Bft) N 0 0 min 0,000 mm 0,0 UV-I 0 W/m -2,6 C -0,4 C 0,0 km/h (0 Bft) 91,30 %
29.03.2023 06:12 -0,4 C 85 % 1026,7 hPa 0,0 l/m 0,0 km/h (0 Bft) N 0 0 min 0,000 mm 0,0 UV-I 0 W/m -2,6 C -0,4 C 0,0 km/h (0 Bft) 95,65 %
29.03.2023 06:11 -0,4 C 86 % 1026,7 hPa 0,0 l/m 0,0 km/h (0 Bft) N 0 0 min 0,000 mm 0,0 UV-I 0 W/m -2,4 C -0,4 C 0,0 km/h (0 Bft) 100,00 %
29.03.2023 06:10 -0,4 C 86 % 1026,6 hPa 0,0 l/m 0,0 km/h (0 Bft) N 0 0 min 0,000 mm 0,0 UV-I 0 W/m -2,4 C -0,4 C 0,0 km/h (0 Bft) 95,65 %
29.03.2023 06:09 -0,4 C 85 % 1026,6 hPa 0,0 l/m 0,0 km/h (0 Bft) N 0 0 min 0,000 mm 0,0 UV-I 0 W/m -2,6 C -0,4 C 0,0 km/h (0 Bft) 100,00 %
29.03.2023 06:08 -0,4 C 85 % 1026,7 hPa 0,0 l/m 0,0 km/h (0 Bft) N 360 0 min 0,000 mm 0,0 UV-I 0 W/m -2,6 C -0,4 C 1,6 km/h (1 Bft) 91,30 %
29.03.2023 06:07 -0,4 C 85 % 1026,6 hPa 0,0 l/m 0,0 km/h (0 Bft) N 0 0 min 0,000 mm 0,0 UV-I 0 W/m -2,6 C -0,4 C 0,0 km/h (0 Bft) 100,00 %
29.03.2023 06:06 -0,4 C 85 % 1026,6 hPa 0,0 l/m 0,0 km/h (0 Bft) N 0 0 min 0,000 mm 0,0 UV-I 0 W/m -2,6 C -0,4 C 0,0 km/h (0 Bft) 95,65 %
29.03.2023 06:05 -0,4 C 85 % 1026,7 hPa 0,0 l/m 0,0 km/h (0 Bft) N 0 0 min 0,000 mm 0,0 UV-I 0 W/m -2,6 C -0,4 C 0,0 km/h (0 Bft) 91,30 %
29.03.2023 06:04 -0,4 C 84 % 1026,7 hPa 0,0 l/m 0,0 km/h (0 Bft) N 360 0 min 0,000 mm 0,0 UV-I 0 W/m -2,8 C -0,4 C 1,6 km/h (1 Bft) 95,65 %
29.03.2023 06:03 -0,4 C 84 % 1026,7 hPa 0,0 l/m 1,6 km/h (1 Bft) N 360 0 min 0,000 mm 0,0 UV-I 0 W/m -2,8 C -0,4 C 3,2 km/h (1 Bft) 100,00 %
29.03.2023 06:02 -0,4 C 84 % 1026,5 hPa 0,0 l/m 1,6 km/h (1 Bft) N 360 0 min 0,000 mm 0,0 UV-I 0 W/m -2,8 C -0,4 C 3,2 km/h (1 Bft) 95,65 %
29.03.2023 06:01 -0,4 C 84 % 1026,6 hPa 0,0 l/m 1,6 km/h (1 Bft) N 360 0 min 0,000 mm 0,0 UV-I 0 W/m -2,8 C -0,4 C 3,2 km/h (1 Bft) 91,30 %
29.03.2023 06:00 -0,3 C 84 % 1026,6 hPa 0,0 l/m 1,6 km/h (1 Bft) N 360 0 min 0,000 mm 0,0 UV-I 0 W/m -2,7 C -0,3 C 3,2 km/h (1 Bft) 100,00 %
29.03.2023 05:59 -0,4 C 83 % 1026,5 hPa 0,0 l/m 0,0 km/h (0 Bft) N 0 0 min 0,000 mm 0,0 UV-I 0 W/m -2,9 C -0,4 C 0,0 km/h (0 Bft) 95,65 %
29.03.2023 05:58 -0,4 C 83 % 1026,7 hPa 0,0 l/m 0,0 km/h (0 Bft) N 0 0 min 0,000 mm 0,0 UV-I 0 W/m -2,9 C -0,4 C 0,0 km/h (0 Bft) 91,30 %
29.03.2023 05:57 -0,4 C 84 % 1026,7 hPa 0,0 l/m 0,0 km/h (0 Bft) N 0 0 min 0,000 mm 0,0 UV-I 0 W/m -2,8 C -0,4 C 0,0 km/h (0 Bft) 95,65 %
29.03.2023 05:56 -0,4 C 84 % 1026,7 hPa 0,0 l/m 0,0 km/h (0 Bft) N 0 0 min 0,000 mm 0,0 UV-I 0 W/m -2,8 C -0,4 C 0,0 km/h (0 Bft) 100,00 %
29.03.2023 05:55 -0,4 C 84 % 1026,7 hPa 0,0 l/m 0,0 km/h (0 Bft) N 0 0 min 0,000 mm 0,0 UV-I 0 W/m -2,8 C -0,4 C 0,0 km/h (0 Bft) 91,30 %
29.03.2023 05:54 -0,4 C 85 % 1026,8 hPa 0,0 l/m 0,0 km/h (0 Bft) N 0 0 min 0,000 mm 0,0 UV-I 0 W/m -2,6 C -0,4 C 0,0 km/h (0 Bft) 91,30 %
29.03.2023 05:53 -0,4 C 85 % 1026,7 hPa 0,0 l/m 0,0 km/h (0 Bft) N 0 0 min 0,000 mm 0,0 UV-I 0 W/m -2,6 C -0,4 C 0,0 km/h (0 Bft) 100,00 %
29.03.2023 05:52 -0,5 C 85 % 1026,7 hPa 0,0 l/m 0,0 km/h (0 Bft) N 360 0 min 0,000 mm 0,0 UV-I 0 W/m -2,7 C -0,5 C 1,6 km/h (1 Bft) 95,65 %
29.03.2023 05:51 -0,5 C 85 % 1026,7 hPa 0,0 l/m 1,6 km/h (1 Bft) N 360 0 min 0,000 mm 0,0 UV-I 0 W/m -2,7 C -0,5 C 1,6 km/h (1 Bft) 91,30 %
29.03.2023 05:50 -0,5 C 85 % 1026,8 hPa 0,0 l/m 1,6 km/h (1 Bft) N-NW 337 0 min 0,000 mm 0,0 UV-I 0 W/m -2,7 C -0,5 C 1,6 km/h (1 Bft) 95,65 %
29.03.2023 05:49 -0,5 C 85 % 1026,8 hPa 0,0 l/m 1,6 km/h (1 Bft) W-NW 292 0 min 0,000 mm 0,0 UV-I 0 W/m -2,7 C -0,5 C 3,2 km/h (1 Bft) 100,00 %
29.03.2023 05:48 -0,6 C 85 % 1026,8 hPa 0,0 l/m 0,0 km/h (0 Bft) W-NW 292 0 min 0,000 mm 0,0 UV-I 0 W/m -2,8 C -0,6 C 1,6 km/h (1 Bft) 100,00 %
29.03.2023 05:47 -0,6 C 85 % 1026,8 hPa 0,0 l/m 0,0 km/h (0 Bft) N 0 0 min 0,000 mm 0,0 UV-I 0 W/m -2,8 C -0,6 C 0,0 km/h (0 Bft) 95,65 %
29.03.2023 05:46 -0,6 C 85 % 1026,8 hPa 0,0 l/m 0,0 km/h (0 Bft) N 0 0 min 0,000 mm 0,0 UV-I 0 W/m -2,8 C -0,6 C 0,0 km/h (0 Bft) 100,00 %
29.03.2023 05:45 -0,6 C 85 % 1026,8 hPa 0,0 l/m 0,0 km/h (0 Bft) N 0 0 min 0,000 mm 0,0 UV-I 0 W/m -2,8 C -0,6 C 0,0 km/h (0 Bft) 100,00 %
29.03.2023 05:44 -0,6 C 84 % 1026,8 hPa 0,0 l/m 0,0 km/h (0 Bft) N 0 0 min 0,000 mm 0,0 UV-I 0 W/m -3,0 C -0,6 C 0,0 km/h (0 Bft) 95,65 %
29.03.2023 05:43 -0,6 C 84 % 1026,9 hPa 0,0 l/m 0,0 km/h (0 Bft) N 0 0 min 0,000 mm 0,0 UV-I 0 W/m -3,0 C -0,6 C 0,0 km/h (0 Bft) 100,00 %
29.03.2023 05:42 -0,6 C 85 % 1026,9 hPa 0,0 l/m 0,0 km/h (0 Bft) N 0 0 min 0,000 mm 0,0 UV-I 0 W/m -2,8 C -0,6 C 0,0 km/h (0 Bft) 100,00 %
29.03.2023 05:41 -0,6 C 84 % 1027,0 hPa 0,0 l/m 0,0 km/h (0 Bft) N 0 0 min 0,000 mm 0,0 UV-I 0 W/m -3,0 C -0,6 C 0,0 km/h (0 Bft) 100,00 %
29.03.2023 05:40 -0,5 C 84 % 1026,8 hPa 0,0 l/m 0,0 km/h (0 Bft) W-NW 292 0 min 0,000 mm 0,0 UV-I 0 W/m -2,9 C -0,5 C 1,6 km/h (1 Bft) 100,00 %
29.03.2023 05:39 -0,5 C 84 % 1027,0 hPa 0,0 l/m 0,0 km/h (0 Bft) W-NW 292 0 min 0,000 mm 0,0 UV-I 0 W/m -2,9 C -0,5 C 1,6 km/h (1 Bft) 100,00 %
29.03.2023 05:38 -0,5 C 84 % 1027,0 hPa 0,0 l/m 0,0 km/h (0 Bft) W-NW 292 0 min 0,000 mm 0,0 UV-I 0 W/m -2,9 C -0,5 C 1,6 km/h (1 Bft) 100,00 %
29.03.2023 05:37 -0,5 C 84 % 1027,0 hPa 0,0 l/m 0,0 km/h (0 Bft) N 0 0 min 0,000 mm 0,0 UV-I 0 W/m -2,9 C -0,5 C 0,0 km/h (0 Bft) 95,65 %
29.03.2023 05:36 -0,5 C 84 % 1026,9 hPa 0,0 l/m 0,0 km/h (0 Bft) N 0 0 min 0,000 mm 0,0 UV-I 0 W/m -2,9 C -0,5 C 0,0 km/h (0 Bft) 95,65 %
29.03.2023 05:35 -0,5 C 84 % 1027,0 hPa 0,0 l/m 0,0 km/h (0 Bft) N 0 0 min 0,000 mm 0,0 UV-I 0 W/m -2,9 C -0,5 C 0,0 km/h (0 Bft) 100,00 %
29.03.2023 05:34 -0,4 C 84 % 1026,9 hPa 0,0 l/m 0,0 km/h (0 Bft) N 0 0 min 0,000 mm 0,0 UV-I 0 W/m -2,8 C -0,4 C 0,0 km/h (0 Bft) 100,00 %
29.03.2023 05:33 -0,5 C 85 % 1026,9 hPa 0,0 l/m 0,0 km/h (0 Bft) N 0 0 min 0,000 mm 0,0 UV-I 0 W/m -2,7 C -0,5 C 0,0 km/h (0 Bft) 100,00 %
29.03.2023 05:32 -0,5 C 84 % 1027,0 hPa 0,0 l/m 0,0 km/h (0 Bft) W-NW 292 0 min 0,000 mm 0,0 UV-I 0 W/m -2,9 C -0,5 C 1,6 km/h (1 Bft) 100,00 %
29.03.2023 05:31 -0,5 C 84 % 1027,0 hPa 0,0 l/m 0,0 km/h (0 Bft) W-NW 292 0 min 0,000 mm 0,0 UV-I 0 W/m -2,9 C -0,5 C 1,6 km/h (1 Bft) 100,00 %
29.03.2023 05:30 -0,5 C 84 % 1026,9 hPa 0,0 l/m 1,6 km/h (1 Bft) W-NW 292 0 min 0,000 mm 0,0 UV-I 0 W/m -2,9 C -0,5 C 1,6 km/h (1 Bft) 95,65 %
29.03.2023 05:29 -0,5 C 84 % 1026,9 hPa 0,0 l/m 0,0 km/h (0 Bft) W-NW 292 0 min 0,000 mm 0,0 UV-I 0 W/m -2,9 C -0,5 C 1,6 km/h (1 Bft) 95,65 %
29.03.2023 05:28 -0,5 C 84 % 1027,0 hPa 0,0 l/m 0,0 km/h (0 Bft) N 0 0 min 0,000 mm 0,0 UV-I 0 W/m -2,9 C -0,5 C 0,0 km/h (0 Bft) 100,00 %
29.03.2023 05:27 -0,5 C 84 % 1027,0 hPa 0,0 l/m 0,0 km/h (0 Bft) W-NW 292 0 min 0,000 mm 0,0 UV-I 0 W/m -2,9 C -0,5 C 1,6 km/h (1 Bft) 100,00 %
29.03.2023 05:26 -0,5 C 84 % 1027,1 hPa 0,0 l/m 0,0 km/h (0 Bft) N 0 0 min 0,000 mm 0,0 UV-I 0 W/m -2,9 C -0,5 C 0,0 km/h (0 Bft) 95,65 %
29.03.2023 05:25 -0,4 C 84 % 1027,1 hPa 0,0 l/m 0,0 km/h (0 Bft) N 0 0 min 0,000 mm 0,0 UV-I 0 W/m -2,8 C -0,4 C 0,0 km/h (0 Bft) 100,00 %
29.03.2023 05:24 -0,4 C 84 % 1027,2 hPa 0,0 l/m 0,0 km/h (0 Bft) N 0 0 min 0,000 mm 0,0 UV-I 0 W/m -2,8 C -0,4 C 0,0 km/h (0 Bft) 95,65 %
29.03.2023 05:23 -0,4 C 84 % 1027,1 hPa 0,0 l/m 0,0 km/h (0 Bft) N 0 0 min 0,000 mm 0,0 UV-I 0 W/m -2,8 C -0,4 C 0,0 km/h (0 Bft) 95,65 %
29.03.2023 05:22 -0,4 C 84 % 1027,2 hPa 0,0 l/m 0,0 km/h (0 Bft) N 0 0 min 0,000 mm 0,0 UV-I 0 W/m -2,8 C -0,4 C 0,0 km/h (0 Bft) 100,00 %
29.03.2023 05:21 -0,4 C 84 % 1027,2 hPa 0,0 l/m 0,0 km/h (0 Bft) N 0 0 min 0,000 mm 0,0 UV-I 0 W/m -2,8 C -0,4 C 0,0 km/h (0 Bft) 100,00 %
29.03.2023 05:20 -0,4 C 83 % 1027,2 hPa 0,0 l/m 0,0 km/h (0 Bft) N 0 0 min 0,000 mm 0,0 UV-I 0 W/m -2,9 C -0,4 C 0,0 km/h (0 Bft) 100,00 %
29.03.2023 05:19 -0,4 C 83 % 1027,2 hPa 0,0 l/m 0,0 km/h (0 Bft) N 0 0 min 0,000 mm 0,0 UV-I 0 W/m -2,9 C -0,4 C 0,0 km/h (0 Bft) 100,00 %
29.03.2023 05:18 -0,4 C 84 % 1027,3 hPa 0,0 l/m 0,0 km/h (0 Bft) N 0 0 min 0,000 mm 0,0 UV-I 0 W/m -2,8 C -0,4 C 0,0 km/h (0 Bft) 95,65 %
29.03.2023 05:17 -0,4 C 84 % 1027,3 hPa 0,0 l/m 0,0 km/h (0 Bft) N 0 0 min 0,000 mm 0,0 UV-I 0 W/m -2,8 C -0,4 C 0,0 km/h (0 Bft) 100,00 %
29.03.2023 05:16 -0,4 C 84 % 1027,3 hPa 0,0 l/m 0,0 km/h (0 Bft) N 0 0 min 0,000 mm 0,0 UV-I 0 W/m -2,8 C -0,4 C 0,0 km/h (0 Bft) 91,30 %
29.03.2023 05:15 -0,4 C 84 % 1027,3 hPa 0,0 l/m 0,0 km/h (0 Bft) N 0 0 min 0,000 mm 0,0 UV-I 0 W/m -2,8 C -0,4 C 0,0 km/h (0 Bft) 100,00 %
29.03.2023 05:14 -0,4 C 83 % 1027,4 hPa 0,0 l/m 0,0 km/h (0 Bft) N 0 0 min 0,000 mm 0,0 UV-I 0 W/m -2,9 C -0,4 C 0,0 km/h (0 Bft) 95,65 %
29.03.2023 05:13 -0,4 C 83 % 1027,3 hPa 0,0 l/m 0,0 km/h (0 Bft) N 0 0 min 0,000 mm 0,0 UV-I 0 W/m -2,9 C -0,4 C 0,0 km/h (0 Bft) 100,00 %
29.03.2023 05:12 -0,4 C 83 % 1027,3 hPa 0,0 l/m 0,0 km/h (0 Bft) N 0 0 min 0,000 mm 0,0 UV-I 0 W/m -2,9 C -0,4 C 0,0 km/h (0 Bft) 100,00 %
29.03.2023 05:11 -0,4 C 84 % 1027,5 hPa 0,0 l/m 0,0 km/h (0 Bft) N 0 0 min 0,000 mm 0,0 UV-I 0 W/m -2,8 C -0,4 C 0,0 km/h (0 Bft) 100,00 %
29.03.2023 05:10 -0,4 C 84 % 1027,4 hPa 0,0 l/m 0,0 km/h (0 Bft) N 0 0 min 0,000 mm 0,0 UV-I 0 W/m -2,8 C -0,4 C 0,0 km/h (0 Bft) 100,00 %
29.03.2023 05:09 -0,4 C 84 % 1027,4 hPa 0,0 l/m 0,0 km/h (0 Bft) W-NW 292 0 min 0,000 mm 0,0 UV-I 0 W/m -2,8 C -0,4 C 1,6 km/h (1 Bft) 95,65 %
29.03.2023 05:08 -0,4 C 83 % 1027,5 hPa 0,0 l/m 0,0 km/h (0 Bft) W-NW 292 0 min 0,000 mm 0,0 UV-I 0 W/m -2,9 C -0,4 C 1,6 km/h (1 Bft) 100,00 %
29.03.2023 05:07 -0,4 C 83 % 1027,4 hPa 0,0 l/m 0,0 km/h (0 Bft) W-NW 292 0 min 0,000 mm 0,0 UV-I 0 W/m -2,9 C -0,4 C 1,6 km/h (1 Bft) 100,00 %
29.03.2023 05:06 -0,4 C 84 % 1027,5 hPa 0,0 l/m 0,0 km/h (0 Bft) N 0 0 min 0,000 mm 0,0 UV-I 0 W/m -2,8 C -0,4 C 0,0 km/h (0 Bft) 100,00 %
29.03.2023 05:05 -0,4 C 84 % 1027,5 hPa 0,0 l/m 0,0 km/h (0 Bft) N 0 0 min 0,000 mm 0,0 UV-I 0 W/m -2,8 C -0,4 C 0,0 km/h (0 Bft) 95,65 %
29.03.2023 05:04 -0,4 C 84 % 1027,5 hPa 0,0 l/m 0,0 km/h (0 Bft) W-NW 292 0 min 0,000 mm 0,0 UV-I 0 W/m -2,8 C -0,4 C 1,6 km/h (1 Bft) 100,00 %
29.03.2023 05:03 -0,4 C 84 % 1027,6 hPa 0,0 l/m 1,6 km/h (1 Bft) W-NW 292 0 min 0,000 mm 0,0 UV-I 0 W/m -2,8 C -0,4 C 1,6 km/h (1 Bft) 95,65 %
29.03.2023 05:02 -0,4 C 83 % 1027,5 hPa 0,0 l/m 1,6 km/h (1 Bft) W-NW 292 0 min 0,000 mm 0,0 UV-I 0 W/m -2,9 C -0,4 C 1,6 km/h (1 Bft) 86,96 %
29.03.2023 05:01 -0,4 C 83 % 1027,5 hPa 0,0 l/m 1,6 km/h (1 Bft) W-NW 292 0 min 0,000 mm 0,0 UV-I 0 W/m -2,9 C -0,4 C 4,8 km/h (1 Bft) 100,00 %
29.03.2023 05:00 -0,4 C 83 % 1027,5 hPa 0,0 l/m 1,6 km/h (1 Bft) W-NW 292 0 min 0,000 mm 0,0 UV-I 0 W/m -2,9 C -0,4 C 4,8 km/h (1 Bft) 95,65 %
29.03.2023 04:59 -0,4 C 84 % 1027,5 hPa 0,0 l/m 0,0 km/h (0 Bft) SW 225 0 min 0,000 mm 0,0 UV-I 0 W/m -2,8 C -0,4 C 1,6 km/h (1 Bft) 100,00 %
29.03.2023 04:58 -0,4 C 84 % 1027,4 hPa 0,0 l/m 1,6 km/h (1 Bft) SW 225 0 min 0,000 mm 0,0 UV-I 0 W/m -2,8 C -0,4 C 3,2 km/h (1 Bft) 95,65 %
29.03.2023 04:57 -0,5 C 84 % 1027,4 hPa 0,0 l/m 1,6 km/h (1 Bft) SW 225 0 min 0,000 mm 0,0 UV-I 0 W/m -2,9 C -0,5 C 3,2 km/h (1 Bft) 100,00 %
29.03.2023 04:56 -0,5 C 84 % 1027,5 hPa 0,0 l/m 0,0 km/h (0 Bft) W-SW 247 0 min 0,000 mm 0,0 UV-I 0 W/m -2,9 C -0,5 C 1,6 km/h (1 Bft) 86,96 %
29.03.2023 04:55 -0,5 C 84 % 1027,5 hPa 0,0 l/m 0,0 km/h (0 Bft) W-SW 247 0 min 0,000 mm 0,0 UV-I 0 W/m -2,9 C -0,5 C 1,6 km/h (1 Bft) 91,30 %
29.03.2023 04:54 -0,5 C 84 % 1027,5 hPa 0,0 l/m 0,0 km/h (0 Bft) W-SW 247 0 min 0,000 mm 0,0 UV-I 0 W/m -2,9 C -0,5 C 3,2 km/h (1 Bft) 95,65 %
29.03.2023 04:53 -0,6 C 84 % 1027,5 hPa 0,0 l/m 0,0 km/h (0 Bft) W-SW 247 0 min 0,000 mm 0,0 UV-I 0 W/m -3,0 C -0,6 C 1,6 km/h (1 Bft) 91,30 %
29.03.2023 04:52 -0,6 C 84 % 1027,5 hPa 0,0 l/m 0,0 km/h (0 Bft) N 0 0 min 0,000 mm 0,0 UV-I 0 W/m -3,0 C -0,6 C 0,0 km/h (0 Bft) 100,00 %
29.03.2023 04:51 -0,6 C 84 % 1027,5 hPa 0,0 l/m 0,0 km/h (0 Bft) N 0 0 min 0,000 mm 0,0 UV-I 0 W/m -3,0 C -0,6 C 0,0 km/h (0 Bft) 91,30 %
29.03.2023 04:50 -0,6 C 84 % 1027,6 hPa 0,0 l/m 0,0 km/h (0 Bft) N 0 0 min 0,000 mm 0,0 UV-I 0 W/m -3,0 C -0,6 C 0,0 km/h (0 Bft) 100,00 %
29.03.2023 04:49 -0,6 C 84 % 1027,5 hPa 0,0 l/m 0,0 km/h (0 Bft) N 0 0 min 0,000 mm 0,0 UV-I 0 W/m -3,0 C -0,6 C 0,0 km/h (0 Bft) 95,65 %
29.03.2023 04:48 -0,6 C 84 % 1027,5 hPa 0,0 l/m 0,0 km/h (0 Bft) W-SW 247 0 min 0,000 mm 0,0 UV-I 0 W/m -3,0 C -0,6 C 1,6 km/h (1 Bft) 95,65 %
29.03.2023 04:47 -0,6 C 84 % 1027,5 hPa 0,0 l/m 1,6 km/h (1 Bft) W-SW 247 0 min 0,000 mm 0,0 UV-I 0 W/m -3,0 C -0,6 C 1,6 km/h (1 Bft) 91,30 %
29.03.2023 04:46 -0,6 C 84 % 1027,6 hPa 0,0 l/m 1,6 km/h (1 Bft) W-SW 247 0 min 0,000 mm 0,0 UV-I 0 W/m -3,0 C -0,6 C 3,2 km/h (1 Bft) 100,00 %
29.03.2023 04:45 -0,6 C 84 % 1027,6 hPa 0,0 l/m 0,0 km/h (0 Bft) W-SW 247 0 min 0,000 mm 0,0 UV-I 0 W/m -3,0 C -0,6 C 1,6 km/h (1 Bft) 95,65 %
29.03.2023 04:44 -0,5 C 84 % 1027,6 hPa 0,0 l/m 0,0 km/h (0 Bft) W-SW 247 0 min 0,000 mm 0,0 UV-I 0 W/m -2,9 C -0,5 C 1,6 km/h (1 Bft) 100,00 %
29.03.2023 04:43 -0,5 C 84 % 1027,7 hPa 0,0 l/m 1,6 km/h (1 Bft) W-SW 247 0 min 0,000 mm 0,0 UV-I 0 W/m -2,9 C -0,5 C 1,6 km/h (1 Bft) 100,00 %
29.03.2023 04:42 -0,4 C 84 % 1027,6 hPa 0,0 l/m 1,6 km/h (1 Bft) W-SW 247 0 min 0,000 mm 0,0 UV-I 0 W/m -2,8 C -0,4 C 4,8 km/h (1 Bft) 91,30 %
29.03.2023 04:41 -0,4 C 84 % 1027,6 hPa 0,0 l/m 1,6 km/h (1 Bft) O-SO 112 0 min 0,000 mm 0,0 UV-I 0 W/m -2,8 C -0,4 C 1,6 km/h (1 Bft) 95,65 %
29.03.2023 04:40 -0,4 C 84 % 1027,6 hPa 0,0 l/m 0,0 km/h (0 Bft) O-SO 112 0 min 0,000 mm 0,0 UV-I 0 W/m -2,8 C -0,4 C 1,6 km/h (1 Bft) 100,00 %
29.03.2023 04:39 -0,4 C 84 % 1027,6 hPa 0,0 l/m 1,6 km/h (1 Bft) O-SO 112 0 min 0,000 mm 0,0 UV-I 0 W/m -2,8 C -0,4 C 3,2 km/h (1 Bft) 95,65 %
29.03.2023 04:38 -0,4 C 84 % 1027,6 hPa 0,0 l/m 3,2 km/h (1 Bft) SO 135 0 min 0,000 mm 0,0 UV-I 0 W/m -2,8 C -0,4 C 4,8 km/h (1 Bft) 100,00 %
29.03.2023 04:37 -0,4 C 84 % 1027,6 hPa 0,0 l/m 1,6 km/h (1 Bft) SO 135 0 min 0,000 mm 0,0 UV-I 0 W/m -2,8 C -0,4 C 3,2 km/h (1 Bft) 100,00 %
29.03.2023 04:36 -0,5 C 85 % 1027,6 hPa 0,0 l/m 1,6 km/h (1 Bft) SO 135 0 min 0,000 mm 0,0 UV-I 0 W/m -2,7 C -0,5 C 3,2 km/h (1 Bft) 100,00 %
29.03.2023 04:35 -0,5 C 85 % 1027,7 hPa 0,0 l/m 0,0 km/h (0 Bft) SO 135 0 min 0,000 mm 0,0 UV-I 0 W/m -2,7 C -0,5 C 1,6 km/h (1 Bft) 100,00 %
29.03.2023 04:34 -0,6 C 85 % 1027,7 hPa 0,0 l/m 1,6 km/h (1 Bft) SO 135 0 min 0,000 mm 0,0 UV-I 0 W/m -2,8 C -0,6 C 1,6 km/h (1 Bft) 95,65 %
29.03.2023 04:33 -0,6 C 85 % 1027,8 hPa 0,0 l/m 1,6 km/h (1 Bft) SO 135 0 min 0,000 mm 0,0 UV-I 0 W/m -2,8 C -0,6 C 3,2 km/h (1 Bft) 100,00 %
29.03.2023 04:32 -0,6 C 85 % 1027,8 hPa 0,0 l/m 1,6 km/h (1 Bft) S-SO 157 0 min 0,000 mm 0,0 UV-I 0 W/m -2,8 C -0,6 C 3,2 km/h (1 Bft) 100,00 %
29.03.2023 04:31 -0,6 C 85 % 1028,0 hPa 0,0 l/m 1,6 km/h (1 Bft) W 270 0 min 0,000 mm 0,0 UV-I 0 W/m -2,8 C -0,6 C 1,6 km/h (1 Bft) 95,65 %
29.03.2023 04:30 -0,6 C 85 % 1028,0 hPa 0,0 l/m 0,0 km/h (0 Bft) W 270 0 min 0,000 mm 0,0 UV-I 0 W/m -2,8 C -0,6 C 1,6 km/h (1 Bft) 95,65 %
29.03.2023 04:29 -0,6 C 85 % 1028,0 hPa 0,0 l/m 1,6 km/h (1 Bft) W 270 0 min 0,000 mm 0,0 UV-I 0 W/m -2,8 C -0,6 C 3,2 km/h (1 Bft) 100,00 %
29.03.2023 04:28 -0,6 C 84 % 1028,1 hPa 0,0 l/m 1,6 km/h (1 Bft) W 270 0 min 0,000 mm 0,0 UV-I 0 W/m -3,0 C -0,6 C 3,2 km/h (1 Bft) 100,00 %
29.03.2023 04:27 -0,6 C 84 % 1027,9 hPa 0,0 l/m 1,6 km/h (1 Bft) W-SW 247 0 min 0,000 mm 0,0 UV-I 0 W/m -3,0 C -0,6 C 3,2 km/h (1 Bft) 95,65 %
29.03.2023 04:26 -0,7 C 85 % 1028,0 hPa 0,0 l/m 0,0 km/h (0 Bft) W-SW 247 0 min 0,000 mm 0,0 UV-I 0 W/m -2,9 C -0,7 C 1,6 km/h (1 Bft) 95,65 %
29.03.2023 04:25 -0,7 C 85 % 1028,0 hPa 0,0 l/m 0,0 km/h (0 Bft) N 0 0 min 0,000 mm 0,0 UV-I 0 W/m -2,9 C -0,7 C 0,0 km/h (0 Bft) 95,65 %
29.03.2023 04:24 -0,7 C 85 % 1027,9 hPa 0,0 l/m 0,0 km/h (0 Bft) N 0 0 min 0,000 mm 0,0 UV-I 0 W/m -2,9 C -0,7 C 0,0 km/h (0 Bft) 100,00 %
29.03.2023 04:23 -0,7 C 85 % 1028,0 hPa 0,0 l/m 1,6 km/h (1 Bft) W-SW 247 0 min 0,000 mm 0,0 UV-I 0 W/m -2,9 C -0,7 C 3,2 km/h (1 Bft) 100,00 %
29.03.2023 04:22 -0,7 C 85 % 1027,9 hPa 0,0 l/m 1,6 km/h (1 Bft) W-SW 247 0 min 0,000 mm 0,0 UV-I 0 W/m -2,9 C -0,7 C 3,2 km/h (1 Bft) 95,65 %
29.03.2023 04:21 -0,7 C 85 % 1028,0 hPa 0,0 l/m 0,0 km/h (0 Bft) N 0 0 min 0,000 mm 0,0 UV-I 0 W/m -2,9 C -0,7 C 0,0 km/h (0 Bft) 100,00 %
29.03.2023 04:20 -0,7 C 85 % 1028,0 hPa 0,0 l/m 0,0 km/h (0 Bft) W-SW 247 0 min 0,000 mm 0,0 UV-I 0 W/m -2,9 C -0,7 C 1,6 km/h (1 Bft) 95,65 %
29.03.2023 04:19 -0,6 C 85 % 1028,0 hPa 0,0 l/m 0,0 km/h (0 Bft) W-SW 247 0 min 0,000 mm 0,0 UV-I 0 W/m -2,8 C -0,6 C 1,6 km/h (1 Bft) 95,65 %
29.03.2023 04:18 -0,6 C 85 % 1027,9 hPa 0,0 l/m 0,0 km/h (0 Bft) W-SW 247 0 min 0,000 mm 0,0 UV-I 0 W/m -2,8 C -0,6 C 1,6 km/h (1 Bft) 95,65 %
29.03.2023 04:17 -0,6 C 85 % 1027,9 hPa 0,0 l/m 3,2 km/h (1 Bft) W-SW 247 0 min 0,000 mm 0,0 UV-I 0 W/m -2,8 C -0,6 C 4,8 km/h (1 Bft) 95,65 %
29.03.2023 04:16 -0,6 C 85 % 1027,8 hPa 0,0 l/m 1,6 km/h (1 Bft) NO 45 0 min 0,000 mm 0,0 UV-I 0 W/m -2,8 C -0,6 C 1,6 km/h (1 Bft) 100,00 %
29.03.2023 04:15 -0,6 C 85 % 1027,8 hPa 0,0 l/m 0,0 km/h (0 Bft) N-NO 22 0 min 0,000 mm 0,0 UV-I 0 W/m -2,8 C -0,6 C 1,6 km/h (1 Bft) 100,00 %
29.03.2023 04:14 -0,6 C 85 % 1027,8 hPa 0,0 l/m 0,0 km/h (0 Bft) N-NO 22 0 min 0,000 mm 0,0 UV-I 0 W/m -2,8 C -0,6 C 1,6 km/h (1 Bft) 100,00 %
29.03.2023 04:13 -0,6 C 85 % 1027,8 hPa 0,0 l/m 0,0 km/h (0 Bft) N 0 0 min 0,000 mm 0,0 UV-I 0 W/m -2,8 C -0,6 C 0,0 km/h (0 Bft) 91,30 %
29.03.2023 04:12 -0,6 C 85 % 1027,8 hPa 0,0 l/m 0,0 km/h (0 Bft) N-NO 22 0 min 0,000 mm 0,0 UV-I 0 W/m -2,8 C -0,6 C 3,2 km/h (1 Bft) 100,00 %
29.03.2023 04:11 -0,7 C 85 % 1027,8 hPa 0,0 l/m 3,2 km/h (1 Bft) N-NO 22 0 min 0,000 mm 0,0 UV-I 0 W/m -2,9 C -0,7 C 3,2 km/h (1 Bft) 100,00 %
29.03.2023 04:10 -0,7 C 85 % 1027,9 hPa 0,0 l/m 3,2 km/h (1 Bft) N 360 0 min 0,000 mm 0,0 UV-I 0 W/m -2,9 C -0,7 C 4,8 km/h (1 Bft) 100,00 %
29.03.2023 04:09 -0,7 C 85 % 1027,9 hPa 0,0 l/m 3,2 km/h (1 Bft) N-NW 337 0 min 0,000 mm 0,0 UV-I 0 W/m -2,9 C -0,7 C 4,8 km/h (1 Bft) 100,00 %
29.03.2023 04:08 -0,7 C 85 % 1027,8 hPa 0,0 l/m 0,0 km/h (0 Bft) SO 135 0 min 0,000 mm 0,0 UV-I 0 W/m -2,9 C -0,7 C 1,6 km/h (1 Bft) 95,65 %
29.03.2023 04:07 -0,7 C 85 % 1027,7 hPa 0,0 l/m 1,6 km/h (1 Bft) S-SO 157 0 min 0,000 mm 0,0 UV-I 0 W/m -2,9 C -0,7 C 3,2 km/h (1 Bft) 100,00 %
29.03.2023 04:06 -0,7 C 85 % 1027,7 hPa 0,0 l/m 3,2 km/h (1 Bft) S-SO 157 0 min 0,000 mm 0,0 UV-I 0 W/m -2,9 C -0,7 C 4,8 km/h (1 Bft) 91,30 %
29.03.2023 04:05 -0,7 C 85 % 1027,8 hPa 0,0 l/m 3,2 km/h (1 Bft) S-SW 202 0 min 0,000 mm 0,0 UV-I 0 W/m -2,9 C -0,7 C 4,8 km/h (1 Bft) 100,00 %
29.03.2023 04:04 -0,8 C 85 % 1027,9 hPa 0,0 l/m 1,6 km/h (1 Bft) W-NW 292 0 min 0,000 mm 0,0 UV-I 0 W/m -3,0 C -0,8 C 3,2 km/h (1 Bft) 95,65 %
29.03.2023 04:03 -0,8 C 86 % 1027,7 hPa 0,0 l/m 1,6 km/h (1 Bft) W-NW 292 0 min 0,000 mm 0,0 UV-I 0 W/m -2,8 C -0,8 C 3,2 km/h (1 Bft) 100,00 %
29.03.2023 04:02 -0,8 C 86 % 1027,5 hPa 0,0 l/m 0,0 km/h (0 Bft) O-NO 67 0 min 0,000 mm 0,0 UV-I 0 W/m -2,8 C -0,8 C 3,2 km/h (1 Bft) 100,00 %
29.03.2023 04:01 -0,8 C 86 % 1027,6 hPa 0,0 l/m 3,2 km/h (1 Bft) O-NO 67 0 min 0,000 mm 0,0 UV-I 0 W/m -2,8 C -0,8 C 4,8 km/h (1 Bft) 100,00 %
29.03.2023 04:00 -0,8 C 86 % 1027,6 hPa 0,0 l/m 3,2 km/h (1 Bft) O-NO 67 0 min 0,000 mm 0,0 UV-I 0 W/m -2,8 C -0,8 C 4,8 km/h (1 Bft) 95,65 %
29.03.2023 03:59 -0,8 C 86 % 1027,8 hPa 0,0 l/m 0,0 km/h (0 Bft) W-NW 292 0 min 0,000 mm 0,0 UV-I 0 W/m -2,8 C -0,8 C 1,6 km/h (1 Bft) 91,30 %
29.03.2023 03:58 -0,8 C 86 % 1027,8 hPa 0,0 l/m 0,0 km/h (0 Bft) W-NW 292 0 min 0,000 mm 0,0 UV-I 0 W/m -2,8 C -0,8 C 1,6 km/h (1 Bft) 95,65 %
29.03.2023 03:57 -0,8 C 86 % 1027,6 hPa 0,0 l/m 3,2 km/h (1 Bft) W-NW 292 0 min 0,000 mm 0,0 UV-I 0 W/m -2,8 C -0,8 C 3,2 km/h (1 Bft) 95,65 %
29.03.2023 03:56 -0,8 C 85 % 1027,5 hPa 0,0 l/m 3,2 km/h (1 Bft) W-NW 292 0 min 0,000 mm 0,0 UV-I 0 W/m -3,0 C -0,8 C 4,8 km/h (1 Bft) 95,65 %
29.03.2023 03:55 -0,8 C 85 % 1027,5 hPa 0,0 l/m 1,6 km/h (1 Bft) O-SO 112 0 min 0,000 mm 0,0 UV-I 0 W/m -3,0 C -0,8 C 3,2 km/h (1 Bft) 91,30 %
29.03.2023 03:54 -0,8 C 85 % 1027,4 hPa 0,0 l/m 1,6 km/h (1 Bft) O-SO 112 0 min 0,000 mm 0,0 UV-I 0 W/m -3,0 C -0,8 C 3,2 km/h (1 Bft) 100,00 %
29.03.2023 03:53 -0,8 C 85 % 1027,4 hPa 0,0 l/m 3,2 km/h (1 Bft) O-SO 112 0 min 0,000 mm 0,0 UV-I 0 W/m -3,0 C -0,8 C 4,8 km/h (1 Bft) 91,30 %
29.03.2023 03:52 -0,8 C 85 % 1027,5 hPa 0,0 l/m 3,2 km/h (1 Bft) S-SO 157 0 min 0,000 mm 0,0 UV-I 0 W/m -3,0 C -0,8 C 3,2 km/h (1 Bft) 91,30 %
29.03.2023 03:51 -0,7 C 85 % 1027,6 hPa 0,0 l/m 1,6 km/h (1 Bft) S-SO 157 0 min 0,000 mm 0,0 UV-I 0 W/m -2,9 C -0,7 C 3,2 km/h (1 Bft) 100,00 %
29.03.2023 03:50 -0,7 C 85 % 1027,6 hPa 0,0 l/m 0,0 km/h (0 Bft) W-NW 292 0 min 0,000 mm 0,0 UV-I 0 W/m -2,9 C -0,7 C 1,6 km/h (1 Bft) 91,30 %
29.03.2023 03:49 -0,7 C 85 % 1027,6 hPa 0,0 l/m 1,6 km/h (1 Bft) W-NW 292 0 min 0,000 mm 0,0 UV-I 0 W/m -2,9 C -0,7 C 4,8 km/h (1 Bft) 100,00 %
29.03.2023 03:48 -0,7 C 85 % 1027,5 hPa 0,0 l/m 3,2 km/h (1 Bft) NW 315 0 min 0,000 mm 0,0 UV-I 0 W/m -2,9 C -0,7 C 3,2 km/h (1 Bft) 95,65 %
29.03.2023 03:47 -0,7 C 85 % 1027,4 hPa 0,0 l/m 1,6 km/h (1 Bft) N-NO 22 0 min 0,000 mm 0,0 UV-I 0 W/m -2,9 C -0,7 C 3,2 km/h (1 Bft) 100,00 %
29.03.2023 03:46 -0,8 C 84 % 1027,4 hPa 0,0 l/m 3,2 km/h (1 Bft) O-NO 67 0 min 0,000 mm 0,0 UV-I 0 W/m -3,2 C -0,8 C 3,2 km/h (1 Bft) 95,65 %
29.03.2023 03:45 -0,8 C 84 % 1027,3 hPa 0,0 l/m 1,6 km/h (1 Bft) O-SO 112 0 min 0,000 mm 0,0 UV-I 0 W/m -3,2 C -0,8 C 3,2 km/h (1 Bft) 95,65 %
29.03.2023 03:44 -0,8 C 84 % 1027,4 hPa 0,0 l/m 1,6 km/h (1 Bft) O-SO 112 0 min 0,000 mm 0,0 UV-I 0 W/m -3,2 C -0,8 C 3,2 km/h (1 Bft) 95,65 %
29.03.2023 03:43 -0,7 C 83 % 1027,5 hPa 0,0 l/m 3,2 km/h (1 Bft) W 270 0 min 0,000 mm 0,0 UV-I 0 W/m -3,2 C -0,7 C 3,2 km/h (1 Bft) 95,65 %
29.03.2023 03:42 -0,7 C 84 % 1027,6 hPa 0,0 l/m 1,6 km/h (1 Bft) W 270 0 min 0,000 mm 0,0 UV-I 0 W/m -3,1 C -0,7 C 1,6 km/h (1 Bft) 100,00 %
29.03.2023 03:41 -0,6 C 84 % 1027,5 hPa 0,0 l/m 1,6 km/h (1 Bft) W 270 0 min 0,000 mm 0,0 UV-I 0 W/m -3,0 C -0,6 C 3,2 km/h (1 Bft) 95,65 %
29.03.2023 03:40 -0,6 C 83 % 1027,3 hPa 0,0 l/m 1,6 km/h (1 Bft) W-SW 247 0 min 0,000 mm 0,0 UV-I 0 W/m -3,1 C -0,6 C 3,2 km/h (1 Bft) 100,00 %
29.03.2023 03:39 -0,6 C 83 % 1027,2 hPa 0,0 l/m 1,6 km/h (1 Bft) S-SO 157 0 min 0,000 mm 0,0 UV-I 0 W/m -3,1 C -0,6 C 4,8 km/h (1 Bft) 95,65 %
29.03.2023 03:38 -0,6 C 84 % 1027,2 hPa 0,0 l/m 3,2 km/h (1 Bft) SO 135 0 min 0,000 mm 0,0 UV-I 0 W/m -3,0 C -0,6 C 4,8 km/h (1 Bft) 95,65 %
29.03.2023 03:37 -0,6 C 84 % 1027,3 hPa 0,0 l/m 1,6 km/h (1 Bft) O 90 0 min 0,000 mm 0,0 UV-I 0 W/m -3,0 C -0,6 C 3,2 km/h (1 Bft) 100,00 %
29.03.2023 03:36 -0,6 C 83 % 1027,4 hPa 0,0 l/m 3,2 km/h (1 Bft) O 90 0 min 0,000 mm 0,0 UV-I 0 W/m -3,1 C -0,6 C 3,2 km/h (1 Bft) 100,00 %
29.03.2023 03:35 -0,7 C 83 % 1027,4 hPa 0,0 l/m 3,2 km/h (1 Bft) O-NO 67 0 min 0,000 mm 0,0 UV-I 0 W/m -3,2 C -0,7 C 3,2 km/h (1 Bft) 100,00 %
29.03.2023 03:34 -0,7 C 83 % 1027,6 hPa 0,0 l/m 1,6 km/h (1 Bft) N-NW 337 0 min 0,000 mm 0,0 UV-I 0 W/m -3,2 C -0,7 C 3,2 km/h (1 Bft) 100,00 %
29.03.2023 03:33 -0,6 C 83 % 1027,6 hPa 0,0 l/m 0,0 km/h (0 Bft) NW 315 0 min 0,000 mm 0,0 UV-I 0 W/m -3,1 C -0,6 C 1,6 km/h (1 Bft) 100,00 %
29.03.2023 03:32 -0,6 C 83 % 1027,5 hPa 0,0 l/m 1,6 km/h (1 Bft) NW 315 0 min 0,000 mm 0,0 UV-I 0 W/m -3,1 C -0,6 C 3,2 km/h (1 Bft) 100,00 %
29.03.2023 03:31 -0,6 C 83 % 1027,4 hPa 0,0 l/m 0,0 km/h (0 Bft) N 0 0 min 0,000 mm 0,0 UV-I 0 W/m -3,1 C -0,6 C 0,0 km/h (0 Bft) 91,30 %
29.03.2023 03:30 -0,6 C 83 % 1027,3 hPa 0,0 l/m 1,6 km/h (1 Bft) O-NO 67 0 min 0,000 mm 0,0 UV-I 0 W/m -3,1 C -0,6 C 3,2 km/h (1 Bft) 100,00 %
29.03.2023 03:29 -0,6 C 82 % 1027,3 hPa 0,0 l/m 1,6 km/h (1 Bft) NO 45 0 min 0,000 mm 0,0 UV-I 0 W/m -3,3 C -0,6 C 3,2 km/h (1 Bft) 100,00 %
29.03.2023 03:28 -0,6 C 83 % 1027,3 hPa 0,0 l/m 1,6 km/h (1 Bft) NO 45 0 min 0,000 mm 0,0 UV-I 0 W/m -3,1 C -0,6 C 1,6 km/h (1 Bft) 100,00 %
29.03.2023 03:27 -0,6 C 83 % 1027,4 hPa 0,0 l/m 0,0 km/h (0 Bft) N 0 0 min 0,000 mm 0,0 UV-I 0 W/m -3,1 C -0,6 C 0,0 km/h (0 Bft) 100,00 %
29.03.2023 03:26 -0,6 C 83 % 1027,3 hPa 0,0 l/m 0,0 km/h (0 Bft) NO 45 0 min 0,000 mm 0,0 UV-I 0 W/m -3,1 C -0,6 C 1,6 km/h (1 Bft) 100,00 %
29.03.2023 03:25 -0,6 C 83 % 1027,3 hPa 0,0 l/m 1,6 km/h (1 Bft) NO 45 0 min 0,000 mm 0,0 UV-I 0 W/m -3,1 C -0,6 C 1,6 km/h (1 Bft) 100,00 %
29.03.2023 03:24 -0,7 C 83 % 1027,3 hPa 0,0 l/m 0,0 km/h (0 Bft) NO 45 0 min 0,000 mm 0,0 UV-I 0 W/m -3,2 C -0,7 C 1,6 km/h (1 Bft) 95,65 %
29.03.2023 03:23 -0,7 C 83 % 1027,4 hPa 0,0 l/m 0,0 km/h (0 Bft) NO 45 0 min 0,000 mm 0,0 UV-I 0 W/m -3,2 C -0,7 C 1,6 km/h (1 Bft) 100,00 %
29.03.2023 03:22 -0,7 C 83 % 1027,5 hPa 0,0 l/m 0,0 km/h (0 Bft) N 0 0 min 0,000 mm 0,0 UV-I 0 W/m -3,2 C -0,7 C 0,0 km/h (0 Bft) 100,00 %
29.03.2023 03:21 -0,6 C 83 % 1027,4 hPa 0,0 l/m 0,0 km/h (0 Bft) NO 45 0 min 0,000 mm 0,0 UV-I 0 W/m -3,1 C -0,6 C 1,6 km/h (1 Bft) 95,65 %
29.03.2023 03:20 -0,7 C 83 % 1027,3 hPa 0,0 l/m 0,0 km/h (0 Bft) NO 45 0 min 0,000 mm 0,0 UV-I 0 W/m -3,2 C -0,7 C 1,6 km/h (1 Bft) 100,00 %
29.03.2023 03:19 -0,7 C 83 % 1027,3 hPa 0,0 l/m 1,6 km/h (1 Bft) NO 45 0 min 0,000 mm 0,0 UV-I 0 W/m -3,2 C -0,7 C 3,2 km/h (1 Bft) 100,00 %
29.03.2023 03:18 -0,7 C 83 % 1027,3 hPa 0,0 l/m 0,0 km/h (0 Bft) NO 45 0 min 0,000 mm 0,0 UV-I 0 W/m -3,2 C -0,7 C 1,6 km/h (1 Bft) 100,00 %
29.03.2023 03:17 -0,7 C 83 % 1027,3 hPa 0,0 l/m 0,0 km/h (0 Bft) NO 45 0 min 0,000 mm 0,0 UV-I 0 W/m -3,2 C -0,7 C 1,6 km/h (1 Bft) 91,30 %
29.03.2023 03:16 -0,7 C 83 % 1027,3 hPa 0,0 l/m 0,0 km/h (0 Bft) NO 45 0 min 0,000 mm 0,0 UV-I 0 W/m -3,2 C -0,7 C 1,6 km/h (1 Bft) 100,00 %
29.03.2023 03:15 -0,7 C 84 % 1027,2 hPa 0,0 l/m 0,0 km/h (0 Bft) NO 45 0 min 0,000 mm 0,0 UV-I 0 W/m -3,1 C -0,7 C 1,6 km/h (1 Bft) 100,00 %
29.03.2023 03:14 -0,7 C 84 % 1027,2 hPa 0,0 l/m 0,0 km/h (0 Bft) NO 45 0 min 0,000 mm 0,0 UV-I 0 W/m -3,1 C -0,7 C 1,6 km/h (1 Bft) 100,00 %
29.03.2023 03:13 -0,7 C 84 % 1027,1 hPa 0,0 l/m 0,0 km/h (0 Bft) NO 45 0 min 0,000 mm 0,0 UV-I 0 W/m -3,1 C -0,7 C 1,6 km/h (1 Bft) 100,00 %
29.03.2023 03:12 -0,8 C 84 % 1027,1 hPa 0,0 l/m 0,0 km/h (0 Bft) N 0 0 min 0,000 mm 0,0 UV-I 0 W/m -3,2 C -0,8 C 0,0 km/h (0 Bft) 95,65 %
29.03.2023 03:11 -0,8 C 84 % 1027,1 hPa 0,0 l/m 0,0 km/h (0 Bft) NO 45 0 min 0,000 mm 0,0 UV-I 0 W/m -3,2 C -0,8 C 1,6 km/h (1 Bft) 100,00 %
29.03.2023 03:10 -0,8 C 85 % 1027,1 hPa 0,0 l/m 0,0 km/h (0 Bft) NO 45 0 min 0,000 mm 0,0 UV-I 0 W/m -3,0 C -0,8 C 1,6 km/h (1 Bft) 91,30 %
29.03.2023 03:09 -0,8 C 85 % 1027,0 hPa 0,0 l/m 0,0 km/h (0 Bft) N 0 0 min 0,000 mm 0,0 UV-I 0 W/m -3,0 C -0,8 C 0,0 km/h (0 Bft) 100,00 %
29.03.2023 03:08 -0,8 C 85 % 1027,0 hPa 0,0 l/m 0,0 km/h (0 Bft) N 0 0 min 0,000 mm 0,0 UV-I 0 W/m -3,0 C -0,8 C 0,0 km/h (0 Bft) 95,65 %
29.03.2023 03:07 -0,8 C 85 % 1026,9 hPa 0,0 l/m 0,0 km/h (0 Bft) N 0 0 min 0,000 mm 0,0 UV-I 0 W/m -3,0 C -0,8 C 0,0 km/h (0 Bft) 100,00 %
29.03.2023 03:06 -0,9 C 85 % 1027,1 hPa 0,0 l/m 0,0 km/h (0 Bft) N 0 0 min 0,000 mm 0,0 UV-I 0 W/m -3,1 C -0,9 C 0,0 km/h (0 Bft) 100,00 %
29.03.2023 03:05 -0,8 C 85 % 1027,0 hPa 0,0 l/m 0,0 km/h (0 Bft) N 0 0 min 0,000 mm 0,0 UV-I 0 W/m -3,0 C -0,8 C 0,0 km/h (0 Bft) 100,00 %
29.03.2023 03:04 -0,9 C 86 % 1027,0 hPa 0,0 l/m 0,0 km/h (0 Bft) N 0 0 min 0,000 mm 0,0 UV-I 0 W/m -2,9 C -0,9 C 0,0 km/h (0 Bft) 100,00 %
29.03.2023 03:03 -0,9 C 86 % 1027,0 hPa 0,0 l/m 0,0 km/h (0 Bft) NO 45 0 min 0,000 mm 0,0 UV-I 0 W/m -2,9 C -0,9 C 1,6 km/h (1 Bft) 91,30 %
29.03.2023 03:02 -0,9 C 86 % 1027,0 hPa 0,0 l/m 0,0 km/h (0 Bft) NO 45 0 min 0,000 mm 0,0 UV-I 0 W/m -2,9 C -0,9 C 1,6 km/h (1 Bft) 95,65 %
29.03.2023 03:01 -0,9 C 86 % 1027,0 hPa 0,0 l/m 0,0 km/h (0 Bft) N 0 0 min 0,000 mm 0,0 UV-I 0 W/m -2,9 C -0,9 C 0,0 km/h (0 Bft) 100,00 %
29.03.2023 03:00 -0,9 C 86 % 1027,0 hPa 0,0 l/m 0,0 km/h (0 Bft) N 0 0 min 0,000 mm 0,0 UV-I 0 W/m -2,9 C -0,9 C 0,0 km/h (0 Bft) 100,00 %
29.03.2023 02:59 -1,0 C 86 % 1026,9 hPa 0,0 l/m 1,6 km/h (1 Bft) NO 45 0 min 0,000 mm 0,0 UV-I 0 W/m -3,0 C -1,0 C 1,6 km/h (1 Bft) 100,00 %
29.03.2023 02:58 -1,0 C 86 % 1027,1 hPa 0,0 l/m 3,2 km/h (1 Bft) NO 45 0 min 0,000 mm 0,0 UV-I 0 W/m -3,0 C -1,0 C 3,2 km/h (1 Bft) 95,65 %
29.03.2023 02:57 -0,9 C 85 % 1027,0 hPa 0,0 l/m 1,6 km/h (1 Bft) N 360 0 min 0,000 mm 0,0 UV-I 0 W/m -3,1 C -0,9 C 3,2 km/h (1 Bft) 95,65 %
29.03.2023 02:56 -0,9 C 85 % 1027,0 hPa 0,0 l/m 0,0 km/h (0 Bft) N-NW 337 0 min 0,000 mm 0,0 UV-I 0 W/m -3,1 C -0,9 C 1,6 km/h (1 Bft) 95,65 %
29.03.2023 02:55 -0,9 C 85 % 1026,9 hPa 0,0 l/m 0,0 km/h (0 Bft) N-NW 337 0 min 0,000 mm 0,0 UV-I 0 W/m -3,1 C -0,9 C 1,6 km/h (1 Bft) 100,00 %
29.03.2023 02:54 -0,8 C 85 % 1027,0 hPa 0,0 l/m 0,0 km/h (0 Bft) N-NW 337 0 min 0,000 mm 0,0 UV-I 0 W/m -3,0 C -0,8 C 1,6 km/h (1 Bft) 95,65 %
29.03.2023 02:53 -0,8 C 84 % 1026,8 hPa 0,0 l/m 1,6 km/h (1 Bft) N-NW 337 0 min 0,000 mm 0,0 UV-I 0 W/m -3,2 C -0,8 C 3,2 km/h (1 Bft) 100,00 %
29.03.2023 02:52 -0,8 C 84 % 1026,7 hPa 0,0 l/m 1,6 km/h (1 Bft) NO 45 0 min 0,000 mm 0,0 UV-I 0 W/m -3,2 C -0,8 C 3,2 km/h (1 Bft) 91,30 %
29.03.2023 02:51 -0,9 C 84 % 1026,6 hPa 0,0 l/m 1,6 km/h (1 Bft) O-NO 67 0 min 0,000 mm 0,0 UV-I 0 W/m -3,3 C -0,9 C 3,2 km/h (1 Bft) 95,65 %
29.03.2023 02:50 -0,9 C 85 % 1026,6 hPa 0,0 l/m 0,0 km/h (0 Bft) O-NO 67 0 min 0,000 mm 0,0 UV-I 0 W/m -3,1 C -0,9 C 1,6 km/h (1 Bft) 100,00 %
29.03.2023 02:49 -0,9 C 85 % 1026,7 hPa 0,0 l/m 0,0 km/h (0 Bft) N 0 0 min 0,000 mm 0,0 UV-I 0 W/m -3,1 C -0,9 C 0,0 km/h (0 Bft) 91,30 %
29.03.2023 02:48 -0,9 C 85 % 1026,7 hPa 0,0 l/m 0,0 km/h (0 Bft) N 0 0 min 0,000 mm 0,0 UV-I 0 W/m -3,1 C -0,9 C 0,0 km/h (0 Bft) 95,65 %
29.03.2023 02:47 -0,9 C 85 % 1026,8 hPa 0,0 l/m 0,0 km/h (0 Bft) N 0 0 min 0,000 mm 0,0 UV-I 0 W/m -3,1 C -0,9 C 0,0 km/h (0 Bft) 91,30 %
29.03.2023 02:46 -0,9 C 85 % 1026,8 hPa 0,0 l/m 0,0 km/h (0 Bft) N 0 0 min 0,000 mm 0,0 UV-I 0 W/m -3,1 C -0,9 C 0,0 km/h (0 Bft) 100,00 %
29.03.2023 02:45 -0,9 C 85 % 1026,8 hPa 0,0 l/m 0,0 km/h (0 Bft) O-NO 67 0 min 0,000 mm 0,0 UV-I 0 W/m -3,1 C -0,9 C 1,6 km/h (1 Bft) 95,65 %
29.03.2023 02:44 -0,9 C 85 % 1026,8 hPa 0,0 l/m 1,6 km/h (1 Bft) O-NO 67 0 min 0,000 mm 0,0 UV-I 0 W/m -3,1 C -0,9 C 1,6 km/h (1 Bft) 91,30 %
29.03.2023 02:43 -0,9 C 85 % 1026,9 hPa 0,0 l/m 0,0 km/h (0 Bft) NO 45 0 min 0,000 mm 0,0 UV-I 0 W/m -3,1 C -0,9 C 1,6 km/h (1 Bft) 100,00 %
29.03.2023 02:42 -1,0 C 85 % 1026,8 hPa 0,0 l/m 0,0 km/h (0 Bft) N 0 0 min 0,000 mm 0,0 UV-I 0 W/m -3,2 C -1,0 C 0,0 km/h (0 Bft) 91,30 %
29.03.2023 02:41 -1,0 C 85 % 1026,9 hPa 0,0 l/m 0,0 km/h (0 Bft) N 0 0 min 0,000 mm 0,0 UV-I 0 W/m -3,2 C -1,0 C 0,0 km/h (0 Bft) 100,00 %
29.03.2023 02:40 -1,1 C 85 % 1026,9 hPa 0,0 l/m 1,6 km/h (1 Bft) NO 45 0 min 0,000 mm 0,0 UV-I 0 W/m -3,3 C -1,1 C 3,2 km/h (1 Bft) 95,65 %
29.03.2023 02:39 -1,0 C 85 % 1026,9 hPa 0,0 l/m 1,6 km/h (1 Bft) O-NO 67 0 min 0,000 mm 0,0 UV-I 0 W/m -3,2 C -1,0 C 3,2 km/h (1 Bft) 100,00 %
29.03.2023 02:38 -1,0 C 85 % 1026,9 hPa 0,0 l/m 1,6 km/h (1 Bft) O-NO 67 0 min 0,000 mm 0,0 UV-I 0 W/m -3,2 C -1,0 C 1,6 km/h (1 Bft) 91,30 %
29.03.2023 02:37 -1,0 C 85 % 1026,9 hPa 0,0 l/m 0,0 km/h (0 Bft) O-NO 67 0 min 0,000 mm 0,0 UV-I 0 W/m -3,2 C -1,0 C 1,6 km/h (1 Bft) 100,00 %
29.03.2023 02:36 -0,9 C 85 % 1026,9 hPa 0,0 l/m 0,0 km/h (0 Bft) N 0 0 min 0,000 mm 0,0 UV-I 0 W/m -3,1 C -0,9 C 0,0 km/h (0 Bft) 95,65 %
29.03.2023 02:35 -0,9 C 85 % 1026,9 hPa 0,0 l/m 0,0 km/h (0 Bft) N 0 0 min 0,000 mm 0,0 UV-I 0 W/m -3,1 C -0,9 C 0,0 km/h (0 Bft) 95,65 %
29.03.2023 02:34 -0,9 C 85 % 1026,9 hPa 0,0 l/m 0,0 km/h (0 Bft) O-NO 67 0 min 0,000 mm 0,0 UV-I 0 W/m -3,1 C -0,9 C 1,6 km/h (1 Bft) 95,65 %
29.03.2023 02:33 -0,8 C 85 % 1026,8 hPa 0,0 l/m 0,0 km/h (0 Bft) O-NO 67 0 min 0,000 mm 0,0 UV-I 0 W/m -3,0 C -0,8 C 1,6 km/h (1 Bft) 100,00 %
29.03.2023 02:32 -0,9 C 85 % 1026,8 hPa 0,0 l/m 1,6 km/h (1 Bft) O-NO 67 0 min 0,000 mm 0,0 UV-I 0 W/m -3,1 C -0,9 C 1,6 km/h (1 Bft) 95,65 %
29.03.2023 02:31 -0,9 C 85 % 1026,9 hPa 0,0 l/m 1,6 km/h (1 Bft) O-NO 67 0 min 0,000 mm 0,0 UV-I 0 W/m -3,1 C -0,9 C 1,6 km/h (1 Bft) 95,65 %
29.03.2023 02:30 -1,0 C 85 % 1026,9 hPa 0,0 l/m 1,6 km/h (1 Bft) O-NO 67 0 min 0,000 mm 0,0 UV-I 0 W/m -3,2 C -1,0 C 1,6 km/h (1 Bft) 95,65 %
29.03.2023 02:29 -1,0 C 85 % 1027,0 hPa 0,0 l/m 0,0 km/h (0 Bft) N 0 0 min 0,000 mm 0,0 UV-I 0 W/m -3,2 C -1,0 C 0,0 km/h (0 Bft) 95,65 %
29.03.2023 02:28 -1,0 C 85 % 1027,0 hPa 0,0 l/m 0,0 km/h (0 Bft) N 0 0 min 0,000 mm 0,0 UV-I 0 W/m -3,2 C -1,0 C 0,0 km/h (0 Bft) 100,00 %
29.03.2023 02:27 -1,0 C 85 % 1027,1 hPa 0,0 l/m 0,0 km/h (0 Bft) N 0 0 min 0,000 mm 0,0 UV-I 0 W/m -3,2 C -1,0 C 0,0 km/h (0 Bft) 91,30 %
29.03.2023 02:26 -1,0 C 85 % 1026,9 hPa 0,0 l/m 0,0 km/h (0 Bft) N 0 0 min 0,000 mm 0,0 UV-I 0 W/m -3,2 C -1,0 C 0,0 km/h (0 Bft) 100,00 %
29.03.2023 02:25 -0,9 C 85 % 1027,0 hPa 0,0 l/m 0,0 km/h (0 Bft) N 0 0 min 0,000 mm 0,0 UV-I 0 W/m -3,1 C -0,9 C 0,0 km/h (0 Bft) 100,00 %
29.03.2023 02:24 -0,9 C 84 % 1027,0 hPa 0,0 l/m 0,0 km/h (0 Bft) N 0 0 min 0,000 mm 0,0 UV-I 0 W/m -3,3 C -0,9 C 0,0 km/h (0 Bft) 95,65 %
29.03.2023 02:23 -0,8 C 84 % 1026,9 hPa 0,0 l/m 0,0 km/h (0 Bft) N 0 0 min 0,000 mm 0,0 UV-I 0 W/m -3,2 C -0,8 C 0,0 km/h (0 Bft) 100,00 %
29.03.2023 02:22 -0,8 C 84 % 1026,9 hPa 0,0 l/m 0,0 km/h (0 Bft) N 0 0 min 0,000 mm 0,0 UV-I 0 W/m -3,2 C -0,8 C 0,0 km/h (0 Bft) 100,00 %
29.03.2023 02:21 -0,8 C 84 % 1027,0 hPa 0,0 l/m 0,0 km/h (0 Bft) N 0 0 min 0,000 mm 0,0 UV-I 0 W/m -3,2 C -0,8 C 0,0 km/h (0 Bft) 100,00 %
29.03.2023 02:20 -0,8 C 84 % 1026,8 hPa 0,0 l/m 0,0 km/h (0 Bft) N 0 0 min 0,000 mm 0,0 UV-I 0 W/m -3,2 C -0,8 C 0,0 km/h (0 Bft) 95,65 %
29.03.2023 02:19 -0,9 C 84 % 1026,9 hPa 0,0 l/m 0,0 km/h (0 Bft) N 0 0 min 0,000 mm 0,0 UV-I 0 W/m -3,3 C -0,9 C 0,0 km/h (0 Bft) 100,00 %
29.03.2023 02:18 -0,9 C 85 % 1027,0 hPa 0,0 l/m 0,0 km/h (0 Bft) O-NO 67 0 min 0,000 mm 0,0 UV-I 0 W/m -3,1 C -0,9 C 3,2 km/h (1 Bft) 100,00 %
29.03.2023 02:17 -0,9 C 85 % 1027,0 hPa 0,0 l/m 1,6 km/h (1 Bft) O-NO 67 0 min 0,000 mm 0,0 UV-I 0 W/m -3,1 C -0,9 C 3,2 km/h (1 Bft) 100,00 %
29.03.2023 02:16 -0,9 C 85 % 1027,0 hPa 0,0 l/m 1,6 km/h (1 Bft) O-NO 67 0 min 0,000 mm 0,0 UV-I 0 W/m -3,1 C -0,9 C 3,2 km/h (1 Bft) 91,30 %
29.03.2023 02:15 -1,0 C 85 % 1026,9 hPa 0,0 l/m 1,6 km/h (1 Bft) O-NO 67 0 min 0,000 mm 0,0 UV-I 0 W/m -3,2 C -1,0 C 1,6 km/h (1 Bft) 100,00 %
29.03.2023 02:14 -0,9 C 85 % 1026,9 hPa 0,0 l/m 0,0 km/h (0 Bft) O-NO 67 0 min 0,000 mm 0,0 UV-I 0 W/m -3,1 C -0,9 C 1,6 km/h (1 Bft) 56,52 %
29.03.2023 02:13 -1,0 C 85 % 1027,0 hPa 0,0 l/m 0,0 km/h (0 Bft) O-NO 67 0 min 0,000 mm 0,0 UV-I 0 W/m -3,2 C -1,0 C 1,6 km/h (1 Bft) 95,65 %
29.03.2023 02:11 -1,0 C 86 % 1027,0 hPa 0,0 l/m 0,0 km/h (0 Bft) N 0 0 min 0,000 mm 0,0 UV-I 0 W/m -3,0 C -1,0 C 0,0 km/h (0 Bft) 100,00 %
29.03.2023 02:10 -1,0 C 86 % 1027,1 hPa 0,0 l/m 0,0 km/h (0 Bft) N 0 0 min 0,000 mm 0,0 UV-I 0 W/m -3,0 C -1,0 C 0,0 km/h (0 Bft) 100,00 %
29.03.2023 02:09 -1,1 C 86 % 1027,0 hPa 0,0 l/m 0,0 km/h (0 Bft) N 0 0 min 0,000 mm 0,0 UV-I 0 W/m -3,1 C -1,1 C 0,0 km/h (0 Bft) 100,00 %
29.03.2023 02:08 -1,1 C 86 % 1027,0 hPa 0,0 l/m 0,0 km/h (0 Bft) N 0 0 min 0,000 mm 0,0 UV-I 0 W/m -3,1 C -1,1 C 0,0 km/h (0 Bft) 100,00 %
29.03.2023 02:07 -1,1 C 86 % 1027,0 hPa 0,0 l/m 0,0 km/h (0 Bft) N 0 0 min 0,000 mm 0,0 UV-I 0 W/m -3,1 C -1,1 C 0,0 km/h (0 Bft) 100,00 %
29.03.2023 02:06 -1,1 C 86 % 1027,1 hPa 0,0 l/m 0,0 km/h (0 Bft) N 0 0 min 0,000 mm 0,0 UV-I 0 W/m -3,1 C -1,1 C 0,0 km/h (0 Bft) 95,65 %
29.03.2023 02:05 -1,2 C 86 % 1027,0 hPa 0,0 l/m 0,0 km/h (0 Bft) N 0 0 min 0,000 mm 0,0 UV-I 0 W/m -3,2 C -1,2 C 0,0 km/h (0 Bft) 95,65 %
29.03.2023 02:04 -1,1 C 86 % 1027,1 hPa 0,0 l/m 0,0 km/h (0 Bft) N 0 0 min 0,000 mm 0,0 UV-I 0 W/m -3,1 C -1,1 C 0,0 km/h (0 Bft) 100,00 %
29.03.2023 02:03 -1,1 C 86 % 1027,0 hPa 0,0 l/m 0,0 km/h (0 Bft) N 0 0 min 0,000 mm 0,0 UV-I 0 W/m -3,1 C -1,1 C 0,0 km/h (0 Bft) 100,00 %
29.03.2023 02:02 -1,1 C 85 % 1027,1 hPa 0,0 l/m 0,0 km/h (0 Bft) N 0 0 min 0,000 mm 0,0 UV-I 0 W/m -3,3 C -1,1 C 0,0 km/h (0 Bft) 95,65 %
29.03.2023 02:01 -1,1 C 85 % 1027,1 hPa 0,0 l/m 0,0 km/h (0 Bft) N 0 0 min 0,000 mm 0,0 UV-I 0 W/m -3,3 C -1,1 C 0,0 km/h (0 Bft) 100,00 %
29.03.2023 02:00 -1,0 C 85 % 1027,1 hPa 0,0 l/m 0,0 km/h (0 Bft) N 0 0 min 0,000 mm 0,0 UV-I 0 W/m -3,2 C -1,0 C 0,0 km/h (0 Bft) 100,00 %
29.03.2023 01:59 -1,0 C 85 % 1027,1 hPa 0,0 l/m 0,0 km/h (0 Bft) O-NO 67 0 min 0,000 mm 0,0 UV-I 0 W/m -3,2 C -1,0 C 1,6 km/h (1 Bft) 95,65 %
29.03.2023 01:58 -0,9 C 84 % 1027,2 hPa 0,0 l/m 0,0 km/h (0 Bft) O-NO 67 0 min 0,000 mm 0,0 UV-I 0 W/m -3,3 C -0,9 C 1,6 km/h (1 Bft) 100,00 %
29.03.2023 01:57 -0,9 C 84 % 1027,1 hPa 0,0 l/m 0,0 km/h (0 Bft) N 0 0 min 0,000 mm 0,0 UV-I 0 W/m -3,3 C -0,9 C 0,0 km/h (0 Bft) 91,30 %
29.03.2023 01:56 -0,9 C 84 % 1027,1 hPa 0,0 l/m 0,0 km/h (0 Bft) N 0 0 min 0,000 mm 0,0 UV-I 0 W/m -3,3 C -0,9 C 0,0 km/h (0 Bft) 100,00 %
29.03.2023 01:55 -0,9 C 84 % 1027,1 hPa 0,0 l/m 0,0 km/h (0 Bft) N 0 0 min 0,000 mm 0,0 UV-I 0 W/m -3,3 C -0,9 C 0,0 km/h (0 Bft) 95,65 %
29.03.2023 01:54 -0,9 C 84 % 1027,0 hPa 0,0 l/m 0,0 km/h (0 Bft) N 0 0 min 0,000 mm 0,0 UV-I 0 W/m -3,3 C -0,9 C 0,0 km/h (0 Bft) 100,00 %
29.03.2023 01:53 -0,9 C 84 % 1027,0 hPa 0,0 l/m 0,0 km/h (0 Bft) N 0 0 min 0,000 mm 0,0 UV-I 0 W/m -3,3 C -0,9 C 0,0 km/h (0 Bft) 95,65 %
29.03.2023 01:52 -0,9 C 84 % 1027,0 hPa 0,0 l/m 0,0 km/h (0 Bft) N 0 0 min 0,000 mm 0,0 UV-I 0 W/m -3,3 C -0,9 C 0,0 km/h (0 Bft) 95,65 %
29.03.2023 01:51 -0,9 C 85 % 1027,0 hPa 0,0 l/m 0,0 km/h (0 Bft) N 0 0 min 0,000 mm 0,0 UV-I 0 W/m -3,1 C -0,9 C 0,0 km/h (0 Bft) 100,00 %
29.03.2023 01:50 -0,9 C 85 % 1027,0 hPa 0,0 l/m 0,0 km/h (0 Bft) N 0 0 min 0,000 mm 0,0 UV-I 0 W/m -3,1 C -0,9 C 0,0 km/h (0 Bft) 100,00 %
29.03.2023 01:49 -0,9 C 85 % 1027,0 hPa 0,0 l/m 0,0 km/h (0 Bft) O-NO 67 0 min 0,000 mm 0,0 UV-I 0 W/m -3,1 C -0,9 C 1,6 km/h (1 Bft) 95,65 %
29.03.2023 01:48 -0,9 C 85 % 1027,0 hPa 0,0 l/m 0,0 km/h (0 Bft) O-NO 67 0 min 0,000 mm 0,0 UV-I 0 W/m -3,1 C -0,9 C 1,6 km/h (1 Bft) 100,00 %
29.03.2023 01:47 -1,0 C 85 % 1027,0 hPa 0,0 l/m 0,0 km/h (0 Bft) O-NO 67 0 min 0,000 mm 0,0 UV-I 0 W/m -3,2 C -1,0 C 1,6 km/h (1 Bft) 95,65 %
29.03.2023 01:46 -1,0 C 85 % 1027,0 hPa 0,0 l/m 1,6 km/h (1 Bft) O-NO 67 0 min 0,000 mm 0,0 UV-I 0 W/m -3,2 C -1,0 C 1,6 km/h (1 Bft) 95,65 %
29.03.2023 01:45 -1,0 C 85 % 1027,1 hPa 0,0 l/m 1,6 km/h (1 Bft) O-NO 67 0 min 0,000 mm 0,0 UV-I 0 W/m -3,2 C -1,0 C 1,6 km/h (1 Bft) 95,65 %
29.03.2023 01:44 -1,1 C 85 % 1027,0 hPa 0,0 l/m 0,0 km/h (0 Bft) O-NO 67 0 min 0,000 mm 0,0 UV-I 0 W/m -3,3 C -1,1 C 1,6 km/h (1 Bft) 95,65 %
29.03.2023 01:43 -1,1 C 85 % 1027,1 hPa 0,0 l/m 0,0 km/h (0 Bft) O-NO 67 0 min 0,000 mm 0,0 UV-I 0 W/m -3,3 C -1,1 C 1,6 km/h (1 Bft) 95,65 %
29.03.2023 01:42 -1,1 C 85 % 1027,1 hPa 0,0 l/m 0,0 km/h (0 Bft) N 0 0 min 0,000 mm 0,0 UV-I 0 W/m -3,3 C -1,1 C 0,0 km/h (0 Bft) 100,00 %
29.03.2023 01:41 -1,1 C 85 % 1027,1 hPa 0,0 l/m 0,0 km/h (0 Bft) N 0 0 min 0,000 mm 0,0 UV-I 0 W/m -3,3 C -1,1 C 0,0 km/h (0 Bft) 95,65 %
29.03.2023 01:40 -1,1 C 85 % 1027,2 hPa 0,0 l/m 0,0 km/h (0 Bft) N 0 0 min 0,000 mm 0,0 UV-I 0 W/m -3,3 C -1,1 C 0,0 km/h (0 Bft) 95,65 %
29.03.2023 01:39 -1,1 C 85 % 1027,2 hPa 0,0 l/m 0,0 km/h (0 Bft) N 0 0 min 0,000 mm 0,0 UV-I 0 W/m -3,3 C -1,1 C 0,0 km/h (0 Bft) 91,30 %
29.03.2023 01:38 -1,1 C 85 % 1027,2 hPa 0,0 l/m 0,0 km/h (0 Bft) N 0 0 min 0,000 mm 0,0 UV-I 0 W/m -3,3 C -1,1 C 0,0 km/h (0 Bft) 95,65 %
29.03.2023 01:37 -1,1 C 85 % 1027,1 hPa 0,0 l/m 0,0 km/h (0 Bft) N 0 0 min 0,000 mm 0,0 UV-I 0 W/m -3,3 C -1,1 C 0,0 km/h (0 Bft) 95,65 %
29.03.2023 01:36 -1,1 C 86 % 1027,2 hPa 0,0 l/m 0,0 km/h (0 Bft) O-NO 67 0 min 0,000 mm 0,0 UV-I 0 W/m -3,1 C -1,1 C 1,6 km/h (1 Bft) 100,00 %
29.03.2023 01:35 -1,2 C 86 % 1027,1 hPa 0,0 l/m 0,0 km/h (0 Bft) O-NO 67 0 min 0,000 mm 0,0 UV-I 0 W/m -3,2 C -1,2 C 1,6 km/h (1 Bft) 95,65 %
29.03.2023 01:34 -1,2 C 86 % 1027,2 hPa 0,0 l/m 0,0 km/h (0 Bft) N 0 0 min 0,000 mm 0,0 UV-I 0 W/m -3,2 C -1,2 C 0,0 km/h (0 Bft) 95,65 %
29.03.2023 01:33 -1,2 C 86 % 1027,1 hPa 0,0 l/m 0,0 km/h (0 Bft) O-NO 67 0 min 0,000 mm 0,0 UV-I 0 W/m -3,2 C -1,2 C 1,6 km/h (1 Bft) 100,00 %
29.03.2023 01:32 -1,3 C 86 % 1027,2 hPa 0,0 l/m 1,6 km/h (1 Bft) O-NO 67 0 min 0,000 mm 0,0 UV-I 0 W/m -3,3 C -1,3 C 1,6 km/h (1 Bft) 91,30 %
29.03.2023 01:31 -1,3 C 86 % 1027,2 hPa 0,0 l/m 0,0 km/h (0 Bft) O-NO 67 0 min 0,000 mm 0,0 UV-I 0 W/m -3,3 C -1,3 C 1,6 km/h (1 Bft) 95,65 %
29.03.2023 01:30 -1,3 C 86 % 1027,2 hPa 0,0 l/m 0,0 km/h (0 Bft) N 0 0 min 0,000 mm 0,0 UV-I 0 W/m -3,3 C -1,3 C 0,0 km/h (0 Bft) 95,65 %
29.03.2023 01:29 -1,3 C 86 % 1027,2 hPa 0,0 l/m 0,0 km/h (0 Bft) N 0 0 min 0,000 mm 0,0 UV-I 0 W/m -3,3 C -1,3 C 0,0 km/h (0 Bft) 100,00 %
29.03.2023 01:28 -1,4 C 86 % 1027,2 hPa 0,0 l/m 0,0 km/h (0 Bft) N 0 0 min 0,000 mm 0,0 UV-I 0 W/m -3,4 C -1,4 C 0,0 km/h (0 Bft) 95,65 %
29.03.2023 01:27 -1,3 C 86 % 1027,2 hPa 0,0 l/m 0,0 km/h (0 Bft) N 0 0 min 0,000 mm 0,0 UV-I 0 W/m -3,3 C -1,3 C 0,0 km/h (0 Bft) 100,00 %
29.03.2023 01:26 -1,3 C 86 % 1027,3 hPa 0,0 l/m 0,0 km/h (0 Bft) N 0 0 min 0,000 mm 0,0 UV-I 0 W/m -3,3 C -1,3 C 0,0 km/h (0 Bft) 95,65 %
29.03.2023 01:25 -1,2 C 85 % 1027,2 hPa 0,0 l/m 0,0 km/h (0 Bft) N 0 0 min 0,000 mm 0,0 UV-I 0 W/m -3,4 C -1,2 C 0,0 km/h (0 Bft) 95,65 %
29.03.2023 01:24 -1,1 C 85 % 1027,2 hPa 0,0 l/m 1,6 km/h (1 Bft) O-NO 67 0 min 0,000 mm 0,0 UV-I 0 W/m -3,3 C -1,1 C 1,6 km/h (1 Bft) 95,65 %
29.03.2023 01:23 -1,1 C 86 % 1027,3 hPa 0,0 l/m 0,0 km/h (0 Bft) O-NO 67 0 min 0,000 mm 0,0 UV-I 0 W/m -3,1 C -1,1 C 1,6 km/h (1 Bft) 100,00 %
29.03.2023 01:22 -1,1 C 86 % 1027,3 hPa 0,0 l/m 1,6 km/h (1 Bft) O-NO 67 0 min 0,000 mm 0,0 UV-I 0 W/m -3,1 C -1,1 C 3,2 km/h (1 Bft) 100,00 %
29.03.2023 01:21 -1,2 C 86 % 1027,3 hPa 0,0 l/m 1,6 km/h (1 Bft) O-NO 67 0 min 0,000 mm 0,0 UV-I 0 W/m -3,2 C -1,2 C 3,2 km/h (1 Bft) 100,00 %
29.03.2023 01:20 -1,2 C 86 % 1027,4 hPa 0,0 l/m 1,6 km/h (1 Bft) O-NO 67 0 min 0,000 mm 0,0 UV-I 0 W/m -3,2 C -1,2 C 1,6 km/h (1 Bft) 100,00 %
29.03.2023 01:19 -1,3 C 86 % 1027,3 hPa 0,0 l/m 1,6 km/h (1 Bft) O-NO 67 0 min 0,000 mm 0,0 UV-I 0 W/m -3,3 C -1,3 C 1,6 km/h (1 Bft) 95,65 %
29.03.2023 01:18 -1,3 C 87 % 1027,3 hPa 0,0 l/m 1,6 km/h (1 Bft) O-NO 67 0 min 0,000 mm 0,0 UV-I 0 W/m -3,2 C -1,3 C 3,2 km/h (1 Bft) 100,00 %
29.03.2023 01:17 -1,4 C 87 % 1027,4 hPa 0,0 l/m 1,6 km/h (1 Bft) O-NO 67 0 min 0,000 mm 0,0 UV-I 0 W/m -3,3 C -1,4 C 3,2 km/h (1 Bft) 95,65 %
29.03.2023 01:16 -1,4 C 86 % 1027,4 hPa 0,0 l/m 1,6 km/h (1 Bft) O-NO 67 0 min 0,000 mm 0,0 UV-I 0 W/m -3,4 C -1,4 C 3,2 km/h (1 Bft) 100,00 %
29.03.2023 01:15 -1,5 C 86 % 1027,5 hPa 0,0 l/m 1,6 km/h (1 Bft) O-NO 67 0 min 0,000 mm 0,0 UV-I 0 W/m -3,5 C -1,5 C 3,2 km/h (1 Bft) 100,00 %
29.03.2023 01:14 -1,4 C 86 % 1027,4 hPa 0,0 l/m 0,0 km/h (0 Bft) O-NO 67 0 min 0,000 mm 0,0 UV-I 0 W/m -3,4 C -1,4 C 1,6 km/h (1 Bft) 95,65 %
29.03.2023 01:13 -1,4 C 86 % 1027,5 hPa 0,0 l/m 0,0 km/h (0 Bft) N 0 0 min 0,000 mm 0,0 UV-I 0 W/m -3,4 C -1,4 C 0,0 km/h (0 Bft) 95,65 %
29.03.2023 01:12 -1,3 C 85 % 1027,4 hPa 0,0 l/m 0,0 km/h (0 Bft) N 0 0 min 0,000 mm 0,0 UV-I 0 W/m -3,5 C -1,3 C 0,0 km/h (0 Bft) 100,00 %
29.03.2023 01:11 -1,2 C 85 % 1027,6 hPa 0,0 l/m 0,0 km/h (0 Bft) O-NO 67 0 min 0,000 mm 0,0 UV-I 0 W/m -3,4 C -1,2 C 1,6 km/h (1 Bft) 100,00 %
29.03.2023 01:10 -1,2 C 86 % 1027,4 hPa 0,0 l/m 0,0 km/h (0 Bft) O-NO 67 0 min 0,000 mm 0,0 UV-I 0 W/m -3,2 C -1,2 C 1,6 km/h (1 Bft) 95,65 %
29.03.2023 01:09 -1,2 C 86 % 1027,3 hPa 0,0 l/m 0,0 km/h (0 Bft) O-NO 67 0 min 0,000 mm 0,0 UV-I 0 W/m -3,2 C -1,2 C 1,6 km/h (1 Bft) 95,65 %
29.03.2023 01:08 -1,2 C 85 % 1027,4 hPa 0,0 l/m 1,6 km/h (1 Bft) O-NO 67 0 min 0,000 mm 0,0 UV-I 0 W/m -3,4 C -1,2 C 1,6 km/h (1 Bft) 100,00 %
29.03.2023 01:07 -1,1 C 85 % 1027,4 hPa 0,0 l/m 1,6 km/h (1 Bft) O-NO 67 0 min 0,000 mm 0,0 UV-I 0 W/m -3,3 C -1,1 C 3,2 km/h (1 Bft) 100,00 %
29.03.2023 01:06 -1,2 C 85 % 1027,6 hPa 0,0 l/m 1,6 km/h (1 Bft) O-NO 67 0 min 0,000 mm 0,0 UV-I 0 W/m -3,4 C -1,2 C 3,2 km/h (1 Bft) 95,65 %
29.03.2023 01:05 -1,2 C 86 % 1027,5 hPa 0,0 l/m 1,6 km/h (1 Bft) O-NO 67 0 min 0,000 mm 0,0 UV-I 0 W/m -3,2 C -1,2 C 3,2 km/h (1 Bft) 100,00 %
29.03.2023 01:04 -1,2 C 86 % 1027,5 hPa 0,0 l/m 0,0 km/h (0 Bft) O-NO 67 0 min 0,000 mm 0,0 UV-I 0 W/m -3,2 C -1,2 C 1,6 km/h (1 Bft) 100,00 %
29.03.2023 01:03 -1,2 C 86 % 1027,7 hPa 0,0 l/m 0,0 km/h (0 Bft) O-NO 67 0 min 0,000 mm 0,0 UV-I 0 W/m -3,2 C -1,2 C 1,6 km/h (1 Bft) 95,65 %
29.03.2023 01:02 -1,2 C 86 % 1027,7 hPa 0,0 l/m 1,6 km/h (1 Bft) O-NO 67 0 min 0,000 mm 0,0 UV-I 0 W/m -3,2 C -1,2 C 1,6 km/h (1 Bft) 95,65 %
29.03.2023 01:01 -1,2 C 85 % 1027,6 hPa 0,0 l/m 0,0 km/h (0 Bft) O-NO 67 0 min 0,000 mm 0,0 UV-I 0 W/m -3,4 C -1,2 C 1,6 km/h (1 Bft) 100,00 %
29.03.2023 01:00 -1,2 C 85 % 1027,7 hPa 0,0 l/m 0,0 km/h (0 Bft) O-NO 67 0 min 0,000 mm 0,0 UV-I 0 W/m -3,4 C -1,2 C 1,6 km/h (1 Bft) 100,00 %
29.03.2023 00:59 -1,2 C 85 % 1027,7 hPa 0,0 l/m 1,6 km/h (1 Bft) O-NO 67 0 min 0,000 mm 0,0 UV-I 0 W/m -3,4 C -1,2 C 1,6 km/h (1 Bft) 100,00 %
29.03.2023 00:58 -1,2 C 85 % 1027,7 hPa 0,0 l/m 1,6 km/h (1 Bft) O-NO 67 0 min 0,000 mm 0,0 UV-I 0 W/m -3,4 C -1,2 C 3,2 km/h (1 Bft) 100,00 %
29.03.2023 00:57 -1,2 C 86 % 1027,7 hPa 0,0 l/m 0,0 km/h (0 Bft) O-NO 67 0 min 0,000 mm 0,0 UV-I 0 W/m -3,2 C -1,2 C 1,6 km/h (1 Bft) 100,00 %
29.03.2023 00:56 -1,2 C 86 % 1027,8 hPa 0,0 l/m 1,6 km/h (1 Bft) O-NO 67 0 min 0,000 mm 0,0 UV-I 0 W/m -3,2 C -1,2 C 3,2 km/h (1 Bft) 95,65 %
29.03.2023 00:55 -1,2 C 86 % 1027,8 hPa 0,0 l/m 1,6 km/h (1 Bft) O-NO 67 0 min 0,000 mm 0,0 UV-I 0 W/m -3,2 C -1,2 C 3,2 km/h (1 Bft) 100,00 %
29.03.2023 00:54 -1,3 C 86 % 1027,8 hPa 0,0 l/m 1,6 km/h (1 Bft) O-NO 67 0 min 0,000 mm 0,0 UV-I 0 W/m -3,3 C -1,3 C 3,2 km/h (1 Bft) 100,00 %
29.03.2023 00:53 -1,3 C 86 % 1027,7 hPa 0,0 l/m 0,0 km/h (0 Bft) O-NO 67 0 min 0,000 mm 0,0 UV-I 0 W/m -3,3 C -1,3 C 1,6 km/h (1 Bft) 100,00 %
29.03.2023 00:52 -1,3 C 86 % 1027,8 hPa 0,0 l/m 1,6 km/h (1 Bft) O-NO 67 0 min 0,000 mm 0,0 UV-I 0 W/m -3,3 C -1,3 C 1,6 km/h (1 Bft) 100,00 %
29.03.2023 00:51 -1,3 C 86 % 1027,7 hPa 0,0 l/m 1,6 km/h (1 Bft) O-NO 67 0 min 0,000 mm 0,0 UV-I 0 W/m -3,3 C -1,3 C 1,6 km/h (1 Bft) 100,00 %
29.03.2023 00:50 -1,3 C 86 % 1027,8 hPa 0,0 l/m 1,6 km/h (1 Bft) O-NO 67 0 min 0,000 mm 0,0 UV-I 0 W/m -3,3 C -1,3 C 1,6 km/h (1 Bft) 95,65 %
29.03.2023 00:49 -1,3 C 86 % 1027,9 hPa 0,0 l/m 0,0 km/h (0 Bft) O-NO 67 0 min 0,000 mm 0,0 UV-I 0 W/m -3,3 C -1,3 C 1,6 km/h (1 Bft) 95,65 %
29.03.2023 00:48 -1,4 C 86 % 1027,9 hPa 0,0 l/m 0,0 km/h (0 Bft) O-NO 67 0 min 0,000 mm 0,0 UV-I 0 W/m -3,4 C -1,4 C 1,6 km/h (1 Bft) 100,00 %
29.03.2023 00:47 -1,4 C 86 % 1027,9 hPa 0,0 l/m 0,0 km/h (0 Bft) O-NO 67 0 min 0,000 mm 0,0 UV-I 0 W/m -3,4 C -1,4 C 1,6 km/h (1 Bft) 100,00 %
29.03.2023 00:46 -1,4 C 86 % 1027,9 hPa 0,0 l/m 0,0 km/h (0 Bft) N 0 0 min 0,000 mm 0,0 UV-I 0 W/m -3,4 C -1,4 C 0,0 km/h (0 Bft) 100,00 %
29.03.2023 00:45 -1,4 C 86 % 1027,9 hPa 0,0 l/m 0,0 km/h (0 Bft) N 0 0 min 0,000 mm 0,0 UV-I 0 W/m -3,4 C -1,4 C 0,0 km/h (0 Bft) 95,65 %
29.03.2023 00:44 -1,4 C 86 % 1027,9 hPa 0,0 l/m 0,0 km/h (0 Bft) N 0 0 min 0,000 mm 0,0 UV-I 0 W/m -3,4 C -1,4 C 0,0 km/h (0 Bft) 100,00 %
29.03.2023 00:43 -1,3 C 86 % 1027,9 hPa 0,0 l/m 0,0 km/h (0 Bft) N 0 0 min 0,000 mm 0,0 UV-I 0 W/m -3,3 C -1,3 C 0,0 km/h (0 Bft) 100,00 %
29.03.2023 00:42 -1,3 C 86 % 1028,1 hPa 0,0 l/m 0,0 km/h (0 Bft) N 0 0 min 0,000 mm 0,0 UV-I 0 W/m -3,3 C -1,3 C 0,0 km/h (0 Bft) 95,65 %
29.03.2023 00:41 -1,2 C 86 % 1028,0 hPa 0,0 l/m 0,0 km/h (0 Bft) N 0 0 min 0,000 mm 0,0 UV-I 0 W/m -3,2 C -1,2 C 0,0 km/h (0 Bft) 100,00 %
29.03.2023 00:40 -1,2 C 86 % 1028,0 hPa 0,0 l/m 0,0 km/h (0 Bft) O-NO 67 0 min 0,000 mm 0,0 UV-I 0 W/m -3,2 C -1,2 C 1,6 km/h (1 Bft) 95,65 %
29.03.2023 00:39 -1,3 C 86 % 1027,9 hPa 0,0 l/m 0,0 km/h (0 Bft) O-NO 67 0 min 0,000 mm 0,0 UV-I 0 W/m -3,3 C -1,3 C 1,6 km/h (1 Bft) 95,65 %
29.03.2023 00:38 -1,3 C 86 % 1028,0 hPa 0,0 l/m 1,6 km/h (1 Bft) O-NO 67 0 min 0,000 mm 0,0 UV-I 0 W/m -3,3 C -1,3 C 1,6 km/h (1 Bft) 91,30 %
29.03.2023 00:37 -1,2 C 86 % 1028,0 hPa 0,0 l/m 1,6 km/h (1 Bft) O-NO 67 0 min 0,000 mm 0,0 UV-I 0 W/m -3,2 C -1,2 C 1,6 km/h (1 Bft) 100,00 %
29.03.2023 00:36 -1,3 C 86 % 1028,0 hPa 0,0 l/m 1,6 km/h (1 Bft) O-NO 67 0 min 0,000 mm 0,0 UV-I 0 W/m -3,3 C -1,3 C 3,2 km/h (1 Bft) 95,65 %
29.03.2023 00:35 -1,3 C 86 % 1028,1 hPa 0,0 l/m 3,2 km/h (1 Bft) O-NO 67 0 min 0,000 mm 0,0 UV-I 0 W/m -3,3 C -1,3 C 3,2 km/h (1 Bft) 95,65 %
29.03.2023 00:34 -1,3 C 86 % 1028,1 hPa 0,0 l/m 1,6 km/h (1 Bft) O-NO 67 0 min 0,000 mm 0,0 UV-I 0 W/m -3,3 C -1,3 C 3,2 km/h (1 Bft) 95,65 %
29.03.2023 00:33 -1,2 C 86 % 1028,1 hPa 0,0 l/m 0,0 km/h (0 Bft) O-NO 67 0 min 0,000 mm 0,0 UV-I 0 W/m -3,2 C -1,2 C 1,6 km/h (1 Bft) 95,65 %
29.03.2023 00:32 -1,3 C 86 % 1028,1 hPa 0,0 l/m 0,0 km/h (0 Bft) O-NO 67 0 min 0,000 mm 0,0 UV-I 0 W/m -3,3 C -1,3 C 1,6 km/h (1 Bft) 100,00 %
29.03.2023 00:31 -1,2 C 86 % 1028,0 hPa 0,0 l/m 1,6 km/h (1 Bft) O-NO 67 0 min 0,000 mm 0,0 UV-I 0 W/m -3,2 C -1,2 C 3,2 km/h (1 Bft) 95,65 %
29.03.2023 00:30 -1,2 C 86 % 1028,1 hPa 0,0 l/m 3,2 km/h (1 Bft) O-NO 67 0 min 0,000 mm 0,0 UV-I 0 W/m -3,2 C -1,2 C 3,2 km/h (1 Bft) 95,65 %
29.03.2023 00:29 -1,2 C 86 % 1028,0 hPa 0,0 l/m 1,6 km/h (1 Bft) O-NO 67 0 min 0,000 mm 0,0 UV-I 0 W/m -3,2 C -1,2 C 3,2 km/h (1 Bft) 95,65 %
29.03.2023 00:28 -1,2 C 85 % 1028,2 hPa 0,0 l/m 1,6 km/h (1 Bft) O-NO 67 0 min 0,000 mm 0,0 UV-I 0 W/m -3,4 C -1,2 C 3,2 km/h (1 Bft) 95,65 %
29.03.2023 00:27 -1,2 C 85 % 1028,2 hPa 0,0 l/m 3,2 km/h (1 Bft) O-NO 67 0 min 0,000 mm 0,0 UV-I 0 W/m -3,4 C -1,2 C 3,2 km/h (1 Bft) 95,65 %
29.03.2023 00:26 -1,2 C 85 % 1028,2 hPa 0,0 l/m 0,0 km/h (0 Bft) O-NO 67 0 min 0,000 mm 0,0 UV-I 0 W/m -3,4 C -1,2 C 3,2 km/h (1 Bft) 100,00 %
29.03.2023 00:25 -1,2 C 85 % 1028,1 hPa 0,0 l/m 0,0 km/h (0 Bft) N 0 0 min 0,000 mm 0,0 UV-I 0 W/m -3,4 C -1,2 C 0,0 km/h (0 Bft) 91,30 %
29.03.2023 00:24 -1,2 C 85 % 1028,2 hPa 0,0 l/m 0,0 km/h (0 Bft) O-NO 67 0 min 0,000 mm 0,0 UV-I 0 W/m -3,4 C -1,2 C 1,6 km/h (1 Bft) 95,65 %
29.03.2023 00:23 -1,2 C 85 % 1028,2 hPa 0,0 l/m 0,0 km/h (0 Bft) O-NO 67 0 min 0,000 mm 0,0 UV-I 0 W/m -3,4 C -1,2 C 1,6 km/h (1 Bft) 100,00 %
29.03.2023 00:22 -1,2 C 85 % 1028,6 hPa 0,0 l/m 0,0 km/h (0 Bft) O-NO 67 0 min 0,000 mm 0,0 UV-I 0 W/m -3,4 C -1,2 C 1,6 km/h (1 Bft) 86,96 %
29.03.2023 00:21 -1,2 C 85 % 1028,2 hPa 0,0 l/m 1,6 km/h (1 Bft) O-NO 67 0 min 0,000 mm 0,0 UV-I 0 W/m -3,4 C -1,2 C 1,6 km/h (1 Bft) 95,65 %
29.03.2023 00:20 -1,2 C 86 % 1028,2 hPa 0,0 l/m 1,6 km/h (1 Bft) O-NO 67 0 min 0,000 mm 0,0 UV-I 0 W/m -3,2 C -1,2 C 3,2 km/h (1 Bft) 95,65 %
29.03.2023 00:19 -1,2 C 86 % 1028,1 hPa 0,0 l/m 1,6 km/h (1 Bft) O-NO 67 0 min 0,000 mm 0,0 UV-I 0 W/m -3,2 C -1,2 C 3,2 km/h (1 Bft) 100,00 %
29.03.2023 00:18 -1,2 C 86 % 1028,2 hPa 0,0 l/m 1,6 km/h (1 Bft) O-NO 67 0 min 0,000 mm 0,0 UV-I 0 W/m -3,2 C -1,2 C 1,6 km/h (1 Bft) 91,30 %
29.03.2023 00:17 -1,2 C 86 % 1028,2 hPa 0,0 l/m 1,6 km/h (1 Bft) O-NO 67 0 min 0,000 mm 0,0 UV-I 0 W/m -3,2 C -1,2 C 1,6 km/h (1 Bft) 100,00 %
29.03.2023 00:16 -1,2 C 86 % 1028,2 hPa 0,0 l/m 1,6 km/h (1 Bft) O-NO 67 0 min 0,000 mm 0,0 UV-I 0 W/m -3,2 C -1,2 C 3,2 km/h (1 Bft) 95,65 %
29.03.2023 00:15 -1,2 C 86 % 1028,1 hPa 0,0 l/m 1,6 km/h (1 Bft) O-NO 67 0 min 0,000 mm 0,0 UV-I 0 W/m -3,2 C -1,2 C 3,2 km/h (1 Bft) 95,65 %
29.03.2023 00:14 -1,2 C 86 % 1028,2 hPa 0,0 l/m 1,6 km/h (1 Bft) O-NO 67 0 min 0,000 mm 0,0 UV-I 0 W/m -3,2 C -1,2 C 3,2 km/h (1 Bft) 95,65 %
29.03.2023 00:13 -1,2 C 86 % 1028,2 hPa 0,0 l/m 1,6 km/h (1 Bft) O-NO 67 0 min 0,000 mm 0,0 UV-I 0 W/m -3,2 C -1,2 C 1,6 km/h (1 Bft) 100,00 %
29.03.2023 00:12 -1,2 C 86 % 1028,2 hPa 0,0 l/m 1,6 km/h (1 Bft) O-NO 67 0 min 0,000 mm 0,0 UV-I 0 W/m -3,2 C -1,2 C 1,6 km/h (1 Bft) 95,65 %
29.03.2023 00:11 -1,3 C 86 % 1028,2 hPa 0,0 l/m 1,6 km/h (1 Bft) O-NO 67 0 min 0,000 mm 0,0 UV-I 0 W/m -3,3 C -1,3 C 1,6 km/h (1 Bft) 100,00 %
29.03.2023 00:10 -1,2 C 86 % 1028,3 hPa 0,0 l/m 0,0 km/h (0 Bft) N 0 0 min 0,000 mm 0,0 UV-I 0 W/m -3,2 C -1,2 C 0,0 km/h (0 Bft) 100,00 %
29.03.2023 00:09 -1,3 C 86 % 1028,3 hPa 0,0 l/m 0,0 km/h (0 Bft) N 0 0 min 0,000 mm 0,0 UV-I 0 W/m -3,3 C -1,3 C 0,0 km/h (0 Bft) 100,00 %
29.03.2023 00:08 -1,3 C 86 % 1028,3 hPa 0,0 l/m 0,0 km/h (0 Bft) O-NO 67 0 min 0,000 mm 0,0 UV-I 0 W/m -3,3 C -1,3 C 1,6 km/h (1 Bft) 95,65 %
29.03.2023 00:07 -1,3 C 86 % 1028,4 hPa 0,0 l/m 0,0 km/h (0 Bft) O-NO 67 0 min 0,000 mm 0,0 UV-I 0 W/m -3,3 C -1,3 C 1,6 km/h (1 Bft) 95,65 %
29.03.2023 00:06 -1,3 C 86 % 1028,4 hPa 0,0 l/m 1,6 km/h (1 Bft) O-NO 67 0 min 0,000 mm 0,0 UV-I 0 W/m -3,3 C -1,3 C 1,6 km/h (1 Bft) 95,65 %
29.03.2023 00:05 -1,3 C 87 % 1028,4 hPa 0,0 l/m 1,6 km/h (1 Bft) O-NO 67 0 min 0,000 mm 0,0 UV-I 0 W/m -3,2 C -1,3 C 1,6 km/h (1 Bft) 100,00 %
29.03.2023 00:04 -1,4 C 87 % 1028,3 hPa 0,0 l/m 1,6 km/h (1 Bft) O-NO 67 0 min 0,000 mm 0,0 UV-I 0 W/m -3,3 C -1,4 C 3,2 km/h (1 Bft) 100,00 %
29.03.2023 00:03 -1,4 C 87 % 1028,3 hPa 0,0 l/m 1,6 km/h (1 Bft) O-NO 67 0 min 0,000 mm 0,0 UV-I 0 W/m -3,3 C -1,4 C 3,2 km/h (1 Bft) 95,65 %
29.03.2023 00:02 -1,4 C 86 % 1028,4 hPa 0,0 l/m 1,6 km/h (1 Bft) O-NO 67 0 min 0,000 mm 0,0 UV-I 0 W/m -3,4 C -1,4 C 3,2 km/h (1 Bft) 100,00 %
29.03.2023 00:01 -1,4 C 87 % 1028,4 hPa 0,0 l/m 0,0 km/h (0 Bft) O-NO 67 0 min 0,000 mm 0,0 UV-I 0 W/m -3,3 C -1,4 C 1,6 km/h (1 Bft) 91,30 %
29.03.2023 00:00 -1,5 C 87 % 1028,5 hPa 0,0 l/m 1,6 km/h (1 Bft) O-NO 67 0 min 0,000 mm 0,0 UV-I 0 W/m -3,4 C -1,5 C 3,2 km/h (1 Bft) 100,00 %
_ Min-Zeit 00:01 15:17 17:46 - 00:01 - - - - - - 01:15 06:46 00:09 02:14
Minimum _ -1,5 C 76 % 1022,9 hPa - 0,0 km/h (0 Bft) - - - - - - -3,5 C -1,9 C 0,0 km/h (0 Bft) 56,52 %
_ Max-Zeit 17:25 00:00 00:22 13:07 16:32 - - 13:48 15:00 14:18 16:32 17:19 17:25 13:55 00:00
Maximum _ 7,7 C 87 % 1028,6 hPa 0,2 l/m 6,4 km/h
S (2 Bft)
- - 1 min 0,102 mm 1,7 UV-I 315 W/m 4,2 C 7,7 C 8,0 km/h
S (2 Bft)
100,00 %
Durchschnitt _ 1,8 C 83 % 1025,8 hPa #0,4 l/m 0,8 km/h (0 Bft) SW - #3:11 h #0,533 mm 0,9 UV-I 107 W/m -0,8 C 1,8 C 1,8 km/h (1 Bft) 97,32 %